GEFSCGP_con_prob3kmehi_006.txt.gz
EHI
0 0 0 0 0 0 0 0 0 0 0 0 0 1 2 4 5 4 3 2 1 0 0 0 0 0 1 3 5 6 3 0 0 0 0 0 0 0 0 0 0 0 0 0
0 0 0 0 0 0 0 0 0 0 0 0 0 1 2 3 3 3 1 1 0 0 0 0 0 0 0 1 2 2 2 0 0 0 0 0 0 0 0 0 0 0 0 0
0 0 0 0 0 0 0 0 0 0 0 0 0 1 1 1 1 1 0 0 0 0 0 0 0 0 0 0 0 0 0 0 0 0 0 0 0 0 0 0 0 0 0 0
0 0 0 0 0 0 0 0 0 0 0 0 0 0 0 0 0 0 0 0 0 0 0 0 0 0 0 0 0 0 0 0 0 0 0 0 0 0 0 0 0 0 0 0
0 0 0 0 0 0 0 0 0 0 0 0 0 0 0 0 0 0 0 0 0 0 0 0 0 0 0 0 0 0 0 0 0 0 0 0 0 0 0 0 0 0 0 0
0 0 0 0 0 0 0 0 0 0 0 0 0 0 0 0 0 0 0 0 0 0 0 0 0 0 0 0 0 0 0 0 0 0 0 0 0 0 0 0 0 0 0 0
0 0 0 0 0 0 0 0 0 0 0 0 0 0 0 0 0 0 0 0 0 0 0 0 0 0 0 0 0 0 0 0 0 0 0 0 0 0 0 0 0 0 0 0
0 0 0 0 0 0 0 0 0 0 0 0 0 0 0 0 0 0 0 0 0 0 0 0 0 0 0 0 0 0 0 0 0 0 0 0 0 0 0 0 0 0 0 0
0 0 0 0 0 0 0 0 0 0 0 0 0 0 0 0 0 0 0 0 0 0 0 0 0 0 0 0 0 0 0 0 0 0 0 0 0 0 0 0 0 0 0 0
0 0 0 0 0 0 0 0 0 0 0 0 0 0 0 0 0 0 0 0 0 0 0 0 0 0 0 0 0 0 0 0 0 0 0 0 0 0 0 0 0 0 0 0
0 0 0 0 0 0 0 0 0 0 0 0 0 0 0 0 0 0 0 0 0 0 0 0 0 0 0 0 0 0 0 0 0 0 0 0 0 0 0 0 0 0 0 0
0 0 0 0 0 0 0 0 0 0 0 0 0 0 0 0 0 0 0 0 0 0 0 0 0 0 0 0 0 0 0 0 0 0 0 0 0 0 0 0 0 0 0 0
0 0 0 0 0 0 0 0 0 0 0 0 0 0 0 0 0 0 0 0 0 0 0 0 0 0 0 0 0 0 0 0 0 0 0 0 0 0 0 0 0 0 0 0
0 0 0 0 0 0 0 0 0 0 0 0 0 0 0 0 0 0 0 0 0 0 0 0 0 0 0 0 0 0 0 0 0 0 0 0 0 0 0 0 0 0 0 0
0 0 0 0 0 0 0 0 0 0 0 0 0 0 0 0 0 0 0 0 0 0 0 0 0 0 0 0 0 0 0 0 0 0 0 0 0 0 0 0 0 0 0 0
0 0 0 0 0 0 0 0 0 0 0 0 0 0 0 0 0 0 0 0 0 0 0 0 0 0 0 0 0 0 0 0 0 0 0 0 0 0 0 0 0 0 0 0
0 0 0 0 0 0 0 0 0 0 0 0 0 0 0 0 0 0 0 0 0 0 0 0 0 0 0 0 0 0 0 0 0 0 0 0 0 0 0 0 0 0 0 0
0 0 0 0 0 0 0 0 0 0 0 0 0 0 0 0 0 0 0 0 0 0 0 0 0 0 0 0 0 0 0 0 0 0 0 0 0 0 0 0 0 0 0 0
0 0 0 0 0 0 0 0 0 0 0 0 0 0 0 0 0 0 0 0 0 0 0 0 0 0 0 0 0 0 0 0 0 0 0 0 0 0 0 0 0 0 0 0
0 0 0 0 0 0 0 0 0 0 0 0 0 0 0 0 0 0 0 0 0 0 0 0 0 0 0 0 0 0 0 0 0 0 0 0 0 0 0 0 0 0 0 0
0 0 0 0 0 0 0 0 0 0 0 0 0 0 0 0 0 0 0 0 0 0 0 0 0 0 0 0 0 0 0 0 0 0 0 0 0 0 0 0 0 0 0 0
0 0 0 0 0 0 0 0 0 0 0 0 0 0 0 0 0 0 0 0 0 0 0 0 0 0 0 0 0 0 0 0 0 0 0 0 0 0 0 0 0 0 0 0
0 0 0 0 0 0 0 0 0 0 0 0 0 0 0 0 0 0 0 0 0 0 0 0 0 0 0 0 0 0 0 0 0 0 0 0 0 0 0 0 0 0 0 0
0 0 0 0 0 0 0 0 0 0 0 0 0 0 0 0 0 0 0 0 0 0 0 0 0 0 0 0 0 0 0 0 0 0 0 0 0 0 0 0 0 0 0 0
0 0 0 0 0 0 0 0 0 0 0 0 0 0 0 0 0 0 0 0 0 0 0 0 0 0 0 0 0 0 0 0 0 0 0 0 0 0 0 0 0 0 0 0
0 0 0 0 0 0 0 0 0 0 0 0 0 0 0 0 0 0 0 0 0 0 0 0 0 0 0 0 0 0 0 0 0 0 0 0 0 0 0 0 0 0 0 0

GEFSCGP_con_prob3kmehi_012.txt.gz
EHI
0 0 0 0 0 0 0 0 0 0 0 0 0 0 0 0 0 0 0 0 0 0 0 0 0 0 0 0 0 0 0 0 0 0 0 0 1 2 2 1 0 0 1 1
0 0 0 0 0 0 0 0 0 0 0 0 0 0 0 0 0 0 0 0 0 0 0 0 0 0 0 0 0 0 0 0 0 0 0 0 0 1 1 0 0 0 0 1
0 0 0 0 0 0 0 0 0 0 0 0 0 0 0 0 0 0 0 0 0 0 0 0 0 0 0 0 0 0 0 0 0 0 0 0 0 0 0 0 0 0 0 1
0 0 0 0 0 0 0 0 0 0 0 0 0 0 0 0 0 0 0 0 0 0 0 0 0 0 0 0 0 0 0 0 0 0 0 0 0 0 0 0 0 0 0 1
0 0 0 0 0 0 0 0 0 0 0 0 0 0 0 0 0 0 0 0 0 0 0 0 0 0 0 0 0 0 0 0 0 0 0 0 0 0 0 0 0 0 0 0
0 0 0 0 0 0 0 0 0 0 0 0 0 0 0 0 0 0 0 0 0 0 0 0 0 0 0 0 0 0 0 0 0 0 0 0 0 0 0 0 0 0 0 0
0 0 0 0 0 0 0 0 0 0 0 0 0 0 0 0 0 0 0 0 0 0 0 0 0 0 0 0 0 0 0 0 0 0 0 0 0 0 0 0 0 0 0 0
0 0 0 0 0 0 0 0 0 0 0 0 0 0 0 0 0 0 0 0 0 0 0 0 0 0 0 0 0 0 0 0 0 0 0 0 0 0 0 0 0 0 0 0
0 0 0 0 0 0 0 0 0 0 0 0 0 0 0 0 0 0 0 0 0 0 0 0 0 0 0 0 0 0 0 0 0 0 0 0 0 0 0 0 0 0 0 0
0 0 0 0 0 0 0 0 0 0 0 0 0 0 0 0 0 0 0 0 0 0 0 0 0 0 0 0 0 0 0 0 0 0 0 0 0 0 0 0 0 0 0 0
0 0 0 0 0 0 0 0 0 0 0 0 0 0 0 0 0 0 0 0 0 0 0 0 0 0 0 0 0 0 0 0 0 0 0 0 0 0 0 0 0 0 0 0
0 0 0 0 0 0 0 0 0 0 0 0 0 0 0 0 0 0 0 0 0 0 0 0 0 0 0 0 0 0 0 0 0 0 0 0 0 0 0 0 0 0 0 0
0 0 0 0 0 0 0 0 0 0 0 0 0 0 0 0 0 0 0 0 0 0 0 0 0 0 0 0 0 0 0 0 0 0 0 0 0 0 0 0 0 0 0 0
0 0 0 0 0 0 0 0 0 0 0 0 0 0 0 0 0 0 0 0 0 0 0 0 0 0 0 0 0 0 0 0 0 0 0 0 0 0 0 0 0 0 0 0
0 0 0 0 0 0 0 0 0 0 0 0 0 0 0 0 0 0 0 0 0 0 0 0 0 0 0 0 0 0 0 0 0 0 0 0 0 0 0 0 0 0 0 0
0 0 0 0 0 0 0 0 0 0 0 0 0 0 0 0 0 0 0 0 0 0 0 0 0 0 0 0 0 0 0 0 0 0 0 0 0 0 0 0 0 0 0 0
0 0 0 0 0 0 0 0 0 0 0 0 0 0 0 0 0 0 0 0 0 0 0 0 0 0 0 0 0 0 0 0 0 0 0 0 0 0 0 0 0 0 0 0
0 0 0 0 0 0 0 0 0 0 0 0 0 0 0 0 0 0 0 0 0 0 0 0 0 0 0 0 0 0 0 0 0 0 0 0 0 0 0 0 0 0 0 0
0 0 0 0 0 0 0 0 0 0 0 0 0 0 0 0 0 0 0 0 0 0 0 0 0 0 0 0 0 0 0 0 0 0 0 0 0 0 0 0 0 0 0 0
0 0 0 0 0 0 0 0 0 0 0 0 0 0 0 0 0 0 0 0 0 0 0 0 0 0 0 0 0 0 0 0 0 0 0 0 0 0 0 0 0 0 0 0
0 0 0 0 0 0 0 0 0 0 0 0 0 0 0 0 0 0 0 0 0 0 0 0 0 0 0 0 0 0 0 0 0 0 0 0 0 0 0 0 0 0 0 0
0 0 0 0 0 0 0 0 0 0 0 0 0 0 0 0 0 0 0 0 0 0 0 0 0 0 0 0 0 0 0 0 0 0 0 0 0 0 0 0 0 0 0 0
0 0 0 0 0 0 0 0 0 0 0 0 0 0 0 0 0 0 0 0 0 0 0 0 0 0 0 0 0 0 0 0 0 0 0 0 0 0 0 0 0 0 0 0
0 0 0 0 0 0 0 0 0 0 0 0 0 0 0 0 0 0 0 0 0 0 0 0 0 0 0 0 0 0 0 0 0 0 0 0 0 0 0 0 0 0 0 0
0 0 0 0 0 0 0 0 0 0 0 0 0 0 0 0 0 0 0 0 0 0 0 0 0 0 0 0 0 0 0 0 0 0 0 0 0 0 0 0 0 0 0 0
0 0 0 0 0 0 0 0 0 0 0 0 0 0 0 0 0 0 0 0 0 0 0 0 0 0 0 0 0 0 0 0 0 0 0 0 0 0 0 0 0 0 0 0

GEFSCGP_con_prob3kmehi_018.txt.gz
EHI
0 0 0 0 0 0 0 0 0 0 0 0 0 0 0 0 0 0 0 0 1 1 1 2 2 2 1 0 0 0 0 0 1 2 2 2 4 5 4 3 5 8 11 12
0 0 0 0 0 0 0 0 0 0 0 0 0 0 0 0 0 0 0 0 0 0 0 1 1 1 0 0 0 0 0 0 0 1 1 1 2 2 2 1 2 4 6 9
0 0 0 0 0 0 0 0 0 0 0 0 0 0 0 0 0 0 0 0 0 0 0 0 0 0 0 0 0 0 0 0 0 0 0 0 0 0 0 0 0 0 2 3
0 0 0 0 0 0 0 0 0 0 0 0 0 0 0 0 0 0 0 0 0 0 0 0 0 0 0 0 0 0 0 0 0 0 0 0 0 0 0 0 0 0 0 0
0 0 0 0 0 0 0 0 0 0 0 0 0 0 0 0 0 0 0 0 0 0 0 0 0 0 0 0 0 0 0 0 0 0 0 0 0 0 0 0 0 0 0 0
0 0 0 0 0 0 0 0 0 0 0 0 0 1 1 1 0 0 0 0 0 0 0 0 0 0 0 0 0 0 0 0 0 0 0 0 0 0 0 0 0 0 0 0
0 0 0 0 0 0 0 0 0 0 0 0 0 2 3 2 0 0 0 0 0 0 0 0 0 0 0 0 0 0 0 0 0 0 0 0 0 0 0 0 0 0 0 0
0 0 0 0 0 0 0 0 0 0 0 0 0 2 3 2 0 0 0 0 0 0 0 0 0 0 0 0 0 0 0 0 0 0 0 0 0 0 0 0 0 0 0 0
0 0 0 0 0 0 0 0 0 0 0 0 0 1 2 1 0 0 0 0 0 0 0 0 0 0 0 0 0 0 0 0 0 0 0 0 0 0 0 0 0 0 0 0
0 0 0 0 0 0 0 0 0 0 0 0 0 1 1 0 0 0 0 0 0 0 0 0 0 0 0 0 0 0 0 0 0 0 0 0 0 0 0 0 0 0 0 0
0 0 0 0 0 0 0 0 0 0 0 0 0 0 0 0 0 0 0 0 0 0 0 0 0 0 0 0 0 0 0 0 0 0 0 0 0 0 0 0 0 0 0 0
0 0 0 0 0 0 0 0 0 0 0 0 0 0 0 0 0 0 0 0 0 0 0 0 0 0 0 0 0 0 0 0 0 0 0 0 0 0 0 0 0 0 0 0
0 0 0 0 0 0 0 0 0 0 0 0 0 0 0 0 0 0 0 0 0 0 0 0 0 0 0 0 0 0 0 0 0 0 0 0 0 0 0 0 0 0 0 0
0 0 0 0 0 0 0 0 0 0 0 0 0 0 0 0 0 0 0 0 0 0 0 0 0 0 0 0 0 0 0 0 0 0 0 0 0 0 0 0 0 0 0 0
0 0 0 0 0 0 0 0 0 0 0 0 0 0 0 0 0 0 0 0 0 0 0 0 0 0 0 0 0 0 0 0 0 0 0 0 0 0 0 0 0 0 0 0
0 0 0 0 0 0 0 0 0 0 0 0 0 0 0 0 0 0 0 0 0 0 0 0 0 0 0 0 0 0 0 0 0 0 0 0 0 0 0 0 0 0 0 0
0 0 0 0 0 0 0 0 0 0 0 0 0 0 0 0 0 0 0 0 0 0 0 0 0 0 0 0 0 0 0 0 0 0 0 0 0 0 0 0 0 0 0 0
0 0 0 0 0 0 0 0 0 0 0 0 0 0 0 0 0 0 0 0 0 0 0 0 0 0 0 0 0 0 0 0 0 0 0 0 0 0 0 0 0 0 0 0
0 0 0 0 0 0 0 0 0 0 0 0 0 0 0 0 0 0 0 0 0 0 0 0 0 0 0 0 0 0 0 0 0 0 0 0 0 0 0 0 0 0 0 0
0 0 0 0 0 0 0 0 0 0 0 0 0 0 0 0 0 0 0 0 0 0 0 0 0 0 0 0 0 0 0 0 0 0 0 0 0 0 0 0 0 0 0 0
0 0 0 0 0 0 0 0 0 0 0 0 0 0 0 0 0 0 0 0 0 0 0 0 0 0 0 0 0 0 0 0 0 0 0 0 0 0 0 0 0 0 0 0
0 0 0 0 0 0 0 0 0 0 0 0 0 0 0 0 0 0 0 0 0 0 0 0 0 0 0 0 0 0 0 0 0 0 0 0 0 0 0 0 0 0 0 0
0 0 0 0 0 0 0 0 0 0 0 0 0 0 0 0 0 0 0 0 0 0 0 0 0 0 0 0 0 0 0 0 0 0 0 0 0 0 0 0 0 0 0 0
0 0 0 0 0 0 0 0 0 0 0 0 0 0 0 0 0 0 0 0 0 0 0 0 0 0 0 0 0 0 0 0 0 0 0 0 0 0 0 0 0 0 0 0
0 0 0 0 0 0 0 0 0 0 0 0 0 0 0 0 0 0 0 0 0 0 0 0 0 0 0 0 0 0 0 0 0 0 0 0 0 0 0 0 0 0 0 0
0 0 0 0 0 0 0 0 0 0 0 0 0 0 0 0 0 0 0 0 0 0 0 0 0 0 0 0 0 0 0 0 0 0 0 0 0 0 0 0 0 0 0 0

GEFSCGP_con_prob3kmehi_024.txt.gz
EHI
0 0 0 0 0 0 0 0 0 1 0 2 6 8 5 3 5 11 16 16 14 10 5 3 2 1 1 2 3 5 7 6 5 6 5 3 4 6 10 15 16 12 12 15
0 0 0 0 0 0 0 0 0 1 0 1 4 8 8 5 4 9 17 17 12 7 3 1 1 0 0 1 2 4 7 7 7 8 5 3 4 4 6 9 9 6 6 8
0 0 0 0 0 0 0 0 0 0 0 1 3 8 11 7 3 5 12 13 9 4 1 0 0 0 0 0 1 4 8 10 11 9 5 2 2 2 3 3 2 2 1 1
0 0 0 0 0 0 0 0 0 0 0 0 1 5 10 9 4 2 5 5 3 1 0 0 0 0 0 0 1 4 8 11 11 7 3 1 1 1 1 1 1 0 0 0
0 0 0 0 0 0 0 0 0 0 0 0 0 2 5 8 9 9 7 3 1 0 0 0 0 0 0 0 1 3 5 6 6 4 1 0 0 0 0 0 0 0 0 0
0 0 0 0 0 0 0 0 0 0 0 0 0 1 4 8 14 15 10 4 1 0 0 0 0 0 0 0 0 1 1 1 1 1 0 0 0 0 0 0 0 0 0 0
0 0 0 0 0 0 0 0 0 0 0 0 0 3 7 10 11 11 7 2 0 0 0 0 0 0 0 0 0 0 0 0 0 0 0 0 0 0 0 0 0 0 0 0
0 0 0 0 0 0 0 0 0 0 0 0 3 8 12 8 4 3 2 0 0 0 0 0 0 0 0 0 0 0 0 0 0 0 0 0 0 0 0 0 0 0 0 0
0 0 0 0 0 0 0 0 0 0 0 0 4 11 10 4 1 0 0 0 0 0 0 0 0 0 0 0 0 0 0 0 0 0 0 0 0 0 0 0 0 0 0 0
0 0 0 0 0 0 0 0 0 0 0 0 3 6 4 1 0 0 0 0 0 0 0 0 0 0 0 0 0 0 0 0 0 0 0 0 0 0 0 0 0 0 0 0
0 0 0 0 0 0 0 0 0 0 0 0 0 1 1 0 0 0 0 0 0 0 0 0 0 0 0 0 0 0 0 0 0 0 0 0 0 0 0 0 0 0 0 0
0 0 0 0 0 0 0 0 0 0 0 0 0 0 0 0 0 0 0 0 0 0 0 0 0 0 0 0 0 0 0 0 0 0 0 0 0 0 0 0 0 0 0 0
0 0 0 0 0 0 0 0 0 0 0 0 0 0 0 0 0 0 0 0 0 0 0 0 0 0 0 0 0 0 0 0 0 0 0 0 0 0 0 0 0 0 0 0
0 0 0 0 0 0 0 0 0 0 0 0 0 0 0 0 0 0 0 0 0 0 0 0 0 0 0 0 0 0 0 0 0 0 0 0 0 0 0 0 0 0 0 0
0 0 0 0 0 0 0 0 0 0 0 0 0 0 0 0 0 0 0 0 0 0 0 0 0 0 0 0 0 0 0 0 0 0 0 0 0 0 0 0 0 0 0 0
0 0 0 0 0 0 0 0 0 0 0 0 0 0 0 0 0 0 0 0 0 0 0 0 0 0 0 0 0 0 0 0 0 0 0 0 0 0 0 0 0 0 0 0
0 0 0 0 0 0 0 0 0 0 0 0 0 0 0 0 0 0 0 0 0 0 0 0 0 0 0 0 0 0 0 0 0 0 0 0 0 0 0 0 0 0 0 0
0 0 0 0 0 0 0 0 0 0 0 0 0 0 0 0 0 0 0 0 0 0 0 0 0 0 0 0 0 0 0 0 0 0 0 0 0 0 0 0 0 0 0 0
0 0 0 0 0 0 0 0 0 0 0 0 0 0 0 0 0 0 0 0 0 0 0 0 0 0 0 0 0 0 0 0 0 0 0 0 0 0 0 0 0 0 0 0
0 0 0 0 0 0 0 0 0 0 0 0 0 0 0 0 0 0 0 0 0 0 0 0 0 0 0 0 0 0 0 0 0 0 0 0 0 0 0 0 0 0 0 0
0 0 0 0 0 0 0 0 0 0 0 0 0 0 0 0 0 0 0 0 0 0 0 0 0 0 0 0 0 0 0 0 0 0 0 0 0 0 0 0 0 0 0 0
0 0 0 0 0 0 0 0 0 0 0 0 0 0 0 0 0 0 0 0 0 0 0 0 0 0 0 0 0 0 0 0 0 0 0 0 0 0 0 0 0 0 0 0
0 0 0 0 0 0 0 0 0 0 0 0 0 0 0 0 0 0 0 0 0 0 0 0 0 0 0 0 0 0 0 0 0 0 0 0 0 0 0 0 0 0 0 0
0 0 0 0 0 0 0 0 0 0 0 0 0 0 0 0 0 0 0 0 0 0 0 0 0 0 0 0 0 0 0 0 0 0 0 0 0 0 0 0 0 0 0 0
0 0 0 0 0 0 0 0 0 0 0 0 0 0 0 0 0 0 0 0 0 0 0 0 0 0 0 0 0 0 0 0 0 0 0 0 0 0 0 0 0 0 0 0
0 0 0 0 0 0 0 0 0 0 0 0 0 0 0 0 0 0 0 0 0 0 0 0 0 0 0 0 0 0 0 0 0 0 0 0 0 0 0 0 0 0 0 0

GEFSCGP_con_prob3kmehi_030.txt.gz
EHI
0 0 0 0 0 0 0 0 0 0 2 4 7 10 11 11 10 8 5 4 3 1 0 0 0 0 0 0 0 0 0 0 0 0 0 0 0 0 0 0 0 0 0 0
0 0 0 0 0 0 0 0 0 1 3 5 7 7 6 7 8 7 4 4 2 0 0 0 0 0 0 0 0 0 0 0 0 0 0 0 0 0 0 0 0 0 0 0
0 0 0 0 0 0 0 0 0 1 2 4 4 3 2 4 5 4 4 3 1 0 0 0 1 1 0 0 0 0 0 0 0 0 0 0 0 0 0 0 0 0 0 0
0 0 0 0 0 0 0 0 0 1 1 1 1 1 2 3 3 2 3 4 2 0 0 1 2 2 0 0 0 0 0 0 0 0 0 0 0 0 0 0 0 0 0 0
0 0 0 0 0 0 0 0 0 0 0 0 0 0 1 2 2 1 2 4 3 1 0 1 2 1 0 0 0 0 0 0 0 0 0 0 0 0 0 0 0 0 0 0
0 0 0 0 0 0 0 0 0 0 0 0 0 0 0 0 0 0 1 3 2 0 0 0 1 0 0 0 0 0 0 0 0 0 0 0 0 0 0 0 0 0 0 0
0 0 0 0 0 0 0 0 0 0 0 0 0 0 0 0 0 0 1 1 0 0 0 0 0 0 0 0 0 0 0 0 0 0 0 0 0 0 0 0 0 0 0 0
0 0 0 0 0 0 0 0 0 0 0 0 0 0 0 0 0 0 1 1 0 0 0 0 0 0 0 0 0 0 0 0 0 0 0 0 0 0 0 0 0 0 0 0
0 0 0 0 0 0 0 0 0 0 0 0 0 0 0 0 0 0 0 0 0 0 0 0 0 0 0 0 0 0 0 0 0 0 0 0 0 0 0 0 0 0 0 0
0 0 0 0 0 0 0 0 0 0 0 0 0 0 0 0 0 0 0 0 0 0 0 0 0 0 0 0 0 0 0 0 0 0 0 0 0 0 0 0 0 0 0 0
0 0 0 0 0 0 0 0 0 0 0 0 0 0 0 0 0 0 0 0 0 0 0 0 0 0 0 0 0 0 0 0 0 0 0 0 0 0 0 0 0 0 0 0
0 0 0 0 0 0 0 0 0 0 0 0 0 0 0 0 0 0 0 0 0 0 0 0 0 0 0 0 0 0 0 0 0 0 0 0 0 0 0 0 0 0 0 0
0 0 0 0 0 0 0 0 0 0 0 0 0 0 0 0 0 0 0 0 0 0 0 0 0 0 0 0 0 0 0 0 0 0 0 0 0 0 0 0 0 0 0 0
0 0 0 0 0 0 0 0 0 0 0 0 0 0 0 0 0 0 0 0 0 0 0 0 0 0 0 0 0 0 0 0 0 0 0 0 0 0 0 0 0 0 0 0
0 0 0 0 0 0 0 0 0 0 0 0 0 0 0 0 0 0 0 0 0 0 0 0 0 0 0 0 0 0 0 0 0 0 0 0 0 0 0 0 0 0 0 0
0 0 0 0 0 0 0 0 0 0 0 0 0 0 0 0 0 0 0 0 0 0 0 0 0 0 0 0 0 0 0 0 0 0 0 0 0 0 0 0 0 0 0 0
0 0 0 0 0 0 0 0 0 0 0 0 0 0 0 0 0 0 0 0 0 0 0 0 0 0 0 0 0 0 0 0 0 0 0 0 0 0 0 0 0 0 0 0
0 0 0 0 0 0 0 0 0 0 0 0 0 0 0 0 0 0 0 0 0 0 0 0 0 0 0 0 0 0 0 0 0 0 0 0 0 0 0 0 0 0 0 0
0 0 0 0 0 0 0 0 0 0 0 0 0 0 0 0 0 0 0 0 0 0 0 0 0 0 0 0 0 0 0 0 0 0 0 0 0 0 0 0 0 0 0 0
0 0 0 0 0 0 0 0 0 0 0 0 0 0 0 0 0 0 0 0 0 0 0 0 0 0 0 0 0 0 0 0 0 0 0 0 0 0 0 0 0 0 0 0
0 0 0 0 0 0 0 0 0 0 0 0 0 0 0 0 0 0 0 0 0 0 0 0 0 0 0 0 0 0 0 0 0 0 0 0 0 0 0 0 0 0 0 0
0 0 0 0 0 0 0 0 0 0 0 0 0 0 0 0 0 0 0 0 0 0 0 0 0 0 0 0 0 0 0 0 0 0 0 0 0 0 0 0 0 0 0 0
0 0 0 0 0 0 0 0 0 0 0 0 0 0 0 0 0 0 0 0 0 0 0 0 0 0 0 0 0 0 0 0 0 0 0 0 0 0 0 0 0 0 0 0
0 0 0 0 0 0 0 0 0 0 0 0 0 0 0 0 0 0 0 0 0 0 0 0 0 0 0 0 0 0 0 0 0 0 0 0 0 0 0 0 0 0 0 0
0 0 0 0 0 0 0 0 0 0 0 0 0 0 0 0 0 0 0 0 0 0 0 0 0 0 0 0 0 0 0 0 0 0 0 0 0 0 0 0 0 0 0 0
0 0 0 0 0 0 0 0 0 0 0 0 0 0 0 0 0 0 0 0 0 0 0 0 0 0 0 0 0 0 0 0 0 0 0 0 0 0 0 0 0 0 0 0

GEFSCGP_con_prob3kmehi_036.txt.gz
EHI
0 0 0 0 0 0 0 0 0 0 1 3 7 11 11 8 6 4 2 1 0 0 0 0 0 0 0 0 0 0 0 0 0 0 0 0 0 0 0 0 0 0 0 0
0 0 0 0 0 0 0 0 0 0 0 2 4 6 6 5 4 3 1 0 0 0 0 0 0 0 0 0 0 0 0 0 0 0 0 0 0 0 0 0 0 0 0 0
0 0 0 0 0 0 0 0 0 0 0 0 1 1 2 2 1 1 0 0 0 0 0 0 0 0 0 0 0 0 0 0 0 0 0 0 0 0 0 0 0 0 0 0
0 0 0 0 0 0 0 0 0 1 0 0 0 0 0 0 0 0 0 0 0 0 0 0 0 0 0 0 0 0 0 0 0 0 0 0 0 0 0 0 0 0 0 0
0 0 0 0 0 0 0 0 0 0 0 0 0 0 0 0 0 0 0 0 0 0 0 0 0 0 0 0 0 0 0 0 0 0 0 0 0 0 0 0 0 0 0 0
0 0 0 0 0 0 0 0 0 0 0 0 0 0 0 0 0 0 0 0 0 0 0 0 0 0 0 0 0 0 0 0 0 0 0 0 0 0 0 0 0 0 0 0
0 0 0 0 0 0 0 0 0 0 0 0 0 0 0 0 0 0 0 0 0 0 0 0 0 0 0 0 0 0 0 0 0 0 0 0 0 0 0 0 0 0 0 0
0 0 0 0 0 0 0 0 0 0 0 0 0 0 0 0 0 0 0 0 0 0 0 0 0 0 0 0 0 0 0 0 0 0 0 0 0 0 0 0 0 0 0 0
0 0 0 0 0 0 0 0 0 0 0 0 0 0 0 0 0 0 0 0 0 0 0 0 0 0 0 0 0 0 0 0 0 0 0 0 0 0 0 0 0 0 0 0
0 0 0 0 0 0 0 0 0 0 0 0 0 0 0 0 0 0 0 0 0 0 0 0 0 0 0 0 0 0 0 0 0 0 0 0 0 0 0 0 0 0 0 0
0 0 0 0 0 0 0 0 0 0 0 0 0 0 0 0 0 0 0 0 0 0 0 0 0 0 0 0 0 0 0 0 0 0 0 0 0 0 0 0 0 0 0 0
0 0 0 0 0 0 0 0 0 0 0 0 0 0 0 0 0 0 0 0 0 0 0 0 0 0 0 0 0 0 0 0 0 0 0 0 0 0 0 0 0 0 0 0
0 0 0 0 0 0 0 0 0 0 0 0 0 0 0 0 0 0 0 0 0 0 0 0 0 0 0 0 0 0 0 0 0 0 0 0 0 0 0 0 0 0 0 0
0 0 0 0 0 0 0 0 0 0 0 0 0 0 0 0 0 0 0 0 0 0 0 0 0 0 0 0 0 0 0 0 0 0 0 0 0 0 0 0 0 0 0 0
0 0 0 0 0 0 0 0 0 0 0 0 0 0 0 0 0 0 0 0 0 0 0 0 0 0 0 0 0 0 0 0 0 0 0 0 0 0 0 0 0 0 0 0
0 0 0 0 0 0 0 0 0 0 0 0 0 0 0 0 0 0 0 0 0 0 0 0 0 0 0 0 0 0 0 0 0 0 0 0 0 0 0 0 0 0 0 0
0 0 0 0 0 0 0 0 0 0 0 0 0 0 0 0 0 0 0 0 0 0 0 0 0 0 0 0 0 0 0 0 0 0 0 0 0 0 0 0 0 0 0 0
0 0 0 0 0 0 0 0 0 0 0 0 0 0 0 0 0 0 0 0 0 0 0 0 0 0 0 0 0 0 0 0 0 0 0 0 0 0 0 0 0 0 0 0
0 0 0 0 0 0 0 0 0 0 0 0 0 0 0 0 0 0 0 0 0 0 0 0 0 0 0 0 0 0 0 0 0 0 0 0 0 0 0 0 0 0 0 0
0 0 0 0 0 0 0 0 0 0 0 0 0 0 0 0 0 0 0 0 0 0 0 0 0 0 0 0 0 0 0 0 0 0 0 0 0 0 0 0 0 0 0 0
0 0 0 0 0 0 0 0 0 0 0 0 0 0 0 0 0 0 0 0 0 0 0 0 0 0 0 0 0 0 0 0 0 0 0 0 0 0 0 0 0 0 0 0
0 0 0 0 0 0 0 0 0 0 0 0 0 0 0 0 0 0 0 0 0 0 0 0 0 0 0 0 0 0 0 0 0 0 0 0 0 0 0 0 0 0 0 0
0 0 0 0 0 0 0 0 0 0 0 0 0 0 0 0 0 0 0 0 0 0 0 0 0 0 0 0 0 0 0 0 0 0 0 0 0 0 0 0 0 0 0 0
0 0 0 0 0 0 0 0 0 0 0 0 0 0 0 0 0 0 0 0 0 0 0 0 0 0 0 0 0 0 0 0 0 0 0 0 0 0 0 0 0 0 0 0
0 0 0 0 0 0 0 0 0 0 0 0 0 0 0 0 0 0 0 0 0 0 0 0 0 0 0 0 0 0 0 0 0 0 0 0 0 0 0 0 0 0 0 0
0 0 0 0 0 0 0 0 0 0 0 0 0 0 0 0 0 0 0 0 0 0 0 0 0 0 0 0 0 0 0 0 0 0 0 0 0 0 0 0 0 0 0 0

GEFSCGP_con_prob3kmehi_042.txt.gz
EHI
0 0 0 0 0 0 0 0 0 0 0 0 0 4 11 14 14 15 14 12 9 6 4 1 0 1 1 1 0 0 0 0 0 0 0 0 0 0 0 0 0 0 0 0
0 0 0 0 0 0 0 0 0 0 0 0 0 4 10 13 12 10 8 8 6 4 3 1 0 0 0 0 0 0 0 0 0 0 0 0 0 0 0 0 0 0 0 0
0 0 0 0 0 0 0 0 0 0 0 0 0 2 7 10 9 7 5 3 2 2 1 1 0 0 0 0 0 2 3 4 4 3 1 0 0 0 0 0 0 0 0 0
0 0 0 0 0 0 0 0 0 0 0 0 0 1 4 6 7 7 4 2 1 0 0 0 0 0 0 0 2 7 12 15 14 10 5 2 0 0 0 0 0 0 0 0
0 0 0 0 0 0 0 0 0 0 0 0 0 0 1 2 4 4 3 2 1 1 0 0 0 0 0 0 3 13 25 30 26 19 13 6 2 0 0 0 0 0 0 0
0 0 0 0 0 0 0 0 0 0 0 0 0 0 0 0 1 1 1 1 2 2 1 0 0 0 0 1 4 13 29 38 33 22 14 8 3 1 0 0 0 0 0 0
0 0 0 0 0 0 0 0 0 0 0 0 0 0 0 0 0 0 0 0 1 2 1 1 1 1 1 3 4 9 19 27 25 15 9 5 3 1 0 0 0 0 0 0
0 0 0 0 0 0 0 0 0 0 0 0 0 0 0 0 0 0 0 0 0 1 1 1 2 4 4 3 4 5 7 10 9 6 4 2 1 0 0 0 0 0 0 0
0 0 0 0 0 0 0 0 0 0 0 0 0 0 0 0 0 0 0 0 0 0 0 1 3 5 5 4 3 3 3 2 2 2 2 1 0 0 0 0 0 0 0 0
0 0 0 0 0 0 0 0 0 0 0 0 0 0 0 0 0 0 0 0 0 0 0 0 1 3 3 3 2 1 1 1 0 1 1 0 0 0 0 0 0 0 0 0
0 0 0 0 0 0 0 0 0 0 0 0 0 0 0 0 0 0 0 0 0 0 0 0 0 1 1 1 1 0 0 0 0 0 0 0 0 0 0 0 0 0 0 0
0 0 0 0 0 0 0 0 0 0 0 0 0 0 0 0 0 0 0 0 0 0 0 0 0 0 0 0 0 0 0 0 0 0 0 0 0 0 0 0 0 0 0 0
0 0 0 0 0 0 0 0 0 0 0 0 0 0 0 0 0 0 0 0 0 0 0 0 0 0 0 0 0 0 0 0 0 0 0 0 0 0 0 0 0 0 0 0
0 0 0 0 0 0 0 0 0 0 0 0 0 0 0 0 0 0 0 0 0 0 0 0 0 0 0 0 0 0 0 0 0 0 0 0 0 0 0 0 0 0 0 0
0 0 0 0 0 0 0 0 0 0 0 0 0 0 0 0 0 0 0 0 0 0 0 0 0 0 0 0 0 0 0 0 0 0 0 0 0 0 0 0 0 0 0 0
0 0 0 0 0 0 0 0 0 0 0 0 0 0 0 0 0 0 0 0 0 0 0 0 0 0 0 0 0 0 0 0 0 0 0 0 0 0 0 0 0 0 0 0
0 0 0 0 0 0 0 0 0 0 0 0 0 0 0 0 0 0 0 0 0 0 0 0 0 0 0 0 0 0 0 0 0 0 0 0 0 0 0 0 0 0 0 0
0 0 0 0 0 0 0 0 0 0 0 0 0 0 0 0 0 0 0 0 0 0 0 0 0 0 0 0 0 0 0 0 0 0 0 0 0 0 0 0 0 0 0 0
0 0 0 0 0 0 0 0 0 0 0 0 0 0 0 0 0 0 0 0 0 0 0 0 0 0 0 0 0 0 0 0 0 0 0 0 0 0 0 0 0 0 0 0
0 0 0 0 0 0 0 0 0 0 0 0 0 0 0 0 0 0 0 0 0 0 0 0 0 0 0 0 0 0 0 0 0 0 0 0 0 0 0 0 0 0 0 0
0 0 0 0 0 0 0 0 0 0 0 0 0 0 0 0 0 0 0 0 0 0 0 0 0 0 1 1 0 0 0 0 0 0 0 0 0 0 0 0 0 0 0 0
0 0 0 0 0 0 0 0 0 0 0 0 0 0 0 0 0 0 0 0 0 0 0 0 0 0 1 1 1 0 0 0 0 0 0 0 0 0 0 0 0 0 0 0
0 0 0 0 0 0 0 0 0 0 0 0 0 0 0 0 0 0 0 0 0 0 0 0 0 0 0 0 1 1 1 0 0 0 0 0 0 0 0 0 0 0 0 0
0 0 0 0 0 0 0 0 0 0 0 0 0 0 0 0 0 0 0 0 0 0 0 0 0 0 0 0 1 2 1 0 0 0 0 0 0 0 0 0 0 0 0 0
0 0 0 0 0 0 0 0 0 0 0 0 0 0 0 0 0 0 0 0 0 0 0 0 0 0 0 0 0 1 1 0 0 0 0 0 0 0 0 0 0 0 0 0
0 0 0 0 0 0 0 0 0 0 0 0 0 0 0 0 0 0 0 0 0 0 0 0 0 0 0 0 0 0 0 0 0 0 0 0 0 0 0 0 0 0 0 0

GEFSCGP_con_prob3kmehi_048.txt.gz
EHI
0 0 1 3 3 3 3 2 3 3 3 4 6 12 18 21 25 32 37 38 36 32 30 28 27 27 30 33 33 31 27 22 16 11 7 5 5 4 4 2 1 0 0 0
0 0 1 2 3 3 3 3 3 3 3 4 6 11 16 19 21 25 28 28 27 24 23 21 19 20 23 28 32 31 29 27 21 16 11 9 8 6 5 3 2 1 0 0
0 0 1 1 2 3 3 3 3 3 3 3 5 8 12 16 18 18 18 17 15 14 14 14 12 12 17 25 33 37 43 44 36 27 19 13 10 8 5 5 5 3 1 0
0 0 0 0 1 2 2 3 3 3 3 3 3 6 10 14 17 16 13 11 9 9 11 12 9 7 12 22 35 54 67 67 57 44 29 17 11 9 5 5 7 4 1 0
0 0 0 0 0 1 1 2 3 3 3 3 3 5 8 12 15 15 13 10 8 7 10 12 9 7 8 15 36 65 83 83 74 58 39 24 16 11 8 6 6 4 2 1
1 1 0 0 0 1 2 3 3 3 2 1 2 4 5 8 10 11 13 13 11 9 11 13 12 13 14 17 34 64 85 87 80 66 47 31 21 14 10 7 5 3 3 3
2 2 1 0 1 2 3 3 3 3 2 1 2 3 4 4 5 7 10 12 13 12 13 15 17 21 26 27 37 60 80 84 77 63 46 31 20 13 10 7 4 3 3 3
3 3 2 0 1 2 2 2 2 3 3 3 3 3 3 2 2 3 5 8 10 12 14 16 18 25 33 38 43 56 72 76 65 51 38 26 15 10 7 5 4 3 3 3
3 2 1 0 0 1 1 0 1 3 3 3 3 3 3 2 2 2 3 5 7 10 12 13 15 20 28 39 47 54 61 59 45 32 25 18 11 7 6 4 3 3 3 3
2 2 1 1 0 1 1 1 1 3 3 3 3 3 3 3 2 2 3 4 5 6 7 9 10 12 18 30 42 47 47 39 26 16 11 8 7 6 4 3 3 3 3 3
2 2 3 2 2 2 2 2 2 3 3 3 3 2 2 3 3 3 3 3 2 2 3 5 6 7 11 19 27 31 30 23 14 7 3 2 4 5 4 3 3 4 3 3
3 3 3 3 3 3 2 2 2 3 3 3 3 2 2 2 3 3 3 3 1 0 1 3 5 7 9 9 11 14 14 11 7 4 1 1 3 4 3 3 4 4 4 3
3 3 3 3 3 3 2 2 2 3 3 3 3 3 2 2 3 3 3 2 2 2 3 6 12 16 12 8 6 6 5 4 3 2 1 1 2 3 3 3 3 4 4 4
1 2 3 3 2 2 2 1 1 2 3 3 3 3 3 3 3 3 2 2 3 4 7 16 29 34 26 17 11 6 3 2 1 1 0 0 1 3 3 3 3 3 4 4
1 2 3 3 2 1 1 1 0 1 1 2 3 3 3 3 3 2 1 1 3 5 10 23 41 50 43 31 20 10 4 2 1 1 0 0 1 2 3 3 3 3 3 4
2 3 3 3 3 2 2 2 1 1 1 1 2 3 3 3 3 2 1 1 2 5 10 22 40 55 57 47 33 21 12 7 5 3 1 1 1 3 3 3 3 3 3 3
3 3 3 3 3 3 3 3 2 2 2 2 2 3 3 3 3 2 2 2 2 4 8 19 35 53 62 58 48 37 25 17 12 8 5 3 2 3 3 3 3 3 3 4
3 3 3 3 3 3 3 3 3 2 2 2 2 3 3 3 3 3 3 2 2 3 6 15 26 39 49 52 52 48 35 24 19 15 11 7 5 3 3 4 4 5 5 6
3 3 3 3 3 3 3 3 3 2 2 3 3 3 2 3 3 3 3 3 3 4 6 11 16 22 35 48 56 54 42 30 25 21 19 15 12 9 7 7 7 9 9 8
3 3 3 3 3 3 3 3 3 3 4 4 4 3 3 3 3 3 4 5 7 8 9 10 12 19 41 63 73 68 56 44 35 28 24 23 23 20 14 13 15 14 11 8
3 3 3 4 3 4 4 4 3 4 5 4 3 3 3 4 4 5 7 11 15 17 15 16 22 35 57 78 85 81 72 60 49 38 31 30 31 26 18 17 20 17 10 6
4 4 4 4 4 5 6 4 3 4 4 4 3 4 4 5 7 10 15 20 24 26 25 28 39 54 67 78 83 83 79 70 59 48 39 36 33 26 19 19 20 15 8 5
4 4 4 5 6 7 6 4 3 3 3 3 3 4 5 6 9 13 19 25 27 29 31 35 44 57 65 71 76 80 80 73 62 52 43 39 35 29 23 20 15 10 7 6
4 4 5 7 7 5 3 1 1 2 2 1 1 2 4 6 8 10 13 17 20 22 25 27 32 41 50 56 63 69 70 65 56 46 40 36 33 30 26 20 11 6 5 5
5 7 10 13 12 8 3 0 0 1 1 0 0 1 1 3 4 4 5 7 9 11 13 15 17 23 30 36 43 47 49 49 44 36 30 26 22 20 22 17 9 4 3 3
7 11 16 20 21 15 6 1 0 0 0 0 0 0 0 1 1 2 3 4 4 5 7 9 11 13 17 22 28 33 35 38 36 29 23 17 12 12 15 14 8 4 3 3

GEFSCGP_con_prob3kmehi_054.txt.gz
EHI
0 0 0 0 0 0 0 0 0 0 0 0 1 3 5 6 7 8 9 12 18 21 20 20 20 15 9 5 4 3 2 1 0 0 0 0 0 0 0 0 0 0 0 0
0 0 0 0 0 0 0 0 0 0 0 1 2 3 4 4 5 7 9 11 15 17 17 16 16 12 7 3 2 1 1 0 0 0 0 0 0 0 0 0 0 0 0 0
0 0 0 0 0 0 0 0 0 0 0 1 2 2 3 3 4 7 11 12 12 13 12 13 12 9 5 2 0 0 0 0 0 0 0 0 0 0 0 0 0 0 0 0
0 0 0 0 0 0 0 0 0 0 0 0 1 1 1 1 3 9 13 13 11 10 11 12 10 7 4 1 0 1 1 0 0 0 0 0 0 0 0 0 0 0 0 0
0 0 0 0 0 0 0 0 0 0 0 0 0 0 0 0 2 7 12 12 11 11 11 10 6 4 3 1 1 2 2 1 0 0 0 0 0 0 0 0 0 0 0 0
0 0 0 0 0 0 0 0 0 0 0 0 0 0 0 0 0 3 8 10 10 11 10 7 3 1 1 2 4 6 5 3 1 1 0 0 0 0 0 0 0 0 0 0
0 0 0 0 0 0 0 0 0 0 0 0 0 0 0 0 0 1 4 7 8 9 8 5 3 1 1 3 9 12 12 10 8 5 2 0 0 0 0 0 0 0 0 0
0 0 0 0 0 0 0 0 0 0 0 0 0 0 0 0 0 1 2 5 6 7 7 5 3 2 3 8 15 20 22 20 16 10 4 1 0 0 0 0 0 0 0 0
0 0 0 0 0 0 0 0 0 0 0 0 0 0 0 0 0 0 1 3 5 6 6 5 4 3 5 11 19 27 31 28 20 11 4 1 0 0 0 0 0 0 0 0
0 0 0 0 0 0 0 0 0 0 0 0 0 0 0 0 0 0 0 1 3 5 5 4 3 3 4 11 21 30 34 29 19 11 4 1 0 0 0 0 0 0 0 0
0 0 0 0 0 0 0 0 0 0 0 0 0 0 0 0 0 0 0 0 1 2 3 3 2 2 3 10 22 30 30 24 17 10 4 1 0 0 0 0 0 0 0 0
0 0 0 0 0 0 0 0 0 0 0 0 0 0 0 0 0 0 0 0 0 1 1 1 1 2 5 13 25 28 24 18 12 7 3 0 0 0 0 0 0 0 0 0
0 0 0 0 0 0 0 0 0 0 0 0 0 0 0 0 0 0 0 0 0 0 0 0 1 3 8 17 23 22 16 10 6 2 1 0 0 0 0 0 0 0 0 0
0 0 0 0 0 0 0 0 0 0 0 0 0 0 0 0 0 0 0 0 0 0 0 0 1 3 7 12 14 11 7 4 1 0 0 0 0 0 0 0 0 0 0 0
0 0 0 0 0 0 0 0 0 0 0 0 0 0 0 0 0 0 0 0 0 0 0 0 0 1 3 5 5 4 3 1 0 0 0 0 0 0 0 0 0 0 0 0
0 0 0 0 0 0 0 0 0 0 0 0 0 0 0 0 0 0 0 0 0 0 0 0 0 0 0 1 2 2 1 0 0 0 0 0 0 0 0 0 0 0 0 0
0 0 0 0 0 0 0 0 0 0 0 0 0 0 0 1 1 0 0 0 0 0 0 0 0 0 0 0 1 1 0 0 0 0 0 0 0 0 0 0 0 0 0 0
0 0 0 0 0 0 0 0 0 0 0 0 0 1 2 1 1 0 0 0 0 0 0 0 0 0 0 0 0 0 0 0 0 0 0 0 0 0 0 0 0 0 0 0
0 0 0 0 0 0 0 0 0 0 0 0 0 2 3 2 0 0 0 0 0 0 0 0 0 0 0 0 0 0 0 0 0 0 0 0 0 0 0 0 0 0 0 0
0 0 0 0 0 0 0 0 0 0 0 0 0 1 1 1 0 0 0 0 0 0 0 0 0 0 0 0 0 0 0 0 0 0 0 0 0 0 0 0 0 0 0 0
0 0 0 0 0 0 0 0 0 0 0 0 0 0 0 0 0 0 0 0 0 0 0 0 0 1 0 0 0 0 0 0 0 0 0 0 0 0 0 0 0 0 0 0
0 0 0 0 0 0 0 0 0 0 0 0 0 0 0 0 0 0 0 0 0 0 0 0 0 0 0 0 0 0 0 0 0 0 0 0 0 0 0 0 0 0 0 0
0 0 0 0 0 0 0 0 0 0 0 0 0 0 0 0 0 0 0 0 0 0 0 0 0 0 0 0 0 0 0 0 0 0 0 0 0 0 0 0 0 0 0 0
0 0 0 0 0 0 0 0 0 0 0 0 0 0 0 0 0 0 0 0 0 0 0 0 0 0 0 0 0 0 0 0 0 0 0 0 0 0 0 0 0 0 0 0
0 0 0 0 0 0 0 0 0 0 0 0 0 0 0 0 0 0 0 0 0 0 0 0 0 0 0 0 0 0 0 0 0 0 0 0 0 0 0 0 0 0 0 0
0 0 0 0 0 0 0 0 0 0 0 0 0 0 0 0 0 0 0 0 0 0 0 0 0 0 0 0 0 0 0 0 0 0 0 0 0 0 0 0 0 0 0 0

GEFSCGP_con_prob3kmehi_060.txt.gz
EHI
0 0 0 0 0 0 0 0 0 0 0 0 1 2 2 1 1 3 4 3 3 5 9 9 8 9 9 6 4 3 2 1 0 0 0 0 0 0 0 0 0 0 0 0
0 0 0 0 0 0 0 0 0 0 0 0 0 1 1 0 0 1 2 1 1 3 6 8 9 9 7 5 4 3 2 1 0 0 0 0 0 0 0 0 0 0 0 0
0 0 0 0 0 0 0 0 0 0 0 0 0 0 0 0 0 0 0 0 0 1 4 7 8 8 7 5 3 1 1 1 0 0 0 0 0 0 0 0 0 0 0 0
0 0 0 0 0 0 0 0 0 0 0 0 0 0 0 0 0 0 0 0 0 1 3 5 6 6 6 4 1 0 0 0 0 0 0 0 0 0 0 0 0 0 0 0
0 0 0 0 0 0 0 0 0 0 0 0 0 0 0 0 0 0 0 0 1 2 3 4 4 4 4 2 1 0 0 0 0 0 0 0 0 0 0 0 0 0 0 0
0 0 0 0 0 0 0 0 0 0 0 0 0 0 0 0 0 0 0 0 1 2 3 3 3 3 2 1 0 0 0 0 0 0 0 0 0 0 0 0 0 0 0 0
0 0 0 0 0 0 0 0 0 0 0 0 0 0 0 0 0 0 0 0 1 2 3 3 3 2 1 0 0 0 0 0 0 0 0 0 0 0 0 0 0 0 0 0
0 0 0 0 0 0 0 0 0 0 0 0 0 0 0 0 0 0 0 0 2 4 5 4 3 2 1 0 0 0 0 0 0 0 0 0 0 0 0 0 0 0 0 0
0 0 0 0 0 0 0 0 0 0 0 0 0 0 0 0 0 0 0 0 2 4 5 4 2 1 0 0 0 0 0 0 0 0 0 0 0 0 0 0 0 0 0 0
0 0 0 0 0 0 0 0 0 0 0 0 0 0 0 0 0 0 0 0 0 2 3 3 1 0 0 0 0 0 0 0 0 0 0 0 0 0 0 0 0 0 0 0
0 0 0 0 0 0 0 0 0 0 0 0 0 0 0 0 0 0 0 0 0 0 1 2 1 0 0 1 1 0 0 0 0 0 0 0 0 0 0 0 0 0 0 0
0 0 0 0 0 0 0 0 0 0 0 0 0 0 0 0 0 0 0 0 0 0 0 1 1 0 0 1 2 1 0 0 0 0 0 0 0 0 0 0 0 0 0 0
0 0 0 0 0 0 0 0 0 0 0 0 0 0 0 0 0 0 0 0 0 0 0 0 0 0 0 1 3 3 1 0 1 1 1 1 0 0 0 0 0 0 0 0
0 0 0 0 0 0 0 0 0 0 0 0 0 0 0 0 0 0 0 0 0 0 0 0 0 0 0 1 3 4 2 1 1 2 2 1 0 0 0 0 0 0 0 0
0 0 0 0 0 0 0 0 0 0 0 0 0 0 0 0 0 0 0 0 0 0 0 0 0 0 0 1 2 3 3 1 2 3 3 2 1 0 0 0 0 0 0 0
0 0 0 0 0 0 0 0 0 0 0 0 0 0 0 0 0 0 0 0 0 0 0 0 0 0 0 0 1 2 2 2 3 4 3 2 1 0 0 0 0 0 0 0
0 0 0 0 0 0 0 0 0 0 0 0 0 0 0 0 0 0 0 0 0 0 0 0 0 0 0 0 0 1 1 2 2 2 1 1 0 0 0 0 0 0 0 0
0 0 0 0 0 0 0 0 0 0 0 0 0 0 0 0 0 0 0 0 0 0 0 0 0 0 0 0 0 0 0 1 1 1 0 0 0 0 0 0 0 0 0 0
0 0 0 0 0 0 0 0 0 0 0 0 0 0 0 0 0 0 0 0 0 0 0 0 0 0 0 0 0 0 0 0 0 0 0 0 0 0 0 0 0 0 0 0
0 0 0 0 0 0 0 0 0 0 0 0 0 0 0 0 0 0 0 0 0 0 0 0 0 0 0 0 0 0 0 0 0 0 0 0 0 0 0 0 0 0 0 0
0 0 0 0 0 0 0 0 0 0 0 0 0 0 0 0 0 0 0 0 0 0 0 0 0 0 0 0 0 0 0 0 0 0 0 0 0 0 0 0 0 0 0 0
0 0 0 0 0 0 0 0 0 0 0 0 0 0 0 0 0 0 0 0 0 0 0 0 0 0 0 0 0 0 0 0 0 0 0 0 0 0 0 0 0 0 0 0
0 0 0 0 0 0 0 0 0 0 0 0 0 0 0 0 0 0 0 0 0 0 0 0 0 0 0 0 0 0 0 0 0 0 0 0 0 0 0 0 0 0 0 0
0 0 0 0 0 0 0 0 0 0 0 0 0 0 0 0 0 0 0 0 0 0 0 0 0 0 0 0 0 0 0 0 0 0 0 0 0 0 0 0 0 0 0 0
0 0 0 0 0 0 0 0 0 0 0 0 0 0 0 0 0 0 0 0 0 0 0 0 0 0 0 0 0 0 0 0 0 0 0 0 0 0 0 0 0 0 0 0
0 0 0 0 0 0 0 0 0 0 0 0 0 0 0 0 0 0 0 0 0 0 0 0 0 0 0 0 0 0 0 0 0 0 0 0 0 0 0 0 0 0 0 0

GEFSCGP_con_prob3kmehi_066.txt.gz
EHI
0 0 0 0 0 0 0 0 0 0 0 0 0 0 1 4 6 7 7 6 4 2 1 1 3 7 9 12 16 15 12 10 6 2 0 1 2 1 0 0 0 0 0 0
0 0 0 0 0 0 0 0 0 0 0 0 0 0 1 3 4 5 6 5 2 1 0 1 3 7 9 11 14 13 10 7 4 1 0 1 1 1 0 0 0 0 0 0
0 0 0 0 0 0 0 0 0 0 0 0 0 0 0 1 2 4 5 4 2 1 1 2 3 6 7 8 9 8 7 6 3 1 1 0 0 0 0 0 0 0 0 0
0 0 0 0 0 0 0 0 0 0 0 0 0 0 0 0 1 3 4 5 4 3 3 2 3 3 4 5 6 4 4 6 5 3 2 1 0 0 0 0 0 0 0 0
0 0 0 0 0 0 0 0 0 0 0 0 0 0 0 0 0 1 3 5 5 4 3 3 3 1 1 3 4 3 3 5 6 4 3 2 1 0 0 0 0 0 0 0
0 0 0 0 0 0 0 0 0 0 0 0 0 0 0 0 0 0 1 3 5 4 4 5 5 3 2 2 3 3 3 5 6 5 4 3 2 1 0 0 0 0 0 0
0 0 0 0 0 0 0 0 0 0 0 0 0 0 0 0 0 0 0 2 4 4 5 8 9 7 4 3 4 4 4 5 6 6 6 5 4 2 0 0 0 0 0 0
0 0 0 0 0 0 0 0 0 0 0 0 0 0 0 0 0 0 0 1 2 3 5 8 10 8 6 6 6 6 6 7 9 9 9 9 7 3 0 0 0 0 0 0
0 0 0 0 0 0 0 0 0 0 0 0 0 0 0 0 0 0 1 2 2 2 4 7 9 9 8 7 7 7 8 12 14 13 12 13 13 9 5 2 1 1 2 2
0 0 0 0 0 0 0 0 0 0 0 0 0 0 0 0 0 0 1 2 2 2 2 5 8 10 9 7 6 7 10 15 16 15 14 15 17 16 13 10 7 6 6 5
0 0 0 0 0 0 0 0 0 0 0 0 0 0 0 0 0 0 0 1 1 1 1 2 5 8 9 7 6 7 10 13 16 17 17 18 19 19 19 19 17 15 12 9
0 0 0 0 0 0 0 0 0 0 0 0 0 0 0 0 0 0 0 1 1 1 1 2 4 6 8 7 6 6 9 11 15 20 24 25 23 23 24 24 24 23 18 14
0 0 0 0 0 0 0 0 0 0 0 0 0 0 0 0 0 0 1 2 4 4 3 4 6 7 7 7 6 5 6 9 13 21 28 34 36 36 34 31 30 29 24 18
0 0 0 0 0 0 0 0 0 0 0 0 0 0 0 0 0 0 1 4 9 10 8 7 9 11 11 10 9 7 7 9 12 19 29 41 49 50 47 42 39 37 30 24
0 0 0 0 0 0 0 0 0 0 0 0 0 0 0 0 0 0 1 5 12 15 14 11 12 16 17 16 14 13 13 14 15 18 28 40 48 51 51 48 45 42 35 27
0 0 0 0 0 0 0 0 0 0 0 0 0 1 1 1 0 2 4 8 14 17 17 15 15 17 20 20 18 18 19 20 21 23 29 37 41 42 45 44 42 41 35 29
0 0 0 0 0 0 0 0 0 0 0 0 2 4 4 2 2 5 8 12 14 14 14 14 13 14 15 17 17 19 21 22 24 27 30 34 35 35 35 33 34 34 31 29
0 0 0 0 0 0 0 0 0 0 0 0 4 8 7 4 4 6 8 10 11 9 8 8 8 7 8 10 12 15 17 18 18 20 23 25 26 27 25 24 25 26 25 24
0 0 0 0 0 0 0 0 0 0 0 0 4 9 7 4 4 4 5 6 6 5 3 3 3 3 3 4 5 7 9 10 9 10 11 13 15 17 18 18 19 20 19 18
1 1 0 0 0 0 0 0 0 0 0 0 2 5 4 3 3 3 3 3 2 1 0 0 0 1 1 1 1 2 3 4 3 3 5 6 6 9 11 13 14 15 14 13
0 0 0 0 0 0 0 0 0 0 0 0 1 2 4 4 5 3 2 1 0 0 0 0 0 0 0 0 1 1 1 1 1 0 1 1 2 3 5 7 8 9 9 9
0 0 0 0 0 0 0 0 0 1 0 0 2 4 7 7 5 3 1 0 0 0 0 0 0 0 0 0 0 0 0 0 0 0 0 0 0 0 1 2 2 3 4 4
0 0 0 0 0 0 0 0 0 0 1 2 4 7 7 6 3 1 0 0 0 0 0 0 0 0 0 0 0 0 0 0 0 0 0 0 0 0 0 0 0 1 1 1
0 0 0 0 0 0 0 0 0 0 2 4 6 5 3 2 0 0 0 0 0 0 0 0 0 0 0 0 0 0 0 0 0 0 0 0 0 0 0 0 0 0 0 0
0 0 0 0 0 0 0 0 0 0 2 4 4 2 1 0 0 0 0 0 0 0 0 0 0 0 0 0 0 0 0 0 0 0 0 0 0 0 0 0 0 0 0 0
0 0 0 0 0 0 0 0 0 0 1 2 2 2 1 0 0 0 0 0 0 0 0 0 0 0 0 0 0 0 0 0 0 0 0 0 0 0 0 0 0 0 0 0

GEFSCGP_con_prob3kmehi_072.txt.gz
EHI
0 0 0 0 0 0 0 0 0 0 0 0 1 7 14 17 15 22 32 32 29 30 31 33 36 39 43 44 43 40 35 30 26 21 16 10 6 3 1 0 1 0 0 0
0 0 0 0 0 0 0 0 0 0 0 0 2 8 14 15 13 18 28 30 29 29 30 32 33 34 37 39 39 38 33 26 21 18 13 8 4 2 1 1 1 0 0 0
0 0 0 0 0 0 0 0 0 0 0 0 2 8 13 12 10 14 20 24 25 27 29 30 29 29 30 31 31 31 30 23 19 16 10 5 3 3 4 4 2 1 0 0
0 0 0 0 0 0 0 0 0 0 0 0 1 5 9 9 8 11 15 16 19 23 25 27 27 25 24 24 22 24 27 26 22 16 9 5 4 4 6 8 7 3 0 0
0 0 0 0 0 0 0 0 0 0 0 0 0 2 5 5 5 9 12 13 17 20 21 24 25 23 22 23 22 24 30 32 26 18 11 6 4 4 6 10 11 6 2 1
0 0 0 0 0 0 0 0 0 0 0 0 0 1 2 2 3 7 9 11 16 21 21 21 21 21 23 25 26 30 36 38 31 22 17 12 7 5 7 11 11 6 3 3
0 0 0 0 0 0 0 0 0 1 0 0 0 0 0 1 1 3 6 9 12 18 21 20 19 19 23 28 31 36 42 42 35 28 25 20 12 7 7 8 6 4 2 3
0 0 0 0 0 0 0 0 0 0 0 0 0 0 0 0 0 0 3 6 7 11 18 21 19 20 23 28 33 40 45 45 39 33 31 28 20 10 6 5 4 2 1 2
0 0 0 0 0 0 0 0 0 0 0 0 0 0 0 0 0 0 1 2 4 7 14 20 22 23 25 30 37 45 51 51 43 35 31 31 26 16 8 7 5 2 1 1
0 0 0 0 0 0 0 0 0 0 0 0 0 0 1 1 0 0 0 2 4 7 12 19 23 27 31 35 43 52 57 56 46 35 29 30 30 23 14 11 8 5 5 7
0 0 0 0 0 0 0 0 0 0 0 0 0 0 0 1 1 0 0 2 4 6 8 13 21 29 34 39 47 54 57 55 46 35 31 32 33 30 24 20 18 16 18 22
0 0 0 0 0 0 0 0 0 0 0 0 0 1 1 2 1 1 0 2 4 6 7 10 19 29 33 37 45 51 51 49 43 38 39 41 40 40 38 37 36 35 38 40
0 0 0 0 1 1 1 0 0 0 0 0 0 2 4 4 3 3 4 6 9 13 15 19 27 34 34 34 41 46 47 45 44 45 48 51 50 51 53 55 57 58 58 58
0 0 0 0 1 2 1 0 0 0 0 0 1 3 6 7 6 8 15 20 23 26 30 37 47 51 45 40 44 48 50 51 52 54 58 60 63 65 66 68 70 71 71 70
0 0 0 0 1 1 0 0 0 0 0 0 3 9 14 15 15 19 28 36 38 41 44 51 63 66 58 53 52 53 55 57 58 60 62 64 68 69 69 70 71 73 73 71
1 1 0 0 0 0 0 0 0 0 0 0 6 21 32 33 32 34 40 46 49 52 52 56 64 68 64 60 59 58 58 58 56 55 56 56 57 58 58 60 63 66 68 68
2 3 2 0 0 0 0 0 1 1 1 3 16 37 52 54 51 49 49 50 53 54 51 51 58 62 60 59 58 56 53 50 47 44 43 41 40 41 43 47 51 55 59 61
3 3 3 1 0 0 0 1 2 2 2 11 32 55 67 68 61 54 49 45 47 46 42 41 44 48 48 47 46 42 36 34 32 29 28 27 25 26 30 34 39 44 46 47
5 4 3 1 0 0 0 1 2 3 6 21 47 66 68 60 50 41 34 31 31 31 29 27 26 27 29 28 26 22 18 17 16 15 14 14 14 15 18 23 28 31 31 31
4 4 2 0 0 0 1 1 2 5 12 28 50 59 50 38 31 25 19 17 16 16 15 13 10 10 12 12 12 10 8 7 6 5 5 6 8 8 10 14 17 18 18 18
3 3 2 0 0 1 2 2 3 8 17 31 46 49 39 32 28 20 13 10 7 6 5 3 3 3 4 4 4 4 3 2 1 1 1 3 4 5 6 8 10 11 11 11
2 3 3 2 3 7 8 7 7 12 20 33 47 49 43 35 25 16 9 5 3 2 0 0 1 2 1 1 1 1 1 1 0 0 0 1 1 2 3 5 6 7 8 7
1 3 4 5 8 12 12 10 9 12 23 38 49 50 40 27 17 10 5 2 1 0 0 0 1 1 0 0 0 0 0 0 0 0 0 0 0 0 0 1 2 3 4 4
0 1 3 6 8 10 9 7 8 14 25 36 40 36 25 15 10 5 2 0 0 0 0 0 0 0 0 0 0 0 0 0 0 0 0 0 0 0 0 0 0 1 1 1
0 0 1 3 4 4 4 5 9 17 25 29 26 19 13 8 5 2 0 0 0 0 0 0 0 0 0 0 0 0 0 0 0 0 0 0 0 0 0 0 0 0 0 0
0 0 0 1 1 2 4 7 11 17 23 24 18 12 7 3 1 0 0 0 0 0 0 0 0 0 0 0 0 0 0 0 0 0 0 0 0 0 0 0 0 0 0 0

GEFSCGP_con_prob3kmehi_078.txt.gz
EHI
0 0 0 0 0 0 0 0 0 0 0 1 5 11 14 14 15 15 15 18 22 22 19 16 16 16 16 15 17 21 21 15 10 6 4 2 1 0 0 0 0 0 0 0
0 0 0 0 0 0 0 0 0 0 1 2 3 6 8 9 11 10 10 14 20 22 20 17 16 16 15 14 16 19 19 14 8 5 4 2 1 0 0 0 0 0 0 0
0 0 0 0 0 0 0 0 0 0 1 1 1 2 3 6 7 6 6 10 16 21 21 20 18 17 16 15 15 16 15 12 8 5 3 1 0 0 0 0 0 0 0 0
0 0 0 0 0 0 0 0 0 0 0 0 0 0 2 4 5 6 5 8 12 16 20 21 19 18 17 15 13 11 10 8 6 4 2 1 0 0 0 0 0 0 0 0
0 0 0 0 0 0 0 0 0 0 0 0 0 0 0 1 3 5 6 6 7 11 17 19 18 17 16 14 10 7 5 4 2 1 1 0 0 0 0 0 0 0 0 0
0 0 0 0 0 0 0 0 0 0 0 0 0 0 0 0 1 3 5 4 4 7 15 18 16 15 15 13 9 5 3 2 1 0 0 0 0 0 0 0 0 0 0 0
0 0 0 0 0 0 0 0 0 0 0 0 0 0 0 0 0 1 3 2 2 7 13 17 16 16 16 15 12 9 6 4 2 0 0 0 0 0 0 0 0 0 0 0
0 0 0 0 0 0 0 0 0 0 0 0 0 0 0 0 0 1 2 2 3 7 12 15 15 16 17 16 16 15 11 7 3 1 0 0 0 0 0 0 0 0 0 0
0 0 0 0 0 0 0 0 0 0 0 0 0 0 0 0 0 1 2 2 3 6 10 13 14 16 16 17 19 19 16 11 6 3 1 0 0 0 0 0 0 0 0 0
0 0 0 0 0 0 0 0 0 0 0 0 0 0 0 0 0 1 1 2 2 4 8 10 13 15 16 17 19 20 17 13 8 5 2 0 0 0 0 0 0 0 0 0
0 0 0 0 0 0 0 0 0 0 0 0 0 0 0 0 0 0 0 0 1 4 6 9 12 14 14 16 19 19 17 13 10 7 3 1 1 2 1 0 0 0 0 0
0 0 0 0 0 0 1 0 0 0 0 0 0 0 0 0 0 0 0 0 1 3 4 8 13 14 13 15 19 20 17 14 10 7 4 3 2 2 1 0 0 0 0 0
0 0 0 0 0 0 0 0 0 0 0 0 0 0 0 1 1 1 1 1 2 3 4 8 13 14 14 15 18 19 17 14 10 6 4 3 2 1 1 1 1 1 0 0
0 0 0 0 0 0 0 0 0 0 0 0 0 0 0 0 2 5 7 8 8 6 6 9 13 14 14 14 15 15 14 12 9 6 4 2 1 1 2 2 2 2 1 1
0 0 0 0 0 0 0 0 0 0 0 0 0 0 0 2 6 12 18 19 17 14 12 13 15 16 16 15 14 13 12 11 8 5 3 1 1 1 2 2 2 2 2 2
0 0 0 0 0 0 0 0 0 0 0 0 0 1 4 11 16 21 26 28 26 22 17 15 15 15 15 15 14 12 11 9 5 3 2 1 1 1 1 1 1 1 1 1
0 0 0 0 0 0 0 0 0 1 0 0 2 7 15 22 23 23 27 29 26 21 16 12 10 9 8 8 8 7 7 5 3 1 1 1 0 0 0 0 0 0 0 0
0 0 0 0 0 0 0 0 0 1 1 4 11 21 28 28 22 18 19 20 18 15 10 6 4 2 1 1 2 2 2 2 1 0 0 0 0 0 0 0 0 0 0 0
0 0 0 0 0 0 0 0 0 2 4 12 25 33 33 27 18 11 9 9 9 7 5 3 1 1 0 0 0 0 0 0 0 0 0 0 0 0 0 0 0 0 0 0
0 0 0 0 0 0 0 0 0 2 7 19 31 33 26 18 12 6 3 3 3 2 2 1 0 0 0 0 0 0 0 0 0 0 0 0 0 0 0 0 0 0 0 0
0 0 0 0 0 0 0 0 0 1 7 18 25 23 14 8 5 3 1 1 0 0 0 0 0 0 0 0 0 0 0 0 0 0 0 0 0 0 0 0 0 0 0 0
0 0 0 0 0 0 0 0 0 1 6 14 15 10 5 2 1 0 0 0 0 0 0 0 0 0 0 0 0 0 0 0 0 0 0 0 0 0 0 0 0 0 0 0
0 0 0 0 0 0 0 1 1 2 6 8 7 3 1 0 0 0 0 0 0 0 0 0 0 0 0 0 0 0 0 0 0 0 0 0 0 0 0 0 0 0 0 0
0 0 0 0 0 0 1 2 1 1 3 4 2 1 0 0 0 0 0 0 0 0 0 0 0 0 0 0 0 0 0 0 0 0 0 0 0 0 0 0 0 0 0 0
0 0 0 0 0 0 1 1 1 0 1 1 0 0 0 0 0 0 0 0 0 0 0 0 0 0 0 0 0 0 0 0 0 0 0 0 0 0 0 0 0 0 0 0
0 0 0 0 0 0 0 1 0 0 0 0 0 0 0 0 0 0 0 0 0 0 0 0 0 0 0 0 0 0 0 0 0 0 0 0 0 0 0 0 0 0 0 0

GEFSCGP_con_prob3kmehi_084.txt.gz
EHI
0 0 0 0 0 0 0 0 0 0 0 0 1 3 7 9 10 12 13 12 10 9 9 10 13 14 9 6 6 5 3 2 1 1 0 0 0 0 0 0 0 0 0 0
0 0 0 0 0 0 0 0 0 0 0 0 1 2 5 7 7 8 10 9 7 7 8 10 13 14 11 7 6 4 3 2 1 1 0 0 0 0 0 0 0 0 0 0
0 0 0 0 0 0 0 0 0 0 0 0 0 1 2 3 3 4 5 4 4 4 6 8 11 12 12 9 5 3 3 2 1 0 0 0 0 0 0 0 0 0 0 0
0 0 0 0 0 0 0 0 0 0 0 0 0 0 0 1 1 1 2 2 3 3 4 5 7 9 9 8 6 4 3 1 0 0 0 0 0 0 0 0 0 0 0 0
0 0 0 0 0 0 0 0 0 0 0 0 0 0 0 0 0 0 1 2 3 2 2 2 3 4 6 7 7 6 5 1 0 0 0 0 0 0 0 0 0 0 0 0
0 0 0 0 0 0 0 0 0 0 0 0 0 0 0 0 0 0 1 3 3 3 2 2 2 3 4 5 6 7 5 2 0 0 0 0 0 0 0 0 0 0 0 0
0 0 0 0 0 0 0 0 0 0 0 0 0 0 0 0 0 0 1 2 3 3 3 3 4 4 3 3 4 5 4 2 0 0 0 0 0 0 0 0 0 0 0 0
0 0 0 0 0 0 0 0 0 0 0 0 0 0 0 0 0 0 0 1 1 2 2 3 4 4 3 3 4 5 4 2 1 0 0 0 0 0 0 0 0 0 0 0
0 0 0 0 0 0 0 0 0 0 0 0 0 0 0 0 0 0 0 0 0 0 1 1 1 2 2 4 6 6 4 3 1 0 0 0 0 0 0 0 0 0 0 0
0 0 0 0 0 0 0 0 0 0 0 0 0 0 0 0 0 0 0 0 0 0 0 0 0 0 1 2 5 6 5 4 1 0 0 0 0 0 0 0 0 0 0 0
0 0 0 0 0 0 0 0 0 0 0 0 0 0 0 0 0 0 0 0 0 0 0 0 0 0 0 0 2 4 5 3 1 0 0 0 0 0 0 0 0 0 0 0
0 0 0 0 0 0 0 0 0 0 0 0 0 0 0 0 0 0 0 0 0 0 0 0 0 0 0 0 1 3 5 3 1 0 0 0 0 0 0 0 0 0 0 0
0 0 0 0 0 0 0 0 0 0 0 0 0 0 0 0 0 0 0 0 0 0 0 0 0 0 0 0 2 4 5 4 2 1 0 0 0 0 0 0 0 0 0 0
0 0 0 0 0 0 0 0 0 0 0 0 0 0 0 0 0 0 0 0 0 0 0 0 0 0 0 1 3 4 5 4 3 2 1 0 0 0 0 0 0 0 0 0
0 0 0 0 0 0 0 0 0 0 0 0 0 0 0 1 1 1 1 0 0 0 0 0 0 0 1 2 3 4 4 4 3 2 1 0 0 0 0 0 0 0 0 0
0 0 0 0 0 0 0 0 0 0 0 0 0 0 0 2 3 2 1 1 1 0 0 0 0 0 1 2 2 2 2 2 3 2 1 0 0 0 0 0 0 0 0 0
0 0 0 0 0 0 0 0 0 0 0 0 0 0 1 4 5 2 2 3 3 1 0 0 0 0 0 1 1 1 0 1 2 2 1 0 0 0 0 0 0 0 0 0
0 0 0 0 0 0 0 0 0 0 0 0 0 1 2 4 4 2 2 4 3 1 0 0 0 0 0 1 0 0 0 0 1 1 0 0 0 0 0 0 0 0 0 0
0 0 0 0 0 0 0 0 0 0 0 0 1 2 3 3 3 2 2 1 1 0 0 0 0 0 0 0 0 0 0 0 0 0 0 0 0 0 0 0 0 0 0 0
0 0 0 0 0 0 0 0 0 0 0 0 1 2 3 2 1 1 0 0 0 0 0 0 0 0 0 0 0 0 0 0 0 0 0 0 0 0 0 0 0 0 0 0
0 0 0 0 0 0 0 0 0 0 0 0 0 1 2 1 0 0 0 0 0 0 0 0 0 0 0 0 0 0 0 0 0 0 0 0 0 0 0 0 0 0 0 0
0 0 0 0 0 0 0 0 0 0 0 0 0 0 0 0 0 0 0 0 0 0 0 0 0 0 0 0 0 0 0 0 0 0 0 0 0 0 0 0 0 0 0 0
0 0 0 0 0 0 0 0 0 0 0 0 0 0 0 0 0 0 0 0 0 0 0 0 0 0 0 0 0 0 0 0 0 0 0 0 0 0 0 0 0 0 0 0
0 0 0 0 0 0 0 0 0 0 0 0 0 0 0 0 0 0 0 0 0 0 0 0 0 0 0 0 0 0 0 0 0 0 0 0 0 0 0 0 0 0 0 0
0 0 0 0 0 0 0 0 0 0 0 0 0 0 0 0 0 0 0 0 0 0 0 0 0 0 0 0 0 0 0 0 0 0 0 0 0 0 0 0 0 0 0 0
0 0 0 0 0 0 0 0 0 0 0 0 0 0 0 0 0 0 0 0 0 0 0 0 0 0 0 0 0 0 0 0 0 0 0 0 0 0 0 0 0 0 0 0

GEFSCGP_con_prob3kmehi_090.txt.gz
EHI
0 0 0 0 0 0 0 0 0 0 0 0 0 2 5 7 9 13 17 19 18 18 19 21 22 22 22 24 25 23 22 27 33 30 23 18 12 6 2 1 0 0 0 0
0 0 0 0 0 0 0 0 0 0 0 0 1 2 4 7 8 9 12 14 15 16 19 23 24 23 23 21 20 19 18 20 23 25 23 19 13 6 2 2 1 0 0 0
0 0 0 0 0 0 0 0 0 0 0 0 1 2 5 8 9 7 7 8 9 11 16 22 23 22 20 17 15 13 12 13 15 17 17 14 9 4 2 3 2 1 0 0
0 0 0 0 0 0 0 0 0 0 0 0 0 1 4 7 9 9 8 6 5 6 10 16 18 15 14 13 11 10 10 11 12 12 10 6 4 2 2 3 3 1 0 0
0 0 0 0 0 0 0 0 0 0 0 0 0 0 1 4 7 9 9 7 6 6 6 9 11 10 10 9 7 8 9 10 11 9 5 3 2 1 1 2 3 2 0 0
0 0 0 0 0 0 0 0 0 0 0 0 0 0 0 1 3 5 7 7 8 9 7 7 8 9 9 8 6 6 8 9 8 5 2 1 1 1 1 1 2 1 0 0
0 0 0 0 0 0 0 0 0 0 0 0 0 0 0 0 1 2 4 6 9 11 10 8 7 8 9 8 8 8 7 6 5 2 0 0 0 0 0 1 1 1 0 0
0 0 0 0 0 0 0 0 0 0 0 0 0 0 0 0 0 0 3 6 9 12 12 9 8 7 7 7 8 8 6 5 3 1 0 0 0 0 1 1 1 0 0 0
0 0 0 0 0 0 0 0 0 0 0 0 0 0 1 1 0 1 4 7 10 12 12 11 9 7 5 5 6 5 4 3 2 1 0 1 0 0 1 1 1 0 0 0
0 0 0 0 0 0 0 0 0 0 0 0 0 0 1 1 2 3 6 9 12 13 12 11 10 8 6 5 5 4 3 4 3 2 1 1 1 2 3 2 2 1 1 0
0 0 0 0 0 0 0 0 0 0 0 0 0 0 0 1 4 6 9 13 16 15 13 11 10 9 7 5 4 3 4 5 5 4 3 2 2 4 5 5 3 3 2 1
0 0 0 0 0 0 0 0 0 0 0 0 0 0 0 1 4 6 12 21 25 22 16 11 10 10 9 6 4 3 4 6 8 8 6 5 5 6 6 6 5 4 3 2
0 0 0 0 0 0 0 0 0 0 0 0 0 0 0 1 3 6 14 27 35 30 20 13 10 9 9 7 4 3 4 7 9 10 10 9 8 8 7 7 6 6 6 6
0 0 0 0 0 0 0 0 0 0 0 0 0 0 0 1 5 9 17 30 40 38 28 20 14 11 9 7 6 4 5 8 10 13 15 14 13 12 10 10 11 12 11 10
0 0 0 0 0 0 0 0 0 0 0 0 0 0 0 2 6 12 20 31 42 44 38 31 24 19 15 13 11 8 7 10 14 16 17 17 16 16 15 14 17 19 17 14
0 0 0 0 0 0 0 0 0 0 0 0 0 0 1 3 6 13 22 33 43 46 43 38 32 27 24 23 20 17 15 17 20 20 17 16 17 18 17 15 17 19 17 14
0 0 0 0 0 0 0 0 0 0 0 0 0 0 1 3 7 15 22 31 41 45 42 38 34 31 30 29 28 28 27 27 26 22 16 14 15 15 13 11 10 10 9 8
1 1 1 0 0 0 0 0 0 0 0 0 0 0 3 7 11 16 21 29 37 40 39 38 34 32 31 32 32 33 33 30 26 20 13 10 9 8 7 5 4 4 3 2
1 1 1 0 0 0 0 0 0 0 0 0 1 2 5 9 11 12 17 24 30 33 35 35 33 30 29 30 31 30 28 23 16 10 6 4 3 3 2 1 1 1 1 1
0 0 0 0 0 0 0 0 0 0 0 1 2 3 4 6 7 9 11 16 21 26 27 26 24 24 22 23 23 21 17 11 5 2 1 1 1 1 0 0 0 1 1 0
0 0 0 0 0 0 0 0 0 0 1 2 3 2 1 2 6 8 8 10 13 17 18 17 16 15 15 14 12 10 6 3 1 0 0 0 0 0 0 0 0 0 0 0
0 0 0 0 0 0 0 0 0 0 0 1 1 1 0 1 3 5 6 7 10 11 11 10 10 9 9 7 6 4 2 0 0 0 0 0 0 0 0 0 0 0 0 0
0 0 0 0 0 0 0 0 0 0 0 0 0 0 0 0 1 2 3 5 6 6 6 6 5 4 3 3 3 2 1 0 0 0 0 0 0 0 0 0 0 0 0 0
0 0 0 0 0 0 0 0 0 0 0 0 0 0 0 0 0 0 1 1 2 2 2 2 1 1 1 1 1 1 0 0 0 0 0 0 0 0 0 0 0 0 0 0
0 0 0 0 0 0 0 0 0 0 0 0 0 0 0 0 0 0 0 0 0 0 0 0 0 0 0 0 0 0 0 0 0 0 0 0 0 0 0 0 0 0 0 0
0 0 0 0 0 0 0 0 0 0 0 0 0 0 0 0 0 0 0 0 0 0 0 0 0 0 0 0 0 0 0 0 0 0 0 0 0 0 0 0 0 0 0 0

GEFSCGP_con_prob3kmehi_096.txt.gz
EHI
0 0 0 0 0 0 0 0 0 0 0 0 1 4 12 17 17 23 39 53 59 60 63 66 62 52 47 48 50 50 51 53 52 52 54 52 46 39 34 31 24 16 11 10
0 0 0 0 0 0 0 0 0 0 0 0 1 5 11 17 16 19 33 49 57 60 63 65 58 47 43 46 49 48 48 48 48 50 53 51 47 39 31 27 21 14 11 11
0 0 0 0 0 0 0 0 0 0 0 0 1 4 9 14 14 16 27 43 52 58 62 62 54 43 41 44 47 46 43 41 42 45 44 42 39 32 26 22 16 11 9 9
0 0 0 0 0 0 0 0 0 0 0 0 0 2 6 9 11 17 27 38 46 51 57 57 50 43 40 41 43 43 41 38 39 39 34 31 27 23 19 17 13 9 5 4
0 0 0 0 0 0 0 0 0 0 0 0 0 1 2 4 8 17 30 37 39 42 47 49 46 40 35 33 35 39 40 39 38 35 31 27 23 21 18 15 12 7 3 1
0 0 0 0 0 0 0 0 0 0 0 0 0 0 0 1 5 16 31 38 37 37 40 43 41 35 30 27 28 33 40 41 36 33 29 27 27 25 21 16 10 5 2 1
0 0 0 0 0 0 0 0 0 0 0 0 0 0 0 1 3 12 26 36 38 38 39 40 38 34 29 27 26 31 38 38 33 28 25 25 26 24 19 13 7 3 1 1
0 0 0 0 0 0 0 0 0 0 0 0 0 0 1 1 3 9 20 29 32 36 41 40 36 35 32 28 29 31 34 34 30 24 20 20 20 18 16 12 7 4 3 3
0 0 0 0 0 0 0 0 0 0 0 0 0 0 1 1 3 7 15 23 28 33 39 39 36 34 32 31 33 33 33 32 28 23 19 16 14 14 15 14 11 9 7 6
0 0 0 0 0 0 0 0 0 0 0 0 0 0 1 2 3 5 13 23 31 34 36 37 38 35 33 34 35 34 33 30 25 21 18 14 14 15 15 14 13 13 12 11
0 0 0 0 0 0 0 0 0 0 0 0 0 0 1 2 2 3 12 25 35 39 39 41 41 38 34 33 34 31 27 25 22 18 16 15 17 18 16 14 14 16 17 17
0 0 0 0 0 0 0 0 0 0 0 0 0 0 0 1 2 4 13 27 38 43 46 49 48 42 36 33 31 26 20 18 18 17 17 19 23 23 20 18 19 21 22 22
0 0 0 0 1 0 0 0 0 0 0 0 0 0 0 2 4 8 16 30 41 49 56 62 60 52 44 38 32 26 20 16 16 18 19 22 26 25 23 22 22 23 24 23
0 0 0 0 0 0 0 0 0 0 0 0 0 1 2 3 8 13 20 29 40 53 66 73 74 67 58 49 40 32 24 20 20 22 23 24 26 27 26 26 25 24 21 18
0 0 0 0 0 0 0 0 0 0 0 0 0 1 3 6 12 18 24 31 40 55 69 78 79 77 71 61 49 40 33 31 32 32 30 30 31 32 31 30 29 26 20 16
0 0 0 0 0 0 0 0 0 0 0 0 0 0 3 9 16 23 31 37 45 57 69 77 79 77 76 68 57 48 45 46 47 43 38 37 36 34 32 31 28 24 20 17
0 1 1 0 0 0 0 0 0 0 0 1 1 2 7 14 22 30 38 44 51 60 70 78 80 78 76 72 66 61 59 57 55 49 45 41 36 32 31 28 24 20 18 15
1 1 2 1 0 0 0 0 0 0 1 2 3 5 11 18 26 33 42 50 57 64 72 77 79 77 75 72 72 69 65 61 55 51 48 42 35 30 27 23 19 16 13 11
0 1 1 1 0 0 0 0 0 1 3 6 9 11 14 17 22 31 44 52 58 63 69 71 71 70 69 67 67 65 61 57 53 48 44 38 30 23 18 14 12 9 7 5
0 0 0 0 0 0 0 0 0 1 4 10 14 15 15 15 17 26 38 45 49 53 58 60 59 58 58 58 58 56 51 47 44 39 32 24 19 13 8 5 4 3 2 2
0 0 0 0 0 0 0 0 0 1 3 6 9 11 11 12 15 20 27 31 35 39 43 47 47 45 45 46 46 43 38 31 27 23 16 10 6 4 2 1 0 0 0 1
0 0 0 0 0 1 1 1 1 2 1 1 2 4 5 8 11 13 14 18 22 25 28 33 35 34 34 34 31 26 20 15 11 9 6 2 1 0 0 0 0 0 0 0
0 0 0 0 1 3 3 3 3 2 1 0 0 2 4 5 6 7 7 10 14 16 17 21 24 25 25 23 20 14 9 6 3 2 1 0 0 0 0 0 0 0 0 0
0 0 0 0 1 3 3 3 3 2 0 0 1 2 4 3 4 5 6 7 10 11 11 12 15 16 15 14 11 8 4 2 1 0 0 0 0 0 0 0 0 0 0 0
0 0 0 0 1 2 2 2 2 1 0 0 1 2 2 1 1 3 4 5 7 7 7 7 7 8 7 6 5 3 2 0 0 0 0 0 0 0 0 0 0 0 0 0
0 0 0 0 1 1 2 1 0 0 0 0 0 1 0 0 0 1 3 4 5 5 5 4 4 4 4 3 2 1 0 0 0 0 0 0 0 0 0 0 0 0 0 0

GEFSCGP_con_prob3kmehi_102.txt.gz
EHI
0 0 0 0 0 0 0 0 0 0 0 1 2 3 6 15 31 44 49 54 59 61 60 55 51 45 40 38 37 35 29 20 16 17 17 14 9 5 4 3 3 3 2 1
0 0 0 0 0 0 0 0 0 0 0 1 3 4 5 13 27 39 44 51 59 63 60 53 47 42 39 36 34 32 28 21 17 16 15 13 8 4 3 3 3 3 2 1
0 0 0 0 0 0 0 0 0 0 0 1 2 2 3 9 21 30 34 43 54 60 57 50 44 40 38 34 31 28 25 20 16 12 11 10 8 4 3 3 3 2 1 0
0 0 0 0 0 0 0 0 0 0 0 0 0 0 1 6 15 20 24 34 45 52 51 46 42 40 37 33 28 24 21 17 12 9 8 7 6 4 3 3 1 1 0 0
0 0 0 0 0 0 0 0 0 0 0 0 0 0 0 3 8 12 18 27 36 41 44 43 41 40 37 31 25 22 19 15 9 6 6 5 4 3 3 2 1 0 0 0
0 0 0 0 0 0 0 0 0 0 0 0 0 0 0 0 3 8 15 22 27 32 36 38 38 36 33 28 24 21 19 14 9 5 4 4 3 3 3 1 0 0 0 0
0 0 0 0 0 0 0 0 0 0 0 0 0 0 0 0 2 7 13 17 22 26 29 31 31 29 27 25 22 21 18 15 10 6 3 3 2 2 2 1 0 0 0 0
0 0 0 0 0 0 0 0 0 0 0 0 0 0 0 2 5 9 12 13 18 23 25 25 23 21 20 20 20 19 17 13 10 7 4 3 1 1 1 0 0 0 0 0
0 0 0 0 0 0 0 0 0 0 0 0 0 0 1 4 8 10 10 11 15 20 22 21 18 15 15 16 17 16 14 11 9 7 6 4 2 0 0 0 0 0 0 0
0 0 0 0 0 0 0 0 0 0 0 0 0 0 1 4 8 10 9 10 14 18 20 19 15 12 12 14 14 14 12 9 7 7 7 6 3 1 0 0 0 0 0 0
0 0 0 0 0 0 0 0 0 0 0 0 0 0 0 2 6 9 9 10 14 19 21 18 14 12 12 13 12 12 11 9 7 7 7 6 4 2 1 0 0 0 0 0
0 0 0 0 0 0 0 0 0 0 0 0 0 0 1 2 4 7 10 11 13 17 18 17 14 14 14 13 12 11 11 10 8 7 7 6 4 3 2 2 1 0 0 0
0 0 0 0 0 0 0 0 0 0 0 0 0 0 1 1 2 4 8 11 12 13 15 15 14 15 15 14 13 12 11 10 9 8 7 6 4 3 4 4 2 1 0 0
0 0 0 0 0 0 0 0 0 0 0 0 0 0 0 1 1 2 5 8 10 11 13 15 15 15 14 12 12 13 12 10 9 9 8 7 6 4 4 5 3 1 0 0
0 0 0 0 0 0 0 0 0 0 0 0 1 1 0 1 2 2 4 7 10 11 12 14 16 15 12 10 10 12 12 11 10 9 9 9 7 6 5 5 4 2 1 1
0 0 0 0 0 0 0 0 0 0 0 0 2 2 2 3 5 5 5 8 11 12 15 18 18 16 13 11 10 11 12 12 10 10 9 9 8 7 7 7 5 3 3 2
0 0 0 0 0 0 0 0 0 1 2 2 2 3 5 7 7 6 5 8 11 16 21 24 20 16 14 12 11 11 12 12 10 9 9 8 8 8 7 7 4 3 3 3
0 0 0 0 0 0 0 0 0 2 3 3 2 3 6 7 7 6 5 6 10 14 19 21 19 16 13 11 10 10 10 10 9 8 7 8 8 7 7 5 3 2 3 3
0 0 0 0 0 0 0 0 0 1 2 2 1 3 4 4 5 6 5 5 7 9 12 14 16 15 13 11 10 9 8 8 8 7 7 7 7 7 6 3 1 1 2 3
0 0 0 0 0 0 0 0 0 0 0 0 0 1 2 1 2 3 3 3 4 5 7 10 12 12 10 9 8 8 8 8 9 9 8 6 6 7 5 2 0 0 1 2
0 0 0 0 0 0 0 0 0 0 0 0 0 1 1 1 0 0 0 1 1 3 5 7 9 8 6 6 6 8 9 8 9 9 8 7 6 5 3 1 0 0 0 1
0 0 0 0 0 0 0 0 0 0 0 0 0 0 0 0 0 0 0 0 0 1 3 4 5 4 4 6 8 8 8 7 7 7 7 6 5 3 1 0 0 0 0 0
0 0 0 0 0 0 0 0 0 0 0 0 0 0 0 0 0 0 0 0 0 1 2 3 4 4 4 6 8 8 6 5 5 6 5 4 3 1 0 0 0 0 0 0
0 0 0 0 0 0 0 0 0 0 0 0 0 0 0 0 0 0 0 0 0 0 1 3 4 4 3 4 5 5 4 4 4 4 3 2 1 0 0 0 0 0 0 0
0 0 0 0 0 0 0 0 0 0 0 0 0 0 0 0 0 0 0 0 0 0 1 2 3 3 2 2 2 1 1 2 2 2 1 1 0 0 0 0 0 0 0 0
0 0 0 0 0 0 0 0 0 0 0 0 0 0 0 0 0 0 0 0 0 0 1 2 2 1 1 1 0 0 0 1 1 1 0 0 0 0 0 0 0 0 0 0

GEFSCGP_con_prob3kmehi_108.txt.gz
EHI
0 0 0 0 0 0 0 0 0 0 0 0 0 0 2 7 15 21 26 34 37 32 24 22 23 21 17 15 15 15 14 12 11 7 4 2 1 0 0 0 0 0 0 1
0 0 0 0 0 0 0 0 0 0 0 0 0 0 1 5 10 16 23 27 30 28 22 20 22 21 17 14 13 13 12 10 8 6 3 2 1 1 0 0 0 1 1 1
0 0 0 0 0 0 0 0 0 0 0 0 0 0 1 2 5 10 15 18 22 22 18 18 19 19 17 14 12 11 11 9 7 4 3 3 3 3 1 0 0 1 1 1
0 0 0 0 0 0 0 0 0 0 0 0 0 0 0 1 2 5 8 12 16 16 15 15 16 16 16 16 14 13 12 10 8 5 4 5 5 4 3 1 0 1 1 0
0 0 0 0 0 0 0 0 0 0 0 0 0 0 0 0 1 2 4 8 12 12 11 11 12 13 15 17 17 16 13 12 11 9 6 4 4 4 4 2 0 0 0 0
0 0 0 0 0 0 0 0 0 0 0 0 0 0 0 0 0 1 2 5 9 9 7 7 9 11 13 16 18 17 15 14 14 11 6 3 3 3 3 2 1 0 0 0
0 0 0 0 0 0 0 0 0 0 0 0 0 0 0 0 0 0 1 3 5 7 7 6 7 8 9 12 15 15 15 14 13 9 5 2 2 2 2 2 1 0 0 0
0 0 0 0 0 0 0 0 0 0 0 0 0 0 0 0 0 0 1 2 3 4 7 8 8 8 8 9 11 13 13 13 9 6 3 1 1 1 1 1 1 0 0 0
0 0 0 0 0 0 0 0 0 0 0 0 0 0 0 0 0 0 1 2 2 3 5 7 8 8 8 8 8 9 10 10 7 5 3 1 0 0 0 0 0 0 0 0
0 0 0 0 0 0 0 0 0 0 0 0 0 0 0 0 0 0 1 1 1 2 3 5 6 6 6 6 6 6 7 8 7 4 2 1 0 0 0 0 0 0 0 0
0 0 0 0 0 0 0 0 0 0 0 0 0 0 0 0 0 0 0 0 0 1 3 5 5 5 5 4 4 4 5 6 5 3 1 1 0 0 0 0 0 0 0 0
0 0 0 0 0 0 0 0 0 0 0 0 0 0 0 0 0 0 0 0 0 1 3 4 4 4 3 2 2 3 4 4 3 1 0 0 0 0 0 0 0 0 0 0
0 0 0 0 0 0 0 0 0 0 0 0 0 0 0 0 0 0 0 0 0 0 1 2 3 4 3 1 1 2 3 3 3 1 0 0 0 0 0 0 0 0 0 0
0 0 0 0 0 0 0 0 0 0 0 0 0 0 0 0 0 0 0 0 0 0 0 0 2 3 3 2 2 3 4 4 4 3 2 1 1 0 0 0 0 0 0 0
0 0 0 0 0 0 0 0 0 0 0 0 0 0 0 0 0 0 0 0 0 0 0 0 1 1 1 2 3 5 5 5 6 6 4 3 3 2 1 0 0 0 0 0
0 0 0 0 0 0 0 0 0 0 0 0 0 0 0 1 1 0 0 0 0 0 0 0 1 1 1 1 3 5 6 7 7 7 5 5 4 3 2 1 0 0 0 0
0 0 0 0 0 0 0 0 0 0 0 0 0 0 1 1 1 0 0 0 0 0 0 0 1 1 1 1 2 3 5 7 7 6 5 5 4 4 4 2 1 0 0 0
0 0 0 0 0 0 0 0 0 0 1 0 0 1 2 1 1 0 0 0 0 0 0 0 0 0 0 0 0 2 4 5 5 4 3 4 4 4 4 3 1 0 0 0
0 0 0 0 0 0 0 0 0 0 0 0 1 3 3 1 0 0 0 0 0 0 0 0 0 0 0 0 0 0 1 3 3 2 1 2 3 3 4 3 2 0 0 0
0 0 0 0 0 0 0 0 0 0 0 0 1 3 3 1 0 0 0 0 0 0 0 0 0 0 0 0 0 0 0 1 2 2 1 2 3 4 4 3 1 0 0 0
0 0 0 0 0 0 0 0 0 0 0 0 0 1 1 0 0 0 0 0 0 0 0 0 0 0 0 0 0 0 0 0 1 2 2 3 4 4 3 2 1 0 0 0
0 0 0 0 0 0 0 0 0 0 0 0 0 0 0 0 0 0 0 0 0 0 0 0 0 0 0 0 0 0 0 0 0 1 2 3 4 4 2 1 1 0 0 0
0 0 0 0 0 0 0 0 0 0 0 0 0 0 0 0 0 0 0 0 0 0 0 0 0 0 0 0 0 0 0 0 0 0 1 3 3 2 1 1 2 1 0 0
0 0 0 0 0 0 0 0 0 0 0 0 0 0 0 0 0 0 0 0 0 0 0 0 0 0 0 0 0 0 0 0 0 0 1 1 1 1 0 1 1 1 0 0
0 0 0 0 0 0 0 0 0 0 0 0 0 0 0 0 0 0 0 0 0 0 0 0 0 0 0 0 0 0 0 0 0 0 0 0 0 0 0 0 0 0 0 0
0 0 0 0 0 0 0 0 0 0 0 0 0 0 0 0 0 0 0 0 0 0 0 0 0 0 0 0 0 0 0 0 0 0 0 0 0 0 0 0 0 0 0 0

GEFSCGP_con_prob3kmehi_114.txt.gz
EHI
0 0 0 0 0 0 0 0 0 0 0 0 0 0 1 2 2 2 9 17 22 26 35 44 46 43 40 39 38 35 32 29 26 22 16 11 8 6 5 3 2 1 1 2
0 0 0 0 0 0 0 0 0 0 0 0 0 0 1 2 2 3 7 15 21 28 39 47 46 40 35 35 36 34 31 28 24 19 15 12 9 7 5 4 3 1 1 2
0 0 0 0 0 0 0 0 0 0 0 0 0 0 1 1 1 1 4 10 17 26 39 48 46 37 31 31 33 33 30 26 21 18 14 11 9 8 6 6 5 2 1 1
0 0 0 0 0 0 0 0 0 0 0 0 0 0 0 1 1 1 3 8 15 23 33 41 43 39 34 32 32 32 29 24 21 18 14 10 8 7 7 6 5 2 1 1
0 0 0 0 0 0 0 0 0 0 0 0 0 0 0 1 1 1 4 9 15 22 26 29 33 34 33 32 31 29 26 22 20 18 14 10 8 8 7 6 5 3 2 1
0 0 0 0 0 0 0 0 0 0 0 0 0 0 0 0 0 1 4 8 14 18 20 21 23 25 27 29 29 26 23 20 19 18 15 11 10 9 7 5 4 5 4 3
0 0 0 0 0 0 0 0 0 0 0 0 0 0 0 0 0 1 3 7 11 15 17 19 20 20 23 26 26 24 23 21 20 19 17 14 10 8 6 3 3 5 6 5
0 0 0 0 0 0 0 0 0 0 0 0 0 0 0 0 0 0 2 6 12 16 18 20 20 21 24 25 24 22 22 21 21 20 19 16 12 7 4 2 3 5 6 6
0 0 0 0 0 0 0 0 0 0 0 0 0 0 0 0 0 0 2 8 14 19 21 23 22 22 23 23 20 19 19 21 22 21 21 19 14 9 4 2 2 4 6 6
0 0 0 0 0 0 0 0 0 0 0 0 0 0 0 0 0 0 3 9 17 21 22 24 25 23 21 19 16 16 17 18 18 19 19 18 16 12 7 2 1 2 3 3
0 0 0 0 0 0 0 0 0 0 0 0 0 0 0 0 0 0 3 12 21 24 22 24 24 21 17 14 13 14 14 13 13 15 15 15 15 12 8 3 1 0 1 1
0 0 0 0 0 0 0 0 0 0 0 0 0 0 1 1 0 0 4 14 25 28 25 24 21 17 13 11 11 11 10 9 10 12 14 14 13 10 7 5 3 1 1 1
0 0 0 0 0 0 0 0 0 0 0 0 0 1 2 2 1 1 7 17 28 32 29 25 21 16 13 12 10 8 6 5 7 10 12 13 11 9 7 7 6 5 4 2
0 0 0 0 0 0 0 0 0 0 0 0 0 0 1 1 1 4 10 18 27 32 30 26 23 19 15 13 9 5 3 3 3 5 8 10 9 8 7 8 9 10 7 4
0 0 0 0 0 0 0 0 0 0 0 0 0 0 2 4 8 12 16 21 28 31 29 27 24 20 17 14 10 6 4 4 3 4 7 9 10 8 7 8 10 11 9 6
0 0 0 0 0 0 0 0 0 0 0 0 0 1 6 12 17 21 23 27 31 31 29 28 25 21 17 15 13 10 8 7 8 8 9 11 12 11 10 11 11 11 11 9
0 0 0 0 0 0 0 0 0 0 0 0 0 3 11 20 27 29 28 29 31 30 29 30 27 21 17 15 13 13 12 10 10 12 12 12 13 14 14 14 13 14 14 14
0 0 0 0 0 0 0 0 0 0 0 0 1 6 15 25 30 31 28 26 26 26 26 28 26 21 15 12 11 11 11 10 9 12 14 14 15 16 16 16 15 16 17 17
0 0 0 0 0 0 0 0 0 0 0 1 2 6 14 20 24 24 22 20 21 22 23 25 24 20 14 10 9 9 9 9 9 11 15 16 16 16 16 15 15 16 15 15
0 0 0 0 0 0 0 0 0 0 1 2 4 8 12 16 18 18 15 14 17 19 22 23 22 18 13 10 10 9 9 9 9 10 12 14 15 14 13 13 13 12 11 10
0 0 0 0 0 0 0 0 0 0 1 2 5 8 12 17 20 17 14 14 17 19 21 21 19 16 11 9 11 11 11 9 7 7 8 10 11 11 10 10 9 9 8 8
0 0 0 0 0 0 0 0 0 0 0 1 3 7 11 14 15 13 12 14 16 16 17 17 16 14 11 10 11 11 11 8 5 4 5 7 8 7 7 7 8 8 8 8
0 0 0 0 0 0 0 0 0 0 0 1 3 5 7 7 7 6 7 9 10 10 10 10 10 10 9 8 8 9 9 8 5 3 3 5 6 5 5 6 8 8 7 7
0 0 0 0 0 0 0 0 0 0 1 2 4 4 4 5 5 5 5 5 5 5 4 3 3 3 3 4 4 6 7 7 5 2 3 5 5 5 6 6 6 5 5 4
0 0 0 0 1 1 0 0 0 1 2 4 3 3 3 5 5 4 4 3 2 1 1 0 1 1 0 1 2 4 7 7 5 2 2 3 4 4 4 3 2 2 1 1
0 0 0 1 2 3 1 0 0 1 3 4 3 3 3 4 4 4 4 3 1 0 0 1 2 2 1 0 1 4 7 7 5 2 1 1 1 2 2 1 0 0 0 0

GEFSCGP_con_prob3kmehi_120.txt.gz
EHI
0 0 0 0 0 0 0 0 0 0 0 0 0 1 4 5 8 19 37 54 67 75 77 74 72 72 71 70 69 67 63 56 50 43 37 33 33 37 40 41 42 37 29 25
0 0 0 0 0 0 0 0 0 0 0 0 0 1 5 7 8 17 33 47 59 70 77 76 73 73 72 71 69 65 60 54 48 41 35 31 31 34 36 39 41 36 28 24
0 0 0 0 0 0 0 0 0 0 0 0 0 2 6 9 9 13 24 38 50 65 75 75 73 73 73 71 67 61 57 51 44 37 31 27 27 28 31 38 41 36 29 25
0 0 0 0 0 0 0 0 0 0 0 0 0 2 6 9 10 13 20 31 45 59 69 72 71 70 69 67 63 58 54 49 41 35 30 26 24 23 26 34 39 35 30 27
0 0 0 0 0 0 0 0 0 0 0 0 0 1 3 7 9 13 20 31 44 56 65 68 66 65 62 60 57 55 52 47 41 34 29 26 25 24 24 29 33 30 25 23
0 0 0 0 0 0 0 0 0 0 0 0 0 0 2 5 7 11 19 32 46 57 65 66 62 58 55 52 52 51 49 44 37 31 27 27 30 31 28 26 25 21 17 16
0 0 0 0 0 0 0 0 0 0 0 0 0 0 2 3 4 8 17 31 43 55 64 64 59 53 50 48 48 49 45 40 33 28 28 30 34 35 29 22 17 15 13 12
0 0 0 0 0 0 0 0 0 0 0 0 0 1 2 3 4 8 17 28 39 50 60 63 58 51 48 47 48 47 43 38 33 31 33 35 36 33 27 20 16 14 12 11
0 0 0 0 0 0 0 0 0 0 0 0 0 1 4 5 5 7 15 25 35 46 55 59 57 50 44 46 48 45 41 38 35 35 37 37 35 31 28 25 20 17 14 11
0 0 0 0 0 0 0 0 0 0 0 0 0 1 5 7 6 6 11 21 32 44 52 55 54 47 41 43 45 44 40 37 35 35 35 33 32 32 32 31 27 23 19 17
0 0 0 0 0 0 0 0 0 0 0 0 0 0 3 5 5 5 9 19 31 42 52 57 57 48 40 38 41 40 37 34 32 32 31 29 30 32 32 32 31 29 26 23
0 0 0 0 0 0 0 0 0 0 0 0 0 0 1 2 4 6 12 23 35 45 55 63 62 51 41 38 37 35 31 28 28 29 30 30 31 32 31 30 31 31 29 26
0 0 0 0 0 0 0 0 0 0 0 0 0 0 1 2 4 10 19 31 43 52 61 66 63 55 47 43 40 34 29 26 27 29 32 33 33 33 33 31 30 29 27 25
0 0 0 0 0 0 0 0 0 0 0 0 0 1 3 6 9 14 25 38 48 57 64 67 64 60 56 52 46 39 32 28 28 31 33 36 37 36 36 34 31 28 25 23
0 0 0 0 0 0 0 0 0 0 0 0 0 1 6 12 16 20 30 42 51 58 66 70 68 65 61 55 49 43 36 32 32 32 31 32 35 35 34 32 28 25 23 21
0 0 0 0 0 0 0 0 0 0 0 0 0 2 8 16 22 26 33 43 53 59 67 70 69 67 62 56 52 47 40 35 34 30 25 24 28 28 26 24 22 20 19 18
0 0 0 0 0 0 0 0 0 0 1 1 3 6 12 23 32 34 37 46 55 62 68 69 66 64 61 56 53 50 43 37 33 29 22 18 20 20 19 18 18 18 18 16
0 0 0 0 0 0 0 0 0 1 2 5 8 14 23 36 44 43 43 50 59 66 69 66 60 59 59 54 50 47 42 36 32 29 25 19 17 16 17 18 19 20 19 17
1 1 0 0 0 0 0 0 1 1 4 9 15 22 31 40 45 46 50 56 63 68 68 63 55 53 55 51 46 43 38 33 30 31 29 24 19 16 16 18 20 20 20 19
0 0 0 0 0 0 0 0 1 2 7 15 23 30 37 41 44 51 57 60 64 65 63 58 51 47 48 47 45 41 35 30 29 31 31 26 21 18 16 16 17 19 19 18
0 0 0 0 0 0 1 2 6 12 19 28 37 43 48 51 53 57 58 56 55 53 50 47 44 42 42 43 41 39 34 30 30 31 28 23 19 16 13 12 13 16 17 16
0 0 0 0 1 5 10 12 16 25 32 36 43 49 51 51 50 48 46 43 40 37 36 36 37 37 38 37 35 33 32 29 27 26 24 20 16 13 11 10 11 13 13 12
0 0 0 1 3 11 19 21 23 28 31 33 36 37 35 33 33 33 32 30 29 28 28 30 32 33 33 32 29 27 27 25 20 18 18 17 14 11 8 8 9 9 9 8
0 0 1 2 5 10 15 16 18 20 22 24 25 24 20 21 24 26 26 25 24 23 24 25 27 28 28 26 24 22 22 20 16 14 14 14 13 10 7 5 5 5 4 4
1 0 1 2 4 4 5 6 9 11 13 15 18 18 17 19 22 22 22 21 21 20 18 19 21 21 21 21 20 19 19 18 16 14 12 12 11 9 6 3 2 1 1 1
1 1 0 1 2 2 2 4 6 6 7 9 11 14 16 18 18 18 18 19 19 16 14 15 16 16 16 17 16 17 18 17 15 13 11 11 10 9 6 2 0 0 0 0

GEFSCGP_con_prob3kmehi_126.txt.gz
EHI
0 0 0 0 0 0 0 0 0 0 0 0 1 5 11 22 40 56 65 69 68 64 61 62 64 64 62 59 55 50 44 37 30 24 20 16 11 10 11 8 6 5 2 1
0 0 0 0 0 0 0 0 0 0 0 0 1 5 11 20 35 50 60 66 68 67 64 64 65 64 62 60 55 47 39 33 28 24 19 14 9 9 10 8 6 6 4 4
0 0 0 0 0 0 0 0 0 0 0 0 1 4 10 18 27 40 50 59 66 68 68 66 65 63 61 57 50 42 35 29 26 22 17 12 7 6 8 8 7 6 5 4
0 0 0 0 0 0 0 0 0 0 0 0 1 2 7 16 26 35 45 54 62 67 66 62 59 58 56 50 42 36 31 27 24 21 18 12 6 4 6 7 7 5 3 2
0 0 0 0 0 0 0 0 0 0 0 0 0 0 4 14 26 35 44 52 58 61 58 51 47 47 47 44 38 33 28 24 22 20 18 12 6 4 5 5 4 3 1 0
0 0 0 0 0 0 0 0 0 0 0 0 0 0 2 8 19 31 41 48 53 54 50 42 35 36 39 38 34 29 25 21 18 17 16 12 7 4 4 3 3 3 2 1
0 0 0 0 0 0 0 0 0 0 0 0 0 0 0 3 12 26 40 47 50 50 45 36 31 30 32 32 29 25 21 19 16 14 14 12 9 5 3 3 3 3 3 3
0 0 0 0 0 0 0 0 0 0 0 0 0 0 0 4 13 26 40 49 50 47 38 30 28 28 27 26 24 19 17 17 16 14 13 12 10 7 4 3 3 3 3 3
0 0 0 0 0 0 0 0 0 0 0 0 0 0 1 8 19 31 42 48 47 41 32 26 25 24 21 20 19 17 15 16 17 16 14 12 10 9 5 3 3 3 3 2
0 0 0 0 0 0 0 0 0 0 0 0 0 0 1 9 21 33 41 46 45 41 34 28 24 21 18 16 15 14 14 14 15 15 14 12 11 9 6 3 2 2 1 1
0 0 0 0 0 0 0 0 0 0 0 0 0 0 1 6 15 26 37 42 44 44 39 31 24 19 18 15 12 10 10 11 12 13 14 13 11 8 5 3 2 1 0 0
0 0 0 0 0 0 0 0 0 0 0 0 0 0 1 5 12 23 34 41 44 45 39 30 24 19 15 12 10 8 8 9 10 12 13 13 11 8 6 6 5 3 2 1
0 0 0 0 0 0 0 0 0 0 0 0 0 0 2 5 12 23 34 43 48 47 38 28 23 18 11 8 8 8 10 10 11 12 13 13 11 10 9 9 8 6 4 3
0 0 0 0 0 0 0 0 0 0 0 0 0 1 2 6 11 22 34 45 52 50 39 28 22 16 10 7 9 11 11 11 11 11 11 11 11 11 10 9 8 7 5 5
0 0 0 0 0 0 0 0 0 0 0 0 0 1 3 7 13 23 36 47 53 49 40 33 26 19 14 11 12 13 12 11 11 11 11 9 9 10 9 8 6 5 5 5
0 0 0 0 0 0 0 0 0 0 0 0 1 2 6 12 18 26 38 50 54 48 41 39 35 28 22 19 16 15 14 12 13 14 13 10 10 9 8 6 5 4 4 4
0 0 0 0 0 0 0 0 1 2 2 1 2 6 13 19 25 29 37 48 54 49 44 43 40 34 29 26 20 17 15 15 15 16 15 14 13 11 8 7 6 4 4 4
0 0 0 0 0 0 0 0 2 4 5 4 6 14 22 29 34 35 37 44 51 49 46 43 38 35 33 29 22 18 16 15 15 16 15 15 13 10 8 8 7 6 4 4
0 0 0 0 0 0 0 0 2 7 9 10 14 22 29 35 40 40 39 43 48 47 43 38 33 30 29 25 22 19 16 15 14 14 12 11 10 8 6 6 6 6 5 4
0 0 0 0 0 0 0 1 3 7 11 13 18 24 28 31 35 36 36 38 40 39 35 31 27 23 19 17 17 16 14 13 12 11 9 7 6 5 4 3 3 4 4 4
0 0 0 0 0 0 1 2 2 5 9 14 18 21 24 24 26 29 30 29 27 26 25 25 23 19 14 10 9 8 7 6 6 6 5 4 3 2 1 1 1 2 2 2
0 0 0 0 0 0 1 2 2 3 8 13 16 18 20 21 21 24 24 21 18 17 17 19 19 17 12 8 5 3 2 1 2 2 1 1 1 1 0 0 0 1 1 1
0 0 0 0 0 0 2 3 3 4 10 14 15 15 17 18 19 19 18 16 15 14 14 14 15 13 9 7 4 3 2 1 1 1 0 0 0 0 0 0 0 0 0 0
0 0 0 0 0 1 3 4 5 7 12 16 16 14 14 15 14 13 12 11 11 11 11 11 11 9 8 6 4 3 3 3 2 2 1 1 0 0 0 0 0 0 0 0
0 0 0 0 0 0 2 3 5 8 12 16 16 14 12 11 9 7 6 6 7 7 7 8 8 7 6 5 4 3 3 3 3 4 3 2 1 0 0 0 0 0 0 0
0 0 0 0 0 0 1 2 5 7 10 13 14 13 10 7 4 3 3 4 5 5 5 5 6 5 5 5 4 3 3 3 4 4 2 2 1 1 0 0 0 0 0 0

GEFSCGP_con_prob3kmehi_132.txt.gz
EHI
0 0 0 0 0 0 0 0 0 0 0 1 2 2 4 10 23 32 35 37 39 39 39 40 44 47 47 46 44 37 29 21 13 7 4 2 0 0 0 0 0 0 0 1
0 0 0 0 0 0 0 0 0 0 0 0 1 1 3 7 16 24 28 32 38 39 40 42 46 48 47 45 42 36 29 22 15 9 5 2 0 0 0 0 0 0 1 2
0 0 0 0 0 0 0 0 0 0 0 0 0 0 1 2 6 13 19 26 33 39 42 44 45 46 44 41 39 35 29 23 17 12 8 4 2 1 1 1 1 1 2 3
0 0 0 0 0 0 0 0 0 0 0 0 0 0 0 1 3 7 13 21 28 36 42 44 41 40 38 37 35 32 28 23 19 16 12 7 4 3 2 2 2 3 3 3
0 0 0 0 0 0 0 0 0 0 0 0 0 0 0 1 3 6 11 18 25 33 40 39 34 31 32 31 29 26 24 21 19 17 15 11 7 4 3 3 3 3 3 3
0 0 0 0 0 0 0 0 0 0 0 0 0 0 0 0 1 5 12 19 25 33 38 34 27 24 25 25 23 21 18 16 15 15 13 11 8 4 3 3 3 3 3 3
0 0 0 0 0 0 0 0 0 0 0 0 0 0 0 0 1 4 12 21 28 33 34 28 22 20 21 21 19 16 13 11 11 11 11 9 7 5 3 3 3 3 3 3
0 0 0 0 0 0 0 0 0 0 0 0 0 0 0 0 1 4 13 24 30 30 27 23 19 18 19 18 16 13 10 9 9 9 8 7 6 4 3 2 3 3 3 3
0 0 0 0 0 0 0 0 0 0 0 0 0 0 0 0 2 5 13 24 28 26 23 19 16 15 14 13 11 10 8 6 6 6 6 5 4 3 1 1 1 2 2 2
0 0 0 0 0 0 0 0 0 0 0 0 0 0 0 0 2 6 13 19 22 22 20 17 14 11 10 9 9 8 7 6 5 5 4 4 3 1 0 0 0 1 1 1
0 0 0 0 0 0 0 0 0 0 0 0 0 0 0 0 1 6 10 13 16 17 17 14 11 10 10 10 9 8 7 7 6 4 3 3 2 1 0 0 0 0 0 0
0 0 0 0 0 0 0 0 0 0 0 0 0 0 0 0 1 4 7 10 13 16 17 14 13 12 13 13 10 8 6 6 5 3 2 2 1 0 0 0 0 0 0 0
0 0 0 0 0 0 0 0 0 0 0 0 0 0 0 0 1 3 6 8 12 17 19 17 16 15 14 13 10 8 5 4 4 3 2 1 1 1 0 0 0 0 0 1
0 0 0 0 0 0 0 0 0 0 0 0 0 0 0 0 1 3 5 9 14 19 20 18 16 13 10 10 9 8 5 4 4 4 3 2 2 2 1 0 0 0 0 1
0 0 0 0 0 0 0 0 0 0 0 0 0 0 0 0 1 2 6 12 17 19 19 17 14 11 7 7 6 5 4 3 3 3 3 2 3 3 2 1 1 1 0 1
0 0 0 0 0 0 0 0 0 0 0 0 0 0 0 0 1 2 7 15 20 20 18 15 12 9 7 5 4 3 2 3 3 2 1 1 1 2 2 1 2 2 1 0
0 0 0 0 0 0 0 0 0 0 0 0 0 0 0 1 2 4 9 16 19 19 16 14 11 9 7 5 5 3 2 2 1 1 0 0 0 1 1 1 2 2 2 1
0 0 0 0 0 0 1 1 1 0 0 0 0 1 2 3 5 7 10 14 15 15 12 11 11 10 8 7 6 4 3 1 0 0 0 0 0 0 0 0 1 1 2 2
0 0 0 0 0 0 1 2 1 0 0 0 1 3 5 7 8 8 9 12 12 9 6 7 10 12 10 8 6 6 5 3 1 0 0 0 0 0 0 0 0 0 1 1
0 0 0 0 0 0 1 1 1 0 0 0 1 4 7 8 7 5 6 9 9 5 4 7 11 12 9 6 6 7 7 4 2 0 0 0 0 0 0 0 0 0 0 0
0 0 0 0 0 0 0 0 0 0 0 0 1 3 5 5 2 2 3 6 6 4 4 9 11 9 5 3 4 6 5 3 1 0 0 0 0 0 0 0 0 0 0 0
0 0 0 0 0 0 0 0 0 0 0 0 0 2 3 2 0 1 4 5 4 4 5 7 7 5 3 1 2 3 2 1 0 0 0 0 0 0 0 0 0 0 0 0
0 0 0 0 0 0 0 0 0 1 1 1 0 1 2 2 1 2 3 3 2 3 5 4 4 4 3 1 1 1 0 0 0 0 0 0 0 0 0 0 0 0 0 0
0 0 0 0 0 0 0 0 1 2 2 1 0 1 2 2 2 1 1 1 1 2 3 2 2 3 2 1 0 0 0 0 0 0 0 0 0 0 0 0 0 0 0 0
0 0 0 0 0 0 0 0 1 2 1 0 0 0 1 3 2 1 0 0 0 1 1 1 1 1 1 0 0 0 0 0 0 0 0 0 0 0 0 0 0 0 0 0
0 0 0 0 0 0 0 0 1 2 1 0 0 0 1 2 2 1 0 0 0 0 0 0 0 0 0 0 0 1 1 1 0 0 0 0 0 0 0 0 0 0 0 0

GEFSCGP_con_prob3kmehi_138.txt.gz
EHI
0 0 0 0 0 0 0 0 0 0 0 0 0 1 3 3 5 8 17 27 33 35 39 47 49 47 50 54 54 53 50 49 44 32 20 12 6 3 2 3 2 0 0 0
0 0 0 0 0 0 0 0 0 0 0 0 0 1 3 3 3 5 11 20 27 32 40 48 51 50 52 56 56 54 52 50 45 35 22 13 6 4 4 4 3 1 1 1
0 0 0 0 0 0 0 0 0 0 0 0 0 1 2 2 2 3 6 11 19 29 39 46 50 52 56 58 56 52 51 49 45 37 26 16 9 6 6 6 5 4 3 4
0 0 0 0 0 0 0 0 0 0 0 0 0 1 2 2 2 3 3 7 14 24 35 43 48 51 55 57 53 48 47 46 42 37 30 21 13 9 7 7 8 7 5 4
0 0 0 0 0 0 0 0 0 0 0 0 0 0 1 2 2 3 3 5 11 20 30 41 49 51 52 51 48 47 45 43 39 34 29 21 14 10 8 8 9 8 6 5
0 0 0 0 0 0 0 0 0 0 0 0 0 0 0 1 1 1 3 5 10 20 31 42 50 52 49 46 46 45 43 40 35 30 23 16 11 10 11 10 9 7 6 7
0 0 0 0 0 0 0 0 0 0 0 0 0 0 0 0 0 1 3 7 13 24 37 47 51 50 46 44 43 42 41 38 33 26 19 14 11 11 11 10 8 6 6 7
0 0 0 0 0 0 0 0 0 0 0 0 0 0 0 0 0 1 3 8 17 29 43 52 52 47 44 42 41 39 38 36 30 24 19 15 13 11 10 7 6 6 6 7
0 0 0 0 0 0 0 0 0 0 0 0 0 0 0 0 1 2 5 12 21 30 43 52 52 45 40 38 36 34 32 32 27 22 18 14 13 12 9 7 5 5 7 7
0 0 0 0 0 0 0 0 0 0 0 0 0 0 0 1 2 3 7 15 24 30 39 49 50 43 36 33 31 28 26 24 21 17 14 11 11 11 10 8 6 5 6 6
0 0 0 0 0 0 0 0 0 0 0 0 0 0 0 1 2 3 7 16 25 30 37 47 48 41 36 32 29 26 22 19 15 13 12 10 9 9 9 8 6 4 4 5
0 0 0 0 0 0 0 0 0 0 0 0 0 0 0 0 1 3 8 19 28 33 42 49 47 41 38 35 32 28 24 19 14 12 11 11 10 9 8 7 4 3 3 3
0 0 0 0 0 0 0 0 0 0 0 0 0 0 0 0 2 4 12 25 34 40 47 51 48 43 42 40 36 31 27 21 17 14 12 11 10 10 8 6 4 3 3 2
0 0 0 0 0 0 0 0 0 0 0 0 0 0 0 2 4 7 16 30 40 47 52 53 52 49 47 43 38 33 29 25 21 17 15 13 10 8 7 7 6 5 4 4
0 0 0 0 0 0 0 0 0 0 0 0 0 0 1 4 6 10 19 32 43 50 55 56 57 57 53 47 39 33 30 27 22 18 16 13 10 7 7 8 7 6 6 6
0 0 0 0 0 0 0 0 0 0 0 0 0 0 2 5 8 12 19 30 41 50 56 59 60 62 59 52 44 37 32 28 23 18 16 14 11 9 8 8 7 8 8 7
0 0 0 0 0 0 0 0 0 0 0 0 0 1 3 7 10 12 18 26 34 45 55 60 64 66 62 55 49 43 38 32 27 22 19 16 15 12 9 8 9 9 9 8
0 0 0 0 0 0 0 0 0 0 0 1 1 2 5 9 12 14 18 23 29 40 52 59 63 66 63 57 53 50 44 38 34 30 24 20 19 16 12 10 11 11 9 9
0 0 0 0 0 0 0 0 0 0 0 1 2 4 8 10 11 15 22 26 32 41 52 58 61 63 62 58 56 54 48 43 40 36 29 24 21 19 16 14 14 12 10 9
0 0 0 0 0 0 0 1 1 0 1 3 5 8 12 12 14 22 32 37 41 49 57 60 60 61 61 58 57 55 51 44 39 35 31 27 24 22 20 18 17 14 10 8
0 0 0 0 0 1 1 1 3 6 9 11 14 18 20 23 29 37 43 47 51 55 58 59 58 59 59 57 55 53 49 42 35 31 30 28 25 21 20 19 17 14 11 9
0 0 0 0 0 1 4 6 11 19 26 27 27 29 32 38 43 44 46 49 49 49 52 54 52 51 51 51 50 47 42 36 30 27 26 25 22 18 17 17 15 12 11 11
0 1 1 1 2 3 7 13 20 29 36 39 37 36 38 42 43 40 41 43 42 41 44 47 44 40 39 39 39 37 31 25 22 21 20 19 17 15 14 14 13 11 9 8
1 2 2 3 4 6 9 15 21 27 34 39 39 36 35 37 36 33 35 39 39 37 37 38 35 30 27 27 27 24 19 16 15 15 15 14 12 11 11 11 9 8 6 5
1 2 3 4 5 7 11 15 20 23 27 30 32 31 29 29 29 29 31 33 31 27 24 24 22 19 16 17 16 13 10 11 12 12 11 11 9 7 6 6 5 4 3 3
1 2 3 4 6 9 13 17 20 21 22 24 27 28 26 24 24 27 27 26 21 16 13 12 12 11 11 11 11 8 7 8 10 10 9 9 7 5 4 4 3 2 1 1

GEFSCGP_con_prob3kmehi_144.txt.gz
EHI
0 0 0 0 0 0 0 0 0 0 0 0 1 5 9 11 16 29 45 57 65 68 73 76 75 73 74 76 76 73 73 72 65 54 47 42 33 23 19 25 31 30 27 26
0 0 0 0 0 0 0 0 0 0 0 0 1 5 10 11 12 22 37 52 60 66 73 76 75 73 74 75 75 74 74 73 66 57 50 43 34 26 23 28 32 30 29 29
0 0 0 0 0 0 0 0 0 0 0 0 1 5 10 10 9 14 27 40 51 60 70 74 74 74 74 75 75 75 76 75 70 61 52 45 38 31 28 31 33 32 31 31
0 0 0 0 0 0 0 0 0 0 0 0 1 4 9 9 8 12 20 28 40 53 64 72 74 74 73 73 74 77 78 77 73 64 53 45 38 32 28 29 32 32 31 30
0 0 0 0 0 0 0 0 0 0 0 0 0 2 7 9 9 12 16 23 34 46 57 66 72 74 73 72 75 78 80 79 74 65 54 45 37 30 24 24 26 28 28 27
0 0 0 0 0 0 0 0 0 0 0 0 0 1 4 6 8 11 15 22 32 42 52 62 69 73 74 73 76 80 82 79 73 65 55 47 38 30 23 19 19 21 22 21
0 0 0 0 0 0 0 0 0 0 0 0 0 0 1 3 5 9 15 22 29 39 50 60 68 74 76 75 76 80 81 78 72 64 58 50 40 30 23 18 15 16 16 17
0 0 0 0 0 0 0 0 0 0 0 0 0 0 1 2 3 6 13 20 27 37 51 60 65 72 76 76 76 78 79 76 69 63 58 49 38 28 22 19 16 14 14 14
0 0 0 0 0 0 0 0 0 0 0 0 0 0 1 3 4 5 10 18 26 37 51 58 63 68 74 77 77 77 76 72 65 59 52 42 33 25 20 17 15 14 13 13
0 0 0 0 0 0 0 0 0 0 0 0 0 0 1 4 4 5 10 18 26 37 50 60 65 68 71 74 75 74 73 70 63 55 45 34 28 23 17 14 12 12 12 13
0 0 0 0 0 0 0 0 0 0 0 0 0 0 1 3 4 6 12 20 28 36 50 64 71 70 69 70 72 72 71 68 62 55 44 32 26 23 18 14 12 11 13 15
0 0 0 0 0 0 0 0 0 0 0 0 0 0 0 2 3 7 14 24 31 39 51 66 74 73 70 69 71 71 67 62 59 55 47 36 29 25 20 17 15 14 15 17
0 0 0 0 0 0 0 0 0 0 0 0 0 0 0 1 4 9 17 27 37 47 57 69 77 78 76 76 76 70 62 56 53 53 50 43 35 29 25 22 21 19 18 19
0 0 0 0 0 0 0 0 0 0 0 0 0 0 1 3 6 11 19 31 44 55 67 77 83 85 86 86 82 72 62 56 52 51 52 48 40 35 33 31 27 24 21 20
0 0 0 0 0 0 0 0 0 0 0 0 0 0 2 5 9 14 21 33 46 59 71 81 86 90 91 89 83 75 66 61 58 55 54 51 44 40 38 36 33 30 26 23
0 0 0 0 0 0 0 0 0 0 0 0 0 1 5 9 13 18 25 35 47 58 70 78 84 88 89 87 83 78 73 67 63 60 56 52 47 42 38 35 36 37 33 28
1 1 1 0 0 0 0 0 0 0 0 0 1 3 9 17 23 26 32 41 50 58 68 77 83 87 88 86 84 82 77 71 66 62 56 51 46 40 36 34 35 36 34 29
2 2 1 0 0 0 0 0 0 0 0 1 2 6 13 24 31 34 41 49 56 63 72 80 84 87 89 87 85 82 77 71 67 63 56 49 43 38 35 34 34 34 31 28
1 1 1 0 0 0 0 0 0 0 1 2 4 8 14 21 31 42 51 58 66 74 80 84 85 87 90 89 85 81 77 72 67 63 57 48 43 41 38 36 35 34 31 29
0 0 0 0 0 0 0 0 0 1 4 8 12 15 20 27 40 55 63 68 76 82 84 85 87 89 90 89 87 82 77 72 66 63 58 51 47 45 41 38 37 34 30 29
0 0 0 0 0 1 2 2 5 13 22 27 29 34 42 52 63 70 72 73 79 83 84 84 86 86 85 85 84 81 77 71 65 61 57 53 49 44 42 40 37 33 29 27
0 0 0 0 1 6 12 13 20 36 47 48 47 53 63 71 76 76 74 73 75 79 81 80 79 78 77 76 75 74 72 68 62 58 54 51 45 41 39 38 36 33 30 27
0 0 0 2 7 16 25 30 36 47 54 52 51 56 66 73 74 73 71 69 71 73 73 70 69 69 68 67 64 63 64 61 58 54 49 44 41 38 35 32 31 30 27 23
0 0 1 5 13 21 28 34 38 41 42 42 46 53 60 66 67 66 65 67 68 67 64 62 61 60 59 57 55 53 53 52 50 45 40 35 33 33 31 27 24 22 19 16
1 2 4 9 16 22 24 28 32 34 35 36 41 48 53 55 57 58 60 62 61 58 55 54 53 49 45 43 41 40 40 41 40 35 30 26 23 23 24 21 16 12 9 7
3 4 6 11 20 24 24 25 28 30 32 35 39 43 46 48 50 54 57 56 53 49 48 46 43 39 34 31 29 29 31 32 31 29 25 20 17 17 19 17 11 5 3 2

GEFSCGP_con_prob3kmehi_150.txt.gz
EHI
0 0 0 0 0 0 0 0 0 0 1 2 6 13 20 29 39 47 51 51 51 50 51 56 62 65 64 60 56 52 50 45 38 28 20 14 10 6 2 2 4 5 4 5
0 0 0 0 0 0 0 0 0 0 0 2 5 10 18 25 34 43 50 52 53 54 58 62 66 68 67 64 58 54 52 46 38 29 22 16 11 5 1 1 4 6 7 7
0 0 0 0 0 0 0 0 0 0 0 1 3 6 13 21 27 36 47 53 57 61 65 68 69 69 69 66 61 57 53 46 37 29 25 21 15 8 3 1 2 6 7 7
0 0 0 0 0 0 0 0 0 0 0 0 1 2 7 17 25 32 44 53 57 60 64 67 68 68 67 64 62 58 53 46 37 30 27 24 19 13 7 3 1 3 4 5
0 0 0 0 0 0 0 0 0 0 0 0 0 0 3 12 21 30 42 50 50 52 57 62 65 66 66 64 62 57 52 45 37 31 27 23 19 14 9 5 2 2 3 3
0 0 0 0 0 0 0 0 0 0 0 0 0 0 1 5 13 25 37 44 45 47 51 57 63 66 68 67 64 58 52 45 38 32 28 22 16 12 9 6 4 3 3 3
0 0 0 0 0 0 0 0 0 0 0 0 0 0 0 2 8 20 33 42 45 46 49 55 60 66 69 69 66 61 55 48 39 33 28 23 16 11 9 8 7 6 4 3
0 0 0 0 0 0 0 0 0 0 0 0 0 0 1 3 9 20 32 42 48 49 50 54 58 62 66 67 65 62 57 50 40 33 28 22 16 10 8 8 8 6 4 2
0 0 0 0 0 0 0 0 0 0 0 0 0 0 2 6 16 25 35 45 51 52 52 54 56 59 61 63 62 59 55 47 37 29 24 20 15 9 6 6 6 4 2 1
0 0 0 0 0 0 0 0 0 0 0 0 0 0 2 8 19 30 37 45 52 53 52 51 53 54 56 57 57 55 50 42 32 25 21 16 12 8 5 4 4 3 2 2
0 0 0 0 0 0 0 0 0 0 0 0 0 0 1 6 17 28 34 41 49 52 50 49 49 49 50 53 54 51 46 39 32 27 20 13 10 7 4 4 5 5 4 4
0 0 0 0 0 0 0 0 0 0 0 0 0 0 1 6 14 22 29 38 47 51 49 48 49 49 50 54 56 52 46 39 34 28 21 14 11 8 5 5 6 6 6 6
0 0 0 0 0 0 0 0 0 0 0 0 0 0 2 7 12 17 26 38 48 51 50 50 52 52 53 54 56 54 47 40 34 30 24 19 15 12 8 7 7 8 7 7
0 0 0 0 0 0 0 0 0 0 0 0 0 1 2 5 8 14 25 37 46 51 52 52 53 54 52 50 51 52 48 42 37 33 28 23 20 16 11 10 10 9 7 7
0 0 0 0 0 0 0 0 0 0 0 0 1 2 3 5 7 15 28 39 46 50 51 52 52 51 48 45 45 46 47 44 40 37 32 28 25 20 15 13 11 8 6 5
0 0 0 0 0 0 0 0 0 0 0 1 2 3 4 7 10 19 33 44 49 51 51 51 53 52 50 46 43 43 45 45 42 40 36 33 29 25 20 15 11 7 5 3
0 0 0 0 0 0 0 0 0 0 0 1 2 4 7 11 16 23 34 46 52 54 54 53 55 56 55 51 48 47 48 48 46 42 38 34 32 30 25 18 12 8 5 3
0 0 0 0 0 0 0 0 0 0 1 1 3 9 16 23 28 31 37 47 55 59 58 55 55 56 56 55 54 56 55 51 47 42 36 32 31 30 25 19 13 9 5 3
0 0 0 0 0 0 0 1 1 1 3 4 8 17 27 38 43 42 44 52 60 64 62 58 55 54 54 55 56 58 55 47 42 38 33 29 27 25 21 17 12 7 4 3
0 0 0 0 0 0 1 2 3 3 7 11 17 26 37 46 50 50 53 58 63 64 63 61 57 53 51 52 53 53 49 40 34 32 30 26 23 21 17 15 12 7 4 3
0 0 0 0 0 0 2 4 5 7 13 19 25 35 45 51 53 55 59 61 61 59 60 60 57 52 49 49 50 48 43 36 30 28 26 25 22 18 15 14 12 7 4 3
0 0 0 0 0 0 1 3 5 10 18 25 32 41 52 59 60 60 61 60 58 56 57 56 53 49 48 48 50 48 42 34 29 26 23 22 21 17 16 15 13 9 7 6
0 0 0 0 1 1 2 4 7 12 19 27 36 45 54 61 61 59 58 56 53 53 51 48 46 44 43 44 46 46 41 34 29 24 20 18 17 16 16 15 12 11 10 10
0 0 0 1 2 4 7 8 11 16 20 27 36 43 48 51 52 52 51 48 45 42 39 37 38 37 35 34 36 36 34 30 26 22 16 13 13 13 11 9 7 7 7 8
0 0 1 3 5 6 8 10 14 19 23 27 31 34 35 37 38 40 40 37 32 29 26 27 29 29 26 24 24 25 24 22 20 17 13 11 9 7 4 3 2 2 2 2
0 1 2 4 6 6 6 8 14 20 25 27 28 27 26 26 29 32 32 29 24 21 20 22 23 22 20 18 18 18 17 17 15 14 13 10 6 3 1 0 0 0 0 0

GEFSCGP_con_prob3kmehi_156.txt.gz
EHI
0 0 0 0 0 0 0 0 0 0 0 0 0 2 7 14 19 21 22 19 14 12 12 14 22 31 32 28 28 30 27 22 18 13 6 2 0 0 0 0 0 0 0 1
0 0 0 0 0 0 0 0 0 0 0 0 0 2 5 10 14 18 22 21 18 15 15 18 23 31 35 32 31 31 28 26 22 16 10 4 1 0 0 0 0 0 1 1
0 0 0 0 0 0 0 0 0 0 0 0 1 1 3 5 7 11 17 22 21 19 20 22 26 33 37 36 34 32 31 30 27 23 17 11 7 4 2 1 0 0 1 1
0 0 0 0 0 0 0 0 0 0 0 0 0 0 1 2 3 6 13 20 24 24 25 25 28 34 38 36 34 33 33 32 30 28 25 21 15 9 4 2 0 0 0 0
0 0 0 0 0 0 0 0 0 0 0 0 0 0 0 1 4 6 10 19 26 29 28 27 28 32 35 35 34 33 32 33 32 30 28 25 19 12 5 1 0 0 0 0
0 0 0 0 0 0 0 0 0 0 0 0 0 0 0 1 3 4 8 15 24 29 29 27 26 29 34 37 39 37 36 35 34 32 29 26 21 14 8 3 2 1 0 1
0 0 0 0 0 0 0 0 0 0 0 0 0 0 0 0 1 3 5 12 20 25 25 23 24 29 37 44 47 45 41 36 32 32 30 26 21 16 12 7 3 1 1 1
0 0 0 0 0 0 0 0 0 0 0 0 0 0 0 0 0 2 5 11 18 21 21 20 22 29 39 47 49 46 40 34 31 30 28 24 18 15 12 6 2 1 0 1
0 0 0 0 0 0 0 0 0 0 0 0 0 0 0 0 1 3 6 12 17 19 19 20 23 29 37 44 45 42 38 33 29 26 23 18 15 13 10 4 1 0 0 0
0 0 0 0 0 0 0 0 0 0 0 0 0 0 0 0 1 3 6 11 15 17 19 22 25 29 34 37 37 37 35 30 24 20 18 15 13 11 7 4 1 1 1 0
0 0 0 0 0 0 0 0 0 0 0 0 0 0 0 0 1 2 3 8 13 17 19 21 25 30 31 30 31 32 30 25 19 17 16 15 12 9 6 4 3 2 2 1
0 0 0 0 0 0 0 0 0 0 0 0 0 0 0 0 0 1 3 7 12 16 19 20 24 29 28 27 27 28 27 22 19 17 16 13 10 8 7 5 4 3 2 2
0 0 0 0 0 0 0 0 0 0 0 0 0 0 0 0 0 2 4 8 11 16 20 23 26 28 28 26 25 25 24 21 19 19 16 11 8 8 8 7 6 4 3 2
0 0 0 0 0 0 0 0 0 0 0 0 0 0 0 0 0 1 5 10 13 17 22 26 28 28 27 25 24 24 21 18 18 20 17 11 8 8 9 9 7 6 5 4
0 0 0 0 0 0 0 0 0 0 0 0 0 0 0 0 1 2 6 13 17 20 22 25 27 28 27 25 24 24 22 18 17 19 17 12 9 8 9 9 7 6 5 4
0 0 0 0 0 0 0 0 0 0 0 0 0 0 0 1 3 5 9 16 22 25 26 27 28 29 30 30 28 27 24 20 19 19 16 12 10 10 10 9 7 6 6 5
0 0 0 0 0 0 0 0 0 0 0 0 0 0 1 3 5 7 11 19 26 29 31 32 31 30 32 34 33 29 25 22 21 19 16 13 11 10 9 9 8 7 7 5
0 0 0 0 0 0 0 0 0 0 0 1 2 2 3 5 6 9 13 19 25 28 31 34 33 31 32 33 32 29 26 23 21 19 15 13 11 8 7 8 8 7 7 6
0 0 0 0 0 0 0 0 0 0 1 2 4 5 6 8 9 11 15 19 23 26 30 34 33 32 33 33 33 30 26 21 18 15 13 12 11 8 6 6 6 7 6 6
0 0 0 0 0 0 0 0 0 0 1 3 6 7 8 9 10 11 17 24 27 29 31 33 33 33 34 35 33 30 23 17 13 11 10 11 13 11 8 7 6 6 5 4
0 0 0 0 0 0 0 1 0 0 1 4 8 8 9 12 14 14 19 28 33 34 33 35 35 32 32 32 30 27 22 17 14 12 10 10 11 11 10 8 6 4 3 2
0 0 0 0 0 0 0 0 0 1 3 6 8 10 13 19 22 22 24 29 35 36 37 39 38 32 27 27 27 27 24 19 17 14 11 9 8 9 9 6 3 2 1 1
0 0 0 0 0 0 1 1 1 2 4 6 8 12 19 23 25 25 27 30 32 34 35 37 36 31 24 23 25 26 23 19 14 11 9 8 7 7 6 4 2 1 2 2
0 0 0 1 1 2 3 4 5 5 5 7 9 14 21 24 23 23 25 26 25 25 24 24 24 24 21 19 19 19 17 13 9 7 7 7 6 5 4 4 3 3 2 2
0 0 0 1 2 4 6 7 7 7 8 10 12 14 20 25 24 20 17 15 15 14 13 11 11 13 14 13 11 10 9 7 5 5 6 5 5 4 3 3 3 2 1 1
0 0 0 1 1 3 6 7 7 8 10 13 14 14 18 24 24 17 11 7 8 10 9 7 6 6 7 7 7 6 6 6 5 5 5 4 4 4 2 1 1 1 1 1

GEFSCGP_con_prob3kmehi_162.txt.gz
EHI
0 0 0 0 0 0 0 0 0 0 0 0 0 1 6 11 12 11 12 15 21 26 29 32 32 32 33 35 40 45 43 39 37 32 28 21 12 5 4 5 7 6 5 4
0 0 0 0 0 0 0 0 0 0 0 0 0 1 4 9 11 11 12 14 18 24 32 36 37 36 38 41 45 47 46 45 43 38 31 24 16 8 5 6 7 8 7 6
0 0 0 0 0 0 0 0 0 0 0 0 0 1 3 7 11 13 13 13 15 22 33 42 44 43 44 46 46 46 48 50 49 44 36 30 25 17 12 10 9 9 9 8
0 0 0 0 0 0 0 0 0 0 0 0 0 1 3 7 12 15 15 16 18 22 31 42 45 43 44 44 42 43 47 51 52 47 40 37 33 27 21 14 10 10 9 8
0 0 0 0 0 0 0 0 0 0 0 0 0 0 1 3 8 14 18 21 23 24 28 37 39 37 38 38 40 44 50 53 53 49 44 40 36 29 22 16 13 12 12 11
0 0 0 0 0 0 0 0 0 0 0 0 0 0 0 0 3 9 16 23 27 27 28 32 36 36 35 35 39 46 54 57 56 53 48 41 34 27 21 17 15 15 15 15
0 0 0 0 0 0 0 0 0 0 0 0 0 0 0 0 1 5 12 20 28 31 29 32 36 39 38 36 39 47 55 60 59 55 51 43 33 26 22 17 16 16 15 14
0 0 0 0 0 0 0 0 0 0 0 0 0 0 0 0 1 5 10 18 29 34 33 34 37 40 41 39 40 46 53 57 57 55 53 45 34 25 20 15 13 13 11 9
0 0 0 0 0 0 0 0 0 0 0 0 0 0 0 0 2 7 11 18 30 38 40 41 39 38 39 40 41 45 50 53 54 54 51 44 33 22 15 12 11 10 8 7
0 0 0 0 0 0 0 0 0 0 0 0 0 0 0 0 2 7 13 20 30 41 48 50 46 40 37 40 45 49 52 53 53 51 46 39 30 21 14 11 11 10 9 7
0 0 0 0 0 0 0 0 0 0 0 0 0 0 0 0 1 4 12 21 30 41 50 53 52 47 42 42 48 53 56 54 50 47 44 38 29 21 16 15 14 13 12 11
0 0 0 0 0 0 0 0 0 0 0 0 0 0 0 0 1 3 10 20 31 41 48 53 57 56 51 49 51 53 54 50 46 45 43 38 29 21 18 18 18 18 18 17
0 0 0 0 0 0 0 0 0 0 0 0 0 0 0 0 1 4 10 21 34 43 50 57 63 64 61 58 56 54 50 45 43 43 42 37 30 23 19 18 20 22 23 23
0 0 0 0 0 0 0 0 0 0 0 0 0 0 0 1 3 7 14 24 37 49 58 66 73 73 69 66 61 56 51 47 45 44 42 39 34 29 25 23 24 25 25 25
0 0 0 0 0 0 0 0 0 0 0 0 0 0 1 4 6 12 20 28 38 52 64 74 81 81 76 72 67 62 58 55 52 48 45 42 39 35 33 29 30 31 29 27
0 0 0 0 0 0 0 0 0 0 0 0 0 1 3 7 10 17 25 30 36 47 60 73 82 83 80 76 73 68 65 62 59 55 51 47 43 41 38 34 34 36 34 31
0 0 0 0 0 0 0 0 0 0 1 1 1 3 6 10 13 19 26 31 35 41 52 65 75 80 80 78 75 71 68 66 63 58 53 50 48 46 41 36 37 38 37 34
0 0 0 0 0 0 0 0 0 0 2 3 5 6 9 12 15 20 27 33 36 40 49 60 70 75 76 76 76 74 73 70 64 56 52 50 49 49 47 42 39 38 36 34
0 0 0 0 0 0 0 0 0 0 2 6 8 9 12 14 15 21 30 36 38 42 49 57 65 72 75 77 78 78 77 73 64 57 52 49 48 49 49 45 40 36 32 31
0 0 0 0 0 0 1 1 1 1 4 10 14 17 19 19 20 28 38 41 42 44 46 52 62 70 75 79 81 82 80 72 62 57 54 51 48 46 44 43 40 33 27 26
0 0 0 0 0 1 3 4 5 8 15 21 26 29 31 32 36 42 45 45 46 46 46 51 61 69 74 78 80 80 76 66 56 53 54 52 47 41 38 40 40 33 27 25
1 0 0 0 1 4 10 15 20 28 35 39 40 40 40 43 47 49 47 45 46 47 47 52 61 68 72 75 75 72 65 56 49 49 51 50 45 39 37 38 38 33 28 26
2 2 3 4 6 11 19 28 36 44 50 52 51 47 45 45 46 47 46 44 46 48 49 52 57 62 66 68 69 64 57 50 47 47 48 47 43 39 38 37 34 30 26 25
4 5 9 13 16 18 23 30 39 46 51 53 52 48 44 41 41 43 42 42 43 45 48 50 52 53 55 59 60 57 51 48 47 45 44 41 37 35 35 33 28 23 21 19
7 9 15 19 21 22 24 29 35 40 42 44 45 42 39 37 35 36 37 37 38 40 43 45 46 44 43 46 48 46 43 43 44 41 38 33 29 27 26 22 18 14 12 11
9 12 17 21 22 23 26 31 34 35 36 37 37 37 35 33 30 29 32 34 34 36 39 41 39 36 35 35 37 37 36 37 39 38 33 27 24 22 19 13 9 6 5 4

GEFSCGP_con_prob3kmehi_168.txt.gz
EHI
0 0 0 0 0 0 0 0 0 0 0 0 1 3 4 6 11 19 29 37 43 47 49 55 61 64 65 65 65 63 60 56 51 47 44 36 27 22 19 22 30 32 30 30
0 0 0 0 0 0 0 0 0 0 0 0 1 3 5 8 11 18 29 38 46 52 57 61 63 65 68 70 67 66 64 61 57 53 47 40 34 28 22 24 30 31 29 30
0 0 0 0 0 0 0 0 0 0 0 0 1 2 6 9 11 18 30 40 46 55 64 67 65 66 70 74 72 70 68 66 63 58 50 45 43 37 29 29 32 32 29 26
0 0 0 0 0 0 0 0 0 0 0 0 1 2 5 8 11 18 30 39 45 53 63 67 65 65 68 73 77 77 74 71 67 62 54 50 47 42 37 36 36 34 29 26
0 0 0 0 0 0 0 0 0 0 0 0 0 2 4 5 8 15 25 35 42 49 58 63 62 61 63 69 77 82 81 77 71 64 57 53 50 46 43 40 38 34 30 29
0 0 0 0 0 0 0 0 0 0 0 0 0 1 2 2 4 10 18 28 38 46 54 61 62 61 61 65 75 82 84 82 76 67 61 58 55 51 47 42 37 31 28 29
0 0 0 0 0 0 0 0 0 0 0 0 0 0 0 1 2 5 13 25 35 42 49 59 65 66 66 67 73 82 86 85 80 72 66 63 60 56 51 45 36 29 27 29
0 0 0 0 0 0 0 0 0 0 0 0 0 0 0 1 1 3 10 22 30 36 45 56 66 71 71 70 75 83 87 86 83 78 72 66 62 58 52 46 38 30 26 26
0 0 0 0 0 0 0 0 0 0 0 0 0 0 1 2 2 3 9 18 25 30 41 54 66 71 72 73 77 82 84 83 82 81 75 67 63 59 52 45 39 33 26 23
0 0 0 0 0 0 0 0 0 0 0 0 0 0 1 3 4 5 9 16 23 28 37 52 66 73 75 77 80 82 81 78 77 78 73 68 66 63 55 46 41 34 28 24
0 0 0 0 0 0 0 0 0 0 0 0 0 0 1 4 6 7 10 16 23 29 36 49 64 73 77 79 83 84 82 79 76 73 72 71 71 66 59 52 47 39 33 32
0 0 0 0 0 0 0 0 0 0 0 0 0 0 1 4 8 10 13 20 28 33 39 50 62 72 77 81 85 87 84 83 80 77 76 75 73 69 65 61 54 45 40 39
0 0 0 0 0 0 0 0 0 0 0 0 0 0 2 6 10 13 17 26 35 41 46 55 67 76 82 85 87 87 84 83 83 83 82 79 74 71 69 65 58 50 46 43
0 0 0 0 0 0 0 0 0 0 0 0 0 1 4 9 11 14 21 31 40 48 55 63 75 85 90 91 91 89 85 82 84 86 85 81 75 71 67 63 56 52 49 47
0 0 0 0 0 0 0 0 0 0 0 0 1 2 7 12 14 16 25 34 44 54 63 70 82 92 94 94 94 92 88 85 84 85 84 80 75 69 64 60 55 51 49 47
0 0 0 0 0 0 0 0 0 0 0 0 2 5 9 14 17 22 29 38 48 60 70 77 86 93 94 93 93 92 90 87 85 83 81 78 75 70 64 61 58 53 49 48
0 0 0 0 0 0 0 0 0 1 1 2 4 8 14 19 24 30 36 42 53 64 74 81 86 90 92 92 90 89 89 89 87 83 80 77 75 71 66 63 61 56 53 53
2 3 2 0 0 0 0 0 1 2 3 5 7 13 21 26 32 39 44 49 57 66 74 80 84 87 90 91 89 88 89 89 89 86 82 78 74 70 67 64 62 60 58 57
3 5 2 0 0 0 0 0 1 3 5 8 12 18 25 30 35 42 49 56 64 69 73 77 79 83 88 91 90 89 89 90 90 88 85 81 75 68 65 63 62 62 62 60
2 3 2 0 0 0 1 1 2 3 7 13 19 25 30 36 42 50 56 63 71 74 75 75 75 79 86 90 89 88 88 88 87 85 84 81 75 68 64 62 61 62 61 57
0 0 0 0 0 1 3 4 8 14 21 27 32 37 43 52 61 66 68 72 75 76 75 74 74 79 84 86 86 86 85 83 80 79 78 76 71 66 63 62 62 60 57 54
0 0 0 1 4 9 14 17 25 37 43 45 48 53 59 67 74 76 76 77 78 76 74 71 72 75 78 79 80 80 79 77 75 74 73 71 66 61 60 61 60 58 56 54
1 2 4 8 15 24 31 35 43 53 57 56 57 61 65 70 73 73 75 78 78 74 71 68 68 69 70 72 73 72 71 71 73 73 71 66 61 58 56 54 53 51 50 49
4 6 12 19 26 32 36 40 45 51 54 54 56 59 62 64 66 67 70 75 77 72 66 64 64 64 65 66 68 67 67 68 69 69 65 59 55 52 47 42 38 36 36 36
7 9 16 25 31 33 34 35 37 41 45 48 51 56 57 55 56 60 64 69 71 67 60 57 57 58 59 60 61 62 63 64 64 61 54 48 45 42 37 29 22 19 19 19
8 11 17 28 33 35 35 34 34 37 41 44 49 55 54 48 48 52 56 62 66 62 56 51 50 51 53 55 57 57 58 60 59 54 45 41 40 37 32 23 13 8 7 7

GEFSCGP_con_prob3kmehi_174.txt.gz
EHI
0 0 0 0 0 0 0 0 0 0 0 1 2 5 7 12 18 24 28 30 28 24 26 37 47 49 46 43 39 36 35 31 23 15 10 7 5 4 4 4 4 4 5 5
0 0 0 0 0 0 0 0 0 0 0 1 3 5 8 14 20 25 30 33 32 29 33 44 51 53 51 46 41 38 36 31 26 19 12 8 5 4 4 5 7 8 8 9
0 0 0 0 0 0 0 0 0 0 0 1 3 3 6 13 21 27 32 35 36 36 41 48 54 56 56 52 46 42 39 35 31 25 18 13 9 5 3 3 6 9 12 12
0 0 0 0 0 0 0 0 0 0 1 1 1 1 4 12 22 26 30 33 37 40 44 49 53 55 57 56 52 47 44 40 36 32 28 23 16 8 3 1 3 7 11 12
0 0 0 0 0 0 0 0 0 0 0 0 0 0 3 11 20 23 25 29 35 41 45 50 53 54 56 59 57 54 50 46 42 38 35 31 22 13 7 5 4 6 8 10
0 0 0 0 0 0 0 0 0 0 0 0 0 0 2 8 15 19 20 25 33 41 47 53 53 52 55 61 63 62 59 53 47 43 39 35 26 18 13 11 9 8 9 9
0 0 0 0 0 0 0 0 0 0 0 0 0 0 1 5 11 16 18 23 34 44 50 52 52 53 57 64 68 68 65 60 54 49 44 38 30 23 18 15 14 13 12 12
0 0 0 0 0 0 0 0 0 0 0 0 0 0 0 3 9 15 18 24 35 45 49 49 51 55 59 64 68 69 66 63 59 54 49 43 36 27 21 17 15 14 13 13
0 0 0 0 0 0 0 0 0 0 0 0 0 0 0 4 13 20 23 29 37 43 43 44 49 55 57 61 64 66 65 63 60 56 51 46 41 33 23 17 13 11 10 11
0 0 0 0 0 0 0 0 0 0 0 0 0 0 1 6 17 27 31 35 40 41 38 39 46 52 55 57 61 63 64 63 59 56 53 50 46 37 25 17 12 9 8 9
0 0 0 0 0 0 0 0 0 0 0 0 0 0 1 6 18 29 35 37 40 39 35 36 44 51 54 57 61 62 64 65 62 58 56 54 50 40 28 20 14 10 8 7
0 0 0 0 0 0 0 0 0 0 0 0 0 0 1 7 18 29 35 39 40 37 35 37 44 51 55 56 60 63 65 67 67 63 59 55 49 39 32 25 18 13 9 6
0 0 0 0 0 0 0 0 0 0 0 0 0 1 4 11 19 27 35 40 41 39 37 39 42 49 52 52 55 60 63 66 67 64 59 54 46 38 33 28 22 17 12 9
0 0 0 0 0 0 0 0 0 0 0 0 1 3 9 15 21 28 35 39 40 40 40 39 40 45 48 50 51 53 58 64 67 65 60 55 46 39 35 29 23 21 17 15
0 0 0 0 0 0 0 0 0 0 0 1 3 6 11 17 24 30 34 36 36 37 38 37 38 42 47 49 49 49 53 62 67 66 62 55 47 41 36 30 24 23 20 17
0 0 0 0 0 0 0 0 0 0 0 1 4 8 12 18 26 32 35 37 35 34 33 33 36 43 47 49 50 50 52 58 65 66 61 54 49 44 38 31 25 23 20 17
0 0 0 0 0 0 0 0 1 1 2 2 5 9 13 19 27 33 37 40 40 38 36 35 41 49 52 51 53 56 57 60 65 65 59 54 50 45 40 34 27 22 19 15
0 0 0 0 0 0 0 0 1 2 4 5 8 13 19 26 35 40 42 43 46 47 44 43 49 55 56 55 58 61 64 66 68 67 62 57 52 47 43 38 30 23 17 13
0 0 0 0 0 0 0 0 1 3 6 10 15 20 27 36 45 51 49 49 52 53 50 50 54 56 56 57 60 62 65 68 70 69 64 59 55 50 46 40 31 22 16 12
0 0 0 0 0 0 0 1 2 4 7 14 22 28 32 38 48 55 56 55 57 58 55 54 53 52 52 53 56 59 62 65 66 65 62 59 56 51 45 37 29 21 16 15
0 0 0 0 0 0 1 2 3 4 7 16 25 31 34 38 45 53 58 60 61 61 59 55 51 49 48 49 52 54 58 59 57 56 57 56 53 48 40 32 25 21 19 17
0 0 0 0 0 0 2 3 3 5 11 19 26 32 37 42 47 52 56 59 61 59 55 50 47 46 46 47 49 51 53 53 50 48 48 47 45 41 33 26 23 22 21 20
0 0 0 1 1 3 4 6 7 10 17 23 29 35 40 45 49 51 53 55 56 52 46 42 41 43 43 44 47 49 49 49 48 44 40 37 34 31 27 23 20 20 21 21
0 0 1 2 5 8 10 12 13 18 24 28 32 36 38 42 46 48 49 49 48 44 38 35 36 38 39 40 43 46 46 46 46 41 34 29 26 24 22 19 17 16 18 20
0 0 1 3 6 10 13 14 17 21 26 29 32 34 34 38 41 42 41 39 37 34 31 30 31 32 32 34 38 40 41 42 41 35 29 25 21 19 18 15 12 11 13 14
0 0 1 2 4 7 11 14 16 20 24 27 30 32 31 34 37 37 34 30 28 27 28 28 27 27 28 31 34 36 36 38 36 31 26 22 18 17 15 12 9 7 8 9

GEFSCGP_con_prob3kmehi_180.txt.gz
EHI
0 0 0 0 0 0 0 0 0 0 0 1 1 1 2 6 12 13 10 6 3 2 3 4 6 9 11 13 13 12 9 6 4 3 2 0 0 0 0 0 0 0 0 0
0 0 0 0 0 0 0 0 0 0 0 0 0 0 1 5 10 12 10 7 4 3 5 6 6 9 11 13 15 15 12 8 6 5 3 1 0 0 0 0 0 0 0 0
0 0 0 0 0 0 0 0 0 0 0 0 0 0 0 2 6 8 8 7 5 6 8 9 8 9 12 14 17 18 16 12 9 8 6 5 3 2 1 0 0 0 0 0
0 0 0 0 0 0 0 0 0 0 0 0 0 0 0 1 3 6 6 6 7 8 11 12 10 10 12 15 18 20 19 15 12 11 10 9 7 5 2 1 0 0 1 1
0 0 0 0 0 0 0 0 0 0 0 0 0 0 0 0 2 4 6 7 8 9 11 13 13 12 13 16 20 23 23 20 16 15 14 12 10 7 3 1 0 0 2 3
0 0 0 0 0 0 0 0 0 0 0 0 0 0 0 0 0 2 5 6 7 8 10 14 16 15 15 18 23 25 25 24 22 20 19 17 13 9 4 2 0 1 1 1
0 0 0 0 0 0 0 0 0 0 0 0 0 0 0 0 0 1 4 6 7 8 10 16 21 21 19 20 24 26 26 26 26 25 24 21 17 13 9 4 2 1 1 0
0 0 0 0 0 0 0 0 0 0 0 0 0 0 0 0 0 1 4 7 8 8 12 19 25 25 22 20 22 25 26 26 26 27 25 23 20 17 13 7 3 2 2 1
0 0 0 0 0 0 0 0 0 0 0 0 0 0 0 0 1 2 5 9 9 10 14 20 26 26 22 20 21 24 26 25 24 24 24 22 20 17 13 9 5 4 3 2
0 0 0 0 0 0 0 0 0 0 0 0 0 0 0 0 1 2 5 9 12 14 18 22 24 25 22 20 20 22 25 24 23 21 20 21 21 17 12 8 6 5 5 4
0 0 0 0 0 0 0 0 0 0 0 0 0 0 0 0 0 1 5 9 15 19 22 23 24 24 22 20 20 22 24 23 20 18 19 22 21 15 9 6 5 6 5 5
0 0 0 0 0 0 0 0 0 0 0 0 0 0 0 0 0 2 7 11 16 21 23 24 25 25 24 22 21 22 23 22 19 18 20 22 21 15 8 5 4 6 6 5
0 0 0 0 0 0 0 0 0 0 0 0 0 0 0 0 1 4 9 12 15 19 22 24 25 26 26 23 22 23 24 23 21 20 20 22 22 17 10 5 5 7 7 7
0 0 0 0 0 0 0 0 0 0 0 0 0 0 0 1 3 6 10 14 16 18 20 21 22 24 25 24 24 25 26 25 24 22 21 23 24 20 14 9 9 9 8 8
0 0 0 0 0 0 0 0 0 0 0 0 0 0 0 1 4 8 12 16 19 19 19 19 20 22 25 25 25 25 25 26 26 26 26 27 29 26 21 16 12 10 8 7
0 0 0 0 0 0 0 0 0 0 0 0 0 0 1 4 8 11 13 17 21 21 20 19 20 22 24 24 24 25 26 27 29 30 31 33 34 31 26 20 14 9 7 6
0 0 0 0 0 0 0 0 0 1 1 1 1 2 4 9 12 13 14 18 22 24 23 22 22 23 22 22 23 26 29 30 32 33 33 34 36 35 29 23 17 11 8 8
0 0 0 0 0 0 0 0 0 1 2 2 2 4 8 12 14 14 15 18 22 24 25 24 24 24 23 23 25 29 33 34 36 35 32 31 34 35 31 27 21 14 11 10
0 0 0 0 0 0 0 0 0 1 2 2 3 6 11 14 14 14 15 19 22 24 25 25 27 27 27 28 29 33 38 39 39 36 31 29 30 31 31 27 21 15 12 11
0 0 0 0 0 0 0 0 0 1 2 3 5 9 13 14 14 15 18 23 26 27 25 24 26 28 29 31 33 38 42 43 41 36 31 28 26 26 27 25 20 15 12 11
0 0 0 0 0 0 0 0 1 1 1 4 9 13 15 16 16 19 25 30 32 30 26 24 26 29 31 33 35 39 43 43 40 35 31 27 24 24 24 22 20 17 13 10
0 0 0 0 0 0 0 1 1 0 1 5 10 13 16 18 21 25 30 33 32 28 25 26 28 29 30 32 34 37 39 39 36 31 28 25 23 23 22 19 18 15 12 10
0 0 0 1 1 0 1 1 1 0 1 4 8 11 15 19 23 25 27 27 25 23 23 27 30 28 27 28 31 33 33 33 31 27 24 22 20 21 20 16 13 12 11 12
0 0 1 2 2 2 2 2 2 2 2 4 6 10 16 19 19 20 20 20 19 19 21 26 29 27 25 25 27 27 27 27 27 25 21 19 17 18 17 12 9 9 10 11
0 0 1 2 2 3 3 3 3 4 4 5 6 10 14 16 16 16 16 15 16 17 19 23 25 25 25 24 24 24 22 22 24 23 19 17 16 16 15 11 6 5 6 6
0 0 1 1 2 3 3 3 4 4 5 5 6 9 12 13 14 14 12 13 15 15 16 20 22 23 24 23 23 22 21 20 22 21 18 16 16 16 15 10 5 2 1 2

GEFSCGP_con_prob3kmehi_186.txt.gz
EHI
0 0 0 0 0 0 0 0 0 0 0 0 0 1 4 6 7 8 11 13 12 9 9 10 9 10 17 26 31 33 32 28 23 18 12 8 5 3 3 2 1 3 5 5
0 0 0 0 0 0 0 0 0 0 0 0 0 1 4 7 8 7 9 11 11 12 15 15 13 13 19 28 32 34 33 29 26 21 15 8 5 5 5 4 4 6 7 8
0 0 0 0 0 0 0 0 0 0 0 0 0 1 3 5 6 6 7 7 9 13 19 20 19 18 22 28 31 34 35 33 31 28 21 13 9 9 8 7 7 9 10 11
0 0 0 0 0 0 0 0 0 0 0 0 0 0 1 3 4 6 7 6 8 13 19 21 22 22 23 26 29 34 39 39 38 36 30 24 18 12 10 10 10 11 12 11
0 0 0 0 0 0 0 0 0 0 0 0 0 0 0 1 3 7 9 9 10 14 19 22 22 22 23 25 29 36 44 47 46 42 38 34 25 17 13 13 15 16 14 11
0 0 0 0 0 0 0 0 0 0 0 0 0 0 0 0 2 6 10 11 12 14 18 23 25 25 26 27 30 38 46 51 51 46 42 38 31 25 21 20 21 20 16 12
0 0 0 0 0 0 0 0 0 0 0 0 0 0 0 0 1 4 7 11 15 17 19 25 30 32 33 33 35 40 46 51 51 47 42 38 34 31 28 25 24 22 18 15
0 0 0 0 0 0 0 0 0 0 0 0 0 0 1 1 2 4 6 10 17 22 25 29 35 38 38 38 39 42 47 50 48 43 39 37 34 31 29 28 26 24 23 21
0 0 0 0 0 0 0 0 0 0 0 0 0 0 1 2 4 6 9 12 17 24 31 38 41 42 41 40 41 44 49 51 47 41 36 33 32 31 29 29 29 27 26 25
0 0 0 0 0 0 0 0 0 0 0 0 0 0 1 3 5 8 10 13 16 22 33 43 48 49 44 40 40 43 49 52 49 44 38 33 32 33 34 34 34 32 29 26
0 0 0 0 0 0 0 0 0 0 0 0 0 0 1 3 6 8 9 12 15 22 31 41 49 52 50 44 42 44 48 50 50 48 42 36 35 37 39 39 40 38 34 32
0 0 0 0 0 0 0 0 0 0 0 0 0 1 2 4 7 10 11 14 19 24 31 40 49 55 55 51 46 45 47 48 47 46 43 40 39 41 42 42 44 44 41 39
0 0 0 0 0 0 0 0 0 0 0 0 0 1 2 5 9 12 15 19 25 29 34 41 50 56 57 53 47 45 45 45 44 42 43 43 44 44 43 43 44 46 46 45
0 0 0 0 0 0 0 0 0 0 0 0 1 1 3 6 10 13 17 23 29 35 39 44 51 56 56 52 48 45 45 46 45 43 45 48 49 48 44 42 44 47 48 49
0 0 0 0 0 0 0 0 0 0 0 1 1 2 4 7 10 14 18 24 30 36 42 47 52 56 56 54 51 49 49 51 50 46 46 51 54 53 48 45 47 50 52 52
0 0 0 0 0 0 0 0 0 0 0 1 1 2 5 9 12 16 21 26 30 35 40 43 47 53 55 55 54 52 53 56 57 52 49 53 58 59 55 51 53 56 55 54
0 0 0 0 0 0 0 0 0 0 1 1 1 2 6 11 15 18 22 28 33 36 37 36 40 47 49 49 51 52 52 57 60 57 54 56 59 60 57 55 56 57 57 57
0 0 0 0 0 0 0 0 0 0 1 2 2 3 7 14 16 17 22 28 33 36 36 35 37 40 39 39 43 47 49 54 58 58 56 57 58 55 53 53 54 55 56 56
0 0 0 0 0 0 0 0 0 0 1 1 3 5 10 14 14 16 21 26 31 36 37 36 36 37 37 36 37 40 43 48 54 57 58 58 56 52 48 48 52 53 52 51
0 0 0 0 0 0 0 0 0 0 1 3 5 9 12 14 14 18 22 25 32 38 39 37 36 38 41 41 38 36 38 43 51 57 60 60 56 50 45 45 48 48 45 43
0 0 0 0 0 0 1 1 1 1 4 7 10 12 14 17 21 25 27 31 36 39 38 37 36 38 41 41 39 37 37 41 47 53 57 58 55 47 42 42 42 41 39 36
0 0 0 0 0 1 3 3 3 5 8 11 13 14 16 21 26 29 30 34 35 35 34 34 34 34 37 39 39 38 38 40 43 47 51 52 50 46 42 41 38 37 36 34
1 2 1 1 1 3 5 6 6 9 11 13 15 16 18 23 26 26 27 27 27 27 27 27 27 28 32 36 37 38 39 40 41 44 46 46 45 44 41 38 36 36 35 33
3 3 3 3 3 4 5 6 8 10 12 14 16 17 18 19 22 23 22 20 20 21 21 20 21 23 28 34 35 36 37 39 40 42 42 40 37 36 33 31 31 33 33 32
2 3 3 4 5 6 6 7 9 10 12 15 16 16 15 17 20 20 18 17 17 18 18 16 17 20 24 28 31 33 34 35 36 37 37 33 29 27 25 23 24 26 25 24
1 2 3 4 6 6 7 9 10 11 13 15 16 15 14 16 19 18 17 16 16 17 16 15 16 20 22 23 27 30 31 32 34 34 32 29 25 24 22 19 17 17 16 14

GEFSCGP_con_prob3kmehi_192.txt.gz
EHI
0 0 0 0 0 0 0 0 0 0 0 0 0 2 5 6 7 13 22 28 33 38 43 47 47 48 58 67 67 59 52 49 43 35 32 33 31 27 25 29 36 37 33 30
0 0 0 0 0 0 0 0 0 0 0 0 0 2 5 7 7 11 19 26 32 37 46 54 53 50 60 71 71 64 58 54 48 39 32 28 26 25 27 36 41 39 36 36
0 0 0 0 0 0 0 0 0 0 0 0 0 2 5 8 9 10 15 22 29 36 48 59 58 54 63 74 75 69 66 63 57 48 38 31 30 30 33 42 46 44 41 41
0 0 0 0 0 0 0 0 0 0 0 0 0 1 5 8 11 13 15 20 27 36 49 61 62 59 65 73 77 76 74 71 65 57 47 40 39 39 39 45 49 49 45 43
0 0 0 0 0 0 0 0 0 0 0 0 0 1 3 6 10 14 17 21 27 38 50 60 63 64 68 73 78 81 82 79 71 61 53 47 42 40 42 47 50 49 48 47
0 0 0 0 0 0 0 0 0 0 0 0 0 1 3 5 8 12 17 22 27 37 49 58 64 69 73 75 78 83 86 84 74 63 55 51 45 40 40 44 47 46 47 49
0 0 0 0 0 0 0 0 0 0 0 0 0 3 6 7 8 10 16 21 26 34 46 57 65 72 78 79 80 85 88 86 76 64 59 57 52 43 40 41 42 43 44 46
0 0 0 0 0 0 0 0 0 0 0 0 2 6 10 11 11 12 14 19 25 33 42 53 63 72 79 82 83 87 91 88 78 67 62 62 57 48 43 43 41 40 41 42
0 0 0 0 0 0 0 0 0 0 0 0 3 8 12 14 14 14 15 17 22 30 38 47 56 65 74 80 85 89 92 88 80 71 66 65 62 55 50 49 46 42 42 42
0 0 0 0 0 0 0 0 0 0 0 0 2 8 14 18 18 16 17 17 21 27 34 42 51 57 64 72 81 89 92 89 83 75 67 64 63 59 55 53 51 49 47 47
0 0 0 0 0 0 0 0 0 0 0 0 2 7 15 19 18 17 17 19 22 26 31 41 50 56 61 65 74 84 90 89 84 76 68 64 62 61 58 56 55 55 54 54
0 0 0 0 0 0 0 0 0 0 0 0 2 7 13 16 16 15 17 20 25 30 34 42 54 62 64 65 70 78 83 84 80 76 72 67 65 64 61 58 57 58 59 59
0 0 0 0 0 0 0 0 0 0 0 0 2 7 12 15 15 16 19 23 29 35 40 48 59 66 68 68 70 74 76 76 75 76 75 71 68 67 64 60 59 60 60 60
0 0 0 0 0 0 0 0 0 0 0 1 3 9 14 18 20 22 24 27 33 39 46 53 62 66 68 69 71 72 72 73 74 76 76 74 70 67 65 63 63 63 62 62
0 0 0 0 0 0 0 0 0 0 0 2 5 9 15 21 26 28 28 30 35 42 50 58 64 67 68 69 69 69 70 73 74 76 77 75 71 68 67 67 69 68 66 64
0 0 0 0 0 0 0 0 0 0 0 2 6 10 15 21 28 31 30 31 35 41 50 58 64 67 68 68 68 67 68 72 74 76 75 73 71 70 70 71 72 72 69 65
0 0 0 0 0 0 0 0 0 1 2 3 6 11 17 21 25 28 30 33 37 40 45 51 57 62 65 66 66 65 66 69 72 73 72 71 71 70 71 71 71 70 67 63
0 0 0 0 1 0 0 0 0 2 4 5 6 11 17 19 21 26 30 35 40 41 42 45 49 54 59 61 62 62 62 64 65 65 66 66 67 68 68 68 67 65 61 56
0 0 0 0 0 0 0 0 1 2 4 6 7 11 15 18 20 24 29 34 39 41 42 43 44 47 51 53 54 56 58 58 57 56 56 58 62 64 65 65 64 61 57 53
0 0 0 0 0 0 0 1 1 3 6 9 10 12 16 19 22 25 30 36 39 42 43 43 43 44 46 47 49 52 54 52 50 49 51 54 57 60 61 62 61 58 55 53
0 0 0 0 0 1 1 2 4 8 12 13 13 14 18 24 27 29 34 38 41 43 44 44 45 45 45 45 47 50 51 49 46 46 48 52 55 55 55 56 56 54 52 52
0 0 0 0 1 4 6 5 7 13 14 13 12 13 19 26 31 32 35 38 40 42 43 43 45 45 45 44 44 46 48 48 47 46 47 49 50 49 49 50 49 48 47 45
0 0 1 2 4 8 9 9 9 11 12 11 10 12 18 25 30 33 36 37 37 37 37 38 41 42 40 38 38 40 42 44 46 47 47 45 44 44 46 46 44 41 38 36
0 0 3 5 8 9 10 9 9 10 11 11 11 12 18 25 30 33 36 36 35 33 32 32 35 35 34 32 33 35 36 38 42 44 44 42 41 41 42 41 37 32 29 28
0 0 3 7 8 9 10 9 8 10 11 12 13 15 20 25 29 31 34 35 33 30 29 29 29 30 30 28 29 31 32 34 38 40 40 39 38 36 36 34 28 23 22 22
0 1 2 6 8 9 10 9 8 9 11 12 14 17 20 24 27 29 32 34 31 28 27 27 26 27 28 25 25 28 30 32 36 38 37 36 35 33 32 29 22 18 18 18

GEFSCGP_con_prob3kmehi_198.txt.gz
EHI
0 0 0 0 0 0 0 0 0 0 0 0 1 2 4 5 5 5 6 7 9 13 18 24 31 37 38 35 31 27 23 18 14 13 13 10 5 1 0 1 5 11 17 18
0 0 0 0 0 0 0 0 0 0 0 0 1 2 3 5 7 7 7 9 13 17 23 28 34 39 41 40 35 31 27 21 17 16 14 12 8 3 1 2 5 11 18 21
0 0 0 0 0 0 0 0 0 0 0 0 0 1 1 4 8 9 8 10 16 23 28 33 36 40 44 44 41 37 33 28 23 20 17 17 14 10 6 4 5 11 17 21
0 0 0 0 0 0 0 0 0 0 0 0 0 0 1 4 9 10 10 12 17 25 32 36 39 41 44 47 47 45 41 37 32 26 23 22 21 17 11 6 5 8 13 17
0 0 0 0 0 0 0 0 0 0 0 0 0 0 1 5 8 10 12 13 18 27 36 40 42 43 45 49 53 53 48 43 40 35 29 27 26 20 13 7 5 7 10 12
0 0 0 0 0 0 0 0 0 0 0 0 0 0 1 4 7 9 12 14 20 29 39 43 45 46 48 52 57 59 55 49 46 41 34 29 26 20 14 10 8 9 10 12
0 0 0 0 0 0 0 0 0 0 0 0 0 1 3 7 9 11 12 15 21 28 36 41 44 48 53 57 60 62 60 55 50 44 36 31 26 21 17 15 13 12 14 16
0 0 0 0 0 0 0 0 0 0 0 0 1 3 8 13 16 16 15 16 19 24 31 37 41 46 53 59 62 62 62 59 53 45 38 33 28 24 19 16 14 12 14 17
0 0 0 0 0 0 0 0 0 0 0 1 3 7 13 18 19 18 18 19 20 23 30 36 39 44 51 58 61 62 62 60 56 49 42 37 32 27 21 16 14 12 12 13
0 0 0 0 0 0 0 0 0 0 0 1 5 9 14 16 17 17 18 21 22 24 29 35 41 47 53 57 60 62 61 58 55 50 44 37 32 28 22 18 16 14 13 13
0 0 0 0 0 0 0 0 0 0 0 1 5 9 11 14 16 18 19 19 21 23 27 35 43 51 55 57 59 59 58 56 52 47 41 35 30 26 22 20 19 18 17 17
0 0 0 0 0 0 0 0 0 0 0 1 4 8 11 15 18 20 19 18 19 22 27 35 45 51 55 57 57 57 55 53 51 46 39 33 29 26 23 21 21 21 21 21
0 0 0 0 0 0 0 0 0 0 0 1 4 9 14 18 19 21 20 19 20 23 26 37 45 49 52 55 55 54 53 52 51 47 41 34 30 28 27 25 23 23 23 23
0 0 0 0 0 0 0 0 0 0 1 1 4 9 14 17 19 20 21 22 25 27 29 36 43 47 50 52 51 51 52 51 48 46 43 38 32 30 29 27 24 23 23 23
0 0 0 0 0 1 1 1 0 0 1 3 5 8 13 16 18 20 22 25 29 31 32 36 42 46 47 47 47 46 47 47 46 44 42 39 35 32 29 26 24 23 23 22
0 0 0 0 1 2 2 2 1 1 2 3 6 9 13 17 18 19 22 26 29 32 33 36 41 43 41 40 38 37 38 41 43 43 41 40 39 37 34 29 27 25 24 23
0 0 0 0 1 2 3 3 3 4 5 6 8 12 15 16 16 18 21 24 26 28 31 34 37 37 35 33 30 29 32 36 39 40 40 40 40 39 38 35 33 30 27 26
0 0 0 0 1 2 2 2 3 6 9 10 13 17 18 17 17 18 20 21 22 25 28 31 33 33 30 29 30 31 34 37 36 35 34 35 35 36 36 36 35 33 30 29
0 0 0 0 1 2 2 1 2 5 9 11 15 19 22 21 21 21 21 20 20 22 26 29 31 31 29 29 32 35 37 36 34 31 29 29 31 33 33 34 34 33 31 29
0 0 0 0 1 1 1 0 1 3 6 8 11 16 19 20 20 21 20 19 18 20 23 26 27 28 27 28 31 34 34 31 28 27 27 27 28 30 31 32 34 34 31 28
0 0 0 0 0 0 0 0 0 1 2 4 6 10 12 11 14 18 20 19 18 19 20 20 20 22 24 25 28 30 28 25 22 22 23 24 25 26 28 30 33 33 31 28
0 0 0 0 0 0 0 0 0 0 1 2 3 6 7 7 10 17 20 20 19 18 17 15 15 16 18 21 24 25 23 19 18 17 19 20 21 23 23 26 28 30 31 29
0 0 0 0 0 0 0 0 0 0 0 1 3 5 7 8 11 17 20 20 18 17 17 16 14 14 14 16 18 18 16 14 14 15 16 18 20 20 20 21 24 27 28 27
0 0 0 0 0 0 0 0 0 0 1 2 4 6 7 8 10 14 17 18 18 17 17 17 15 13 13 14 13 11 11 10 11 13 16 18 19 18 18 19 21 24 24 23
0 0 0 0 0 0 1 1 0 0 1 4 5 6 6 7 9 11 14 17 18 16 16 16 15 13 14 15 13 10 9 9 10 12 15 17 16 15 15 16 18 19 19 19
0 0 1 1 1 1 2 2 1 1 2 5 6 6 6 7 9 11 13 16 17 15 13 14 14 13 15 16 14 12 10 10 10 11 14 15 14 14 14 14 14 15 16 14

GEFSCGP_con_prob3kmehi_204.txt.gz
EHI
0 0 0 0 0 0 0 0 0 0 0 0 0 0 0 1 1 1 0 1 0 0 0 1 4 5 5 4 2 1 0 0 0 1 1 2 3 2 1 1 1 1 2 3
0 0 0 0 0 0 0 0 0 0 0 0 0 0 0 0 0 0 1 1 1 1 1 2 4 6 6 6 5 2 1 0 0 1 1 2 3 3 2 2 2 2 2 2
0 0 0 0 0 0 0 0 0 0 0 0 0 0 0 0 0 0 1 2 3 2 3 4 6 8 9 10 8 4 2 1 0 0 1 2 3 3 4 3 1 1 1 1
0 0 0 0 0 0 0 0 0 0 0 0 0 0 0 0 0 0 1 2 3 3 4 7 10 12 13 13 10 6 3 2 1 0 2 2 3 3 4 2 1 0 0 0
0 0 0 0 0 0 0 0 0 0 0 0 0 0 0 0 0 0 0 1 3 3 5 10 14 15 17 17 14 9 5 3 2 3 5 6 4 3 3 2 1 0 0 0
0 0 0 0 0 0 0 0 0 0 0 0 0 1 2 2 2 2 1 2 3 4 7 12 16 18 21 22 20 15 9 6 5 6 7 7 6 4 3 2 1 0 0 0
0 0 0 0 0 0 0 0 0 0 0 0 1 2 2 3 5 5 3 2 4 6 9 13 17 20 23 25 24 20 16 11 8 7 6 6 5 5 6 5 2 1 1 1
0 0 0 0 0 0 0 0 0 0 0 0 1 1 2 3 6 6 4 3 5 7 9 12 17 21 24 27 27 26 22 16 12 9 8 6 6 6 6 5 3 3 3 3
0 0 0 0 0 0 0 0 0 0 0 0 0 0 1 3 6 7 7 6 6 7 8 10 15 20 24 28 31 30 25 18 15 13 11 8 6 6 6 5 5 5 5 5
0 0 0 0 0 0 0 0 0 0 0 0 0 0 1 3 6 9 11 10 9 9 9 11 16 22 25 29 33 31 24 19 18 17 14 10 7 5 5 5 5 6 5 4
0 0 0 0 0 0 0 0 0 0 0 0 0 1 1 2 5 10 12 11 11 12 12 15 21 26 29 31 33 31 25 22 22 21 18 14 9 6 3 3 4 4 4 3
0 0 0 0 0 0 0 0 0 0 0 0 1 2 3 4 7 10 12 13 14 15 15 18 22 27 28 30 33 33 29 26 25 24 22 19 15 9 5 3 2 2 2 3
0 0 0 0 0 0 0 0 0 0 0 0 1 3 7 9 10 11 13 15 16 16 16 17 18 20 23 28 34 37 34 30 28 26 24 23 18 13 9 7 5 4 4 5
0 0 0 0 0 0 1 1 1 0 0 0 0 3 9 13 13 13 15 17 16 16 16 14 13 14 18 26 35 39 36 33 30 27 24 22 18 12 10 10 9 8 9 9
0 0 0 0 0 1 1 1 1 1 0 1 2 4 7 11 13 13 15 15 15 17 19 16 12 13 18 26 34 37 36 33 30 27 25 21 15 10 9 10 12 12 12 12
0 0 0 0 0 0 0 1 2 1 1 3 5 6 7 9 12 13 12 11 13 17 20 18 15 15 18 24 29 33 33 31 29 28 25 21 14 11 11 12 13 15 15 15
0 0 0 0 0 0 0 2 3 3 3 5 6 8 9 10 12 12 12 10 11 13 16 17 15 15 19 23 24 27 29 29 27 25 23 18 14 11 12 13 14 16 17 18
0 0 0 0 0 0 0 1 2 3 3 4 6 9 11 12 12 14 14 13 9 9 11 13 13 14 19 21 20 20 23 25 23 21 19 16 14 13 12 11 13 15 17 18
0 0 0 0 0 0 0 0 1 1 1 3 6 9 11 12 14 15 15 12 9 6 7 10 12 15 18 19 17 16 19 21 20 18 18 17 17 17 13 11 11 13 15 16
0 0 0 0 0 0 0 0 0 0 0 1 5 8 9 11 12 12 12 11 8 6 6 8 11 14 16 18 18 18 20 20 19 19 20 21 21 19 16 14 14 15 15 14
0 0 0 0 0 0 0 0 0 0 0 1 4 6 6 7 8 10 10 9 7 5 4 7 10 13 15 17 19 21 21 20 18 17 20 21 20 16 15 16 17 18 16 14
0 0 0 0 0 0 0 0 0 0 0 1 2 3 2 2 5 8 9 7 5 4 3 5 8 11 12 14 16 17 17 15 14 14 15 16 15 12 12 14 16 17 17 16
0 0 0 0 0 0 0 0 0 0 0 1 1 1 0 0 2 5 7 6 4 4 5 5 6 9 10 11 11 11 10 9 9 9 9 10 10 9 9 11 13 14 15 16
0 0 0 0 0 0 0 0 0 0 0 0 0 0 0 0 1 3 5 5 5 6 6 6 7 9 9 9 8 7 6 5 6 6 6 6 6 7 8 10 11 11 12 13
0 0 0 0 0 0 0 0 0 0 0 0 0 0 1 1 2 3 5 5 6 7 9 9 9 9 9 9 7 5 4 3 4 4 5 5 5 6 6 6 6 7 9 11
0 0 0 0 0 0 0 0 0 0 0 0 0 1 2 2 3 4 4 4 5 7 10 11 10 10 10 9 8 5 4 3 2 2 3 5 6 6 4 2 2 3 7 9

GEFSCGP_con_prob3kmehi_210.txt.gz
EHI
0 0 0 0 0 0 0 0 0 0 0 0 0 0 1 2 2 5 10 10 5 3 4 6 9 13 16 16 16 17 17 15 11 8 7 6 5 4 4 4 4 3 2 1
0 0 0 0 0 0 0 0 0 0 0 0 0 0 1 2 2 4 8 9 7 6 9 12 14 17 20 20 20 19 18 17 14 10 8 6 4 3 3 3 3 2 1 1
0 0 0 0 0 0 0 0 0 0 0 0 0 0 1 2 3 5 7 8 7 8 14 19 20 21 24 25 24 21 21 21 19 15 10 7 5 3 2 2 3 3 2 1
0 0 0 0 0 0 0 0 0 0 0 0 0 0 1 2 4 6 8 8 6 7 13 20 21 20 23 25 24 23 25 26 26 22 16 12 9 4 3 3 3 4 3 3
0 0 0 0 0 0 0 0 0 0 0 0 0 0 0 2 6 8 9 9 8 6 10 17 19 19 19 22 25 26 28 29 31 28 23 19 13 7 6 6 6 6 5 4
0 0 0 0 0 0 0 0 0 0 0 0 0 0 1 3 7 8 8 9 10 7 9 16 19 20 21 23 26 29 32 34 35 32 27 25 20 14 12 10 9 8 5 3
0 0 0 0 0 0 0 0 0 0 0 0 0 0 2 6 8 7 6 9 10 10 12 18 22 25 28 30 30 34 39 42 40 35 32 30 26 20 16 14 11 8 5 2
0 0 0 0 0 0 0 0 0 0 0 0 0 1 4 7 8 7 7 9 11 13 15 20 24 27 32 34 36 41 48 50 46 40 36 33 28 21 17 15 12 7 4 2
0 0 0 0 0 0 0 0 0 0 0 0 0 1 3 7 9 9 11 13 14 15 16 19 23 26 29 34 39 46 53 56 52 45 38 32 27 23 19 18 16 12 9 7
0 0 0 0 0 0 0 0 0 0 0 0 0 1 3 8 12 15 18 20 20 19 19 21 23 24 26 32 40 47 54 57 54 47 39 32 28 26 24 22 22 20 17 15
0 0 0 0 0 0 0 0 0 0 0 0 0 1 5 10 17 22 25 27 26 24 22 23 24 24 27 33 43 50 53 53 51 47 42 36 31 28 26 25 26 26 23 21
0 0 0 0 0 1 1 0 0 0 0 0 0 2 4 11 20 26 28 28 28 25 22 21 24 28 33 40 47 54 54 50 46 44 43 40 35 31 27 25 26 28 27 24
0 0 0 0 0 1 2 1 0 0 0 0 0 1 3 11 21 28 28 27 26 26 25 24 27 34 41 47 50 52 52 48 44 43 43 41 38 35 29 26 26 28 27 24
0 0 0 0 0 1 2 1 0 0 0 0 0 1 4 10 19 25 25 24 26 29 31 31 33 38 45 50 52 50 47 45 44 43 42 41 41 39 35 31 30 29 26 23
0 0 0 0 0 0 1 1 1 1 1 1 2 2 5 11 16 18 19 21 25 29 32 32 33 37 43 47 49 48 44 42 42 41 39 39 41 41 39 36 35 33 29 26
0 0 0 0 0 0 0 0 1 2 2 2 2 4 8 12 14 15 18 21 24 26 27 27 27 31 35 38 41 42 40 39 40 38 37 37 39 40 39 37 36 36 34 32
0 0 0 0 0 0 0 0 1 1 1 2 3 6 11 13 13 15 18 21 24 25 24 23 22 24 26 29 32 34 36 37 37 35 35 36 37 39 38 36 36 36 36 36
0 0 0 0 0 0 0 0 0 0 1 4 7 10 14 15 14 14 16 18 20 22 22 20 20 20 22 25 28 30 33 35 34 34 34 34 35 37 36 35 35 35 34 34
0 0 0 0 0 0 0 0 0 0 2 6 10 14 17 17 16 15 15 16 17 18 19 19 20 20 22 24 27 30 33 34 33 32 33 34 34 35 34 32 31 30 29 29
0 0 0 0 0 0 0 0 0 0 1 4 9 14 18 19 19 18 17 16 16 17 17 18 19 21 23 24 26 30 31 32 30 30 32 34 33 33 30 27 25 25 25 24
0 0 0 0 0 0 0 0 0 2 3 4 7 12 17 19 20 20 19 17 16 16 15 15 18 21 22 22 24 26 26 27 27 27 29 30 30 29 27 24 22 22 21 22
0 0 0 0 0 0 0 0 1 3 5 5 6 10 16 20 20 21 20 18 16 14 12 12 15 19 20 20 22 23 24 26 28 28 27 27 26 25 25 23 21 20 20 20
0 0 0 0 0 0 0 0 0 2 3 5 6 8 13 16 18 19 19 17 15 13 11 10 12 16 19 21 22 23 25 29 31 29 27 26 25 24 24 23 21 19 18 17
0 0 0 0 0 0 0 0 0 0 1 3 4 5 6 9 11 13 15 14 12 11 10 9 10 14 18 21 22 23 25 28 29 28 27 26 24 23 22 21 18 15 13 12
0 0 0 0 0 0 0 0 1 1 1 1 1 2 2 3 5 7 9 10 10 10 9 7 7 11 16 19 20 20 23 25 25 26 25 23 21 20 18 14 12 10 8 7
0 0 0 0 0 0 0 0 1 2 1 0 0 1 1 2 3 4 6 8 9 9 9 6 5 8 14 18 18 17 20 23 24 24 23 20 19 17 14 10 7 6 5 5

GEFSCGP_con_prob3kmehi_216.txt.gz
EHI
0 0 0 0 0 0 0 0 0 0 0 0 0 1 3 3 5 12 23 33 38 37 40 46 46 44 50 61 66 60 53 47 35 22 14 9 5 3 3 11 23 25 18 13
0 0 0 0 0 0 0 0 0 0 0 0 0 1 3 3 6 14 26 36 40 42 48 56 55 50 55 66 70 64 59 54 41 28 18 11 7 6 6 14 25 28 22 18
0 0 0 0 0 0 0 0 0 0 0 0 0 1 2 4 7 15 26 34 39 46 58 67 65 59 61 69 71 67 67 65 52 35 23 17 13 12 13 21 28 30 25 21
0 0 0 0 0 0 0 0 0 0 0 0 0 0 2 5 8 14 22 28 34 45 60 69 69 64 63 67 69 70 73 72 61 45 31 25 22 17 18 24 29 29 25 22
0 0 0 0 0 0 0 0 0 0 0 0 0 0 1 4 8 11 16 23 30 40 54 65 69 67 64 65 70 74 77 75 67 54 42 35 27 20 21 27 31 32 29 27
0 0 0 0 0 0 0 0 0 0 0 0 0 0 2 5 6 8 12 17 25 36 48 59 68 70 68 67 71 76 79 77 70 60 51 43 34 29 30 34 37 36 33 31
0 0 0 0 0 0 0 0 0 0 0 0 0 1 5 7 7 7 9 12 19 30 42 54 66 72 72 71 74 78 80 79 72 63 57 51 43 39 39 38 38 36 33 31
0 0 0 0 0 0 0 0 0 0 0 0 0 3 7 9 8 7 8 12 18 27 37 49 60 68 70 71 75 79 82 80 73 66 62 57 50 44 41 37 34 32 31 29
0 0 0 0 0 0 0 0 0 0 0 0 0 3 8 10 10 10 12 16 21 26 34 43 52 58 64 69 75 79 82 80 74 68 64 61 55 49 44 39 33 30 30 30
0 0 0 0 0 0 0 0 0 0 0 0 0 3 8 12 13 14 16 20 24 27 31 39 46 51 57 65 73 78 81 80 75 69 65 62 60 54 48 42 36 33 33 34
0 0 0 0 0 0 0 0 0 0 0 0 0 2 7 13 15 16 18 22 26 28 32 38 46 51 55 61 70 77 79 78 74 68 63 62 62 57 50 45 41 39 39 40
0 0 0 0 0 0 0 0 1 0 0 0 0 2 6 12 15 16 20 25 28 30 33 38 47 53 55 60 68 73 74 72 70 66 63 63 61 57 54 51 49 47 48 49
0 0 0 0 0 0 0 0 0 0 0 0 1 2 6 13 17 19 22 27 30 32 36 41 47 52 55 60 66 68 67 66 64 64 64 64 61 58 57 56 54 52 52 54
0 0 0 0 0 0 0 0 0 0 0 0 1 3 8 15 19 21 25 29 32 36 42 47 49 53 58 63 65 64 63 62 62 62 63 61 57 55 55 54 52 50 50 52
0 0 0 0 0 0 0 0 0 0 0 0 0 2 8 15 18 21 25 31 34 39 46 50 52 56 61 65 66 64 63 61 60 60 59 55 50 48 49 49 47 45 45 45
0 0 0 0 0 0 0 0 0 0 0 0 0 2 8 14 17 19 24 29 34 39 43 47 50 53 59 62 63 62 61 58 56 55 54 50 45 44 45 45 43 42 42 43
0 0 0 0 0 0 0 0 0 0 0 0 0 3 8 13 17 19 22 27 33 36 38 40 42 46 52 55 55 55 55 53 51 50 49 47 44 43 43 41 40 41 42 45
0 0 0 0 0 0 0 0 0 0 1 2 3 6 9 13 17 18 22 28 31 32 33 34 36 41 46 48 47 46 47 48 46 45 45 43 43 42 41 38 37 39 41 43
0 0 0 0 0 0 0 0 0 0 2 6 8 10 12 14 16 19 25 31 32 30 29 31 34 37 42 44 43 41 41 41 41 40 40 40 40 40 37 33 32 33 36 37
0 0 0 0 0 0 0 0 0 0 2 7 12 15 16 16 19 25 31 34 32 31 31 30 30 32 36 40 41 41 40 38 36 36 38 38 36 36 33 30 27 28 29 30
0 0 0 0 0 0 0 1 2 3 5 9 14 18 19 20 26 31 33 33 32 33 33 31 28 28 32 35 38 40 40 37 33 33 35 35 33 31 29 27 25 24 25 25
0 0 0 0 0 1 2 3 5 7 9 11 14 18 20 24 29 31 30 30 31 32 32 30 28 28 28 30 32 36 36 34 31 30 30 31 31 29 27 26 25 23 23 23
0 0 0 1 2 2 3 4 6 8 9 9 11 14 18 21 25 27 27 27 28 28 27 27 27 26 24 24 27 32 33 31 29 28 29 29 28 27 25 24 23 22 22 21
0 0 0 2 3 3 3 4 4 6 7 7 8 10 12 15 18 23 25 26 27 26 24 24 24 24 23 21 23 27 30 30 29 28 28 28 27 26 24 20 19 19 19 18
0 0 0 2 4 4 4 3 4 5 7 8 7 7 8 11 15 21 24 26 27 25 23 23 23 24 23 20 20 23 26 28 29 28 26 25 24 25 22 17 14 13 13 14
0 0 1 2 4 5 4 4 4 5 7 8 7 6 6 9 15 21 25 27 27 25 24 23 23 24 23 19 19 22 26 28 28 27 24 21 21 23 20 13 9 8 8 8

GEFSCGP_con_prob3kmehi_222.txt.gz
EHI
0 0 0 0 0 0 0 0 0 0 0 0 1 4 8 11 12 15 19 21 17 15 22 35 42 41 40 37 32 27 21 15 10 7 4 2 1 0 0 0 1 1 2 4
0 0 0 0 0 0 0 0 0 0 0 0 1 3 7 10 11 13 17 21 21 20 26 40 48 47 44 40 35 30 25 19 13 8 4 3 1 0 0 0 0 1 2 4
0 0 0 0 0 0 0 0 0 0 0 0 0 1 4 8 10 11 14 20 24 26 31 42 51 53 49 44 39 35 32 27 18 11 7 5 4 2 0 0 0 1 2 3
0 0 0 0 0 0 0 0 0 0 0 0 0 0 2 6 10 11 14 19 24 28 34 41 48 51 50 47 43 39 37 34 26 18 14 10 7 3 1 0 0 1 1 2
0 0 0 0 0 0 0 0 0 0 0 0 0 0 2 7 10 12 14 17 22 29 34 39 43 46 48 49 47 43 41 40 33 26 21 16 10 4 1 1 1 0 0 1
0 0 0 0 0 0 0 0 0 0 0 0 0 0 2 5 8 10 11 15 23 30 35 37 39 42 46 50 52 50 47 43 38 32 26 20 13 7 4 2 2 1 1 1
0 0 0 0 0 0 0 0 0 0 0 0 0 0 1 3 6 9 10 14 22 30 36 37 36 38 43 50 55 57 54 47 41 35 29 22 17 12 7 4 3 3 4 4
0 0 0 0 0 0 0 0 0 0 0 0 0 0 1 3 7 10 11 14 20 28 35 39 37 36 41 49 55 58 58 52 45 40 32 24 19 16 10 5 4 4 5 6
0 0 0 0 0 0 0 0 0 0 0 0 0 0 1 3 7 10 13 16 20 25 32 38 37 34 39 47 52 57 59 56 51 45 37 29 23 18 13 9 8 8 9 9
0 0 0 0 0 0 0 0 0 0 0 0 0 0 1 4 7 9 13 17 20 23 28 32 33 33 39 45 51 56 59 59 56 50 43 35 29 23 18 15 14 14 13 14
0 0 0 0 0 0 0 0 0 0 0 0 0 0 2 5 8 10 14 18 22 25 26 27 28 30 37 44 51 57 62 62 58 52 47 41 34 29 25 20 18 16 16 15
0 0 0 0 0 0 0 0 0 0 0 0 0 0 3 7 11 13 18 21 23 25 26 26 28 30 34 41 49 55 61 62 59 55 50 44 38 34 30 25 19 17 16 16
0 0 0 0 0 0 0 0 0 0 0 0 0 1 5 11 15 18 21 24 24 25 27 28 30 32 34 38 43 48 53 57 58 56 51 45 41 38 35 29 23 19 17 17
0 0 0 0 0 0 0 0 0 0 0 0 1 3 7 12 16 20 24 26 26 27 29 30 30 31 33 35 38 41 46 52 54 53 50 44 40 39 37 32 28 24 20 19
0 0 0 0 0 0 0 0 0 0 0 1 2 4 8 12 15 19 24 26 26 27 29 29 28 26 27 29 33 37 44 49 50 50 49 43 38 37 37 36 32 28 24 23
0 0 0 0 0 0 0 0 0 0 0 1 2 5 10 13 15 19 21 22 22 22 24 24 23 20 21 24 28 33 38 42 45 47 45 40 35 34 37 38 35 30 26 25
0 0 0 0 0 0 0 0 0 1 2 2 4 8 13 16 17 20 20 20 19 18 18 18 17 17 21 24 26 29 32 35 38 40 39 34 31 32 35 37 34 30 25 24
0 0 0 0 0 0 0 0 0 1 3 5 7 11 15 18 20 22 22 20 17 15 14 14 14 17 23 26 27 28 30 31 34 35 33 30 28 29 30 31 30 25 22 21
0 0 0 0 0 0 0 0 0 1 3 6 8 12 16 20 23 24 22 20 16 14 13 14 15 18 22 26 28 29 29 29 31 31 29 27 26 25 25 25 23 20 18 18
0 0 0 0 0 0 0 0 0 1 2 5 9 12 16 19 21 20 19 18 16 14 16 19 20 20 20 22 25 27 28 29 30 28 25 24 24 23 21 20 18 17 16 16
0 0 0 0 0 0 0 0 0 0 1 5 8 10 13 16 16 15 14 16 17 17 20 22 22 21 20 21 23 25 26 27 28 28 25 22 22 21 18 15 14 14 14 14
0 0 0 0 0 0 0 1 1 1 2 4 6 7 10 13 13 12 13 14 17 18 20 20 19 20 20 21 22 24 23 23 25 27 24 20 18 16 13 12 12 12 12 12
0 0 0 0 0 0 0 1 2 3 3 4 5 6 8 9 9 11 12 14 14 16 17 17 17 17 17 17 19 20 18 18 19 20 19 16 14 12 10 9 10 10 10 10
0 0 0 0 0 0 0 1 2 3 3 3 4 6 7 6 6 8 11 12 12 13 14 14 15 15 13 12 12 13 13 13 13 13 14 13 12 11 8 7 8 9 9 9
0 0 0 0 0 0 0 1 2 2 2 3 4 4 4 3 3 5 7 10 11 13 13 13 14 13 11 8 6 6 7 8 8 9 10 11 11 10 7 5 4 5 6 6
0 0 0 0 0 0 0 0 1 1 1 1 2 3 3 2 2 2 4 7 11 13 13 13 13 13 10 7 4 4 4 5 6 6 8 9 9 8 6 4 2 2 3 3

GEFSCGP_con_prob3kmehi_228.txt.gz
EHI
0 0 0 0 0 0 0 0 0 0 0 1 3 4 5 5 5 7 11 15 15 10 5 3 4 7 8 8 8 7 6 5 4 3 1 0 0 0 0 0 0 0 1 1
0 0 0 0 0 0 0 0 0 0 1 2 3 4 5 5 5 6 8 12 14 11 6 6 7 10 12 13 11 8 7 5 4 3 2 1 0 0 0 0 0 0 1 2
0 0 0 0 0 0 0 0 0 0 1 2 3 3 4 4 4 3 3 7 11 11 9 10 13 15 18 18 14 10 8 7 6 4 4 3 2 2 1 1 1 1 1 2
0 0 0 0 0 0 0 0 0 0 0 1 1 3 3 3 3 1 1 3 7 10 12 13 15 18 20 20 17 12 10 8 7 6 6 7 6 4 3 2 2 2 2 2
0 0 0 0 0 0 0 0 0 0 0 0 1 2 3 3 3 1 0 1 4 8 12 14 15 16 18 19 18 14 12 10 9 8 8 9 8 6 4 4 4 3 3 3
0 0 0 0 0 0 0 0 0 0 0 0 0 1 1 3 3 2 1 1 3 6 10 14 14 14 16 18 18 16 15 14 13 13 11 10 10 8 6 6 6 5 5 4
0 0 0 0 0 0 0 0 0 0 0 0 0 0 1 3 4 4 3 2 2 5 10 14 15 15 18 20 20 20 20 19 19 18 17 15 13 12 10 9 8 8 7 6
0 0 0 0 0 0 0 0 0 0 0 0 0 1 2 3 5 5 4 3 3 5 10 15 16 17 21 24 23 24 24 22 22 22 21 20 18 16 14 11 10 9 7 6
0 0 0 0 0 0 0 0 0 0 0 0 1 2 3 3 4 5 6 5 5 7 10 14 18 21 24 26 26 27 28 27 25 24 24 23 21 19 16 13 12 11 8 6
0 0 0 0 0 0 0 0 0 0 0 0 1 2 3 3 3 5 7 8 8 8 9 13 19 23 25 26 28 29 31 32 30 27 26 24 21 19 17 16 16 14 10 8
0 0 0 0 0 0 0 0 0 0 0 0 1 1 2 3 4 5 7 9 9 9 10 13 19 24 25 25 27 30 32 33 32 30 27 23 20 18 18 19 19 17 12 8
0 0 0 0 0 0 0 0 0 0 0 0 0 1 2 5 8 8 8 9 11 11 12 17 22 25 24 25 27 29 29 29 30 30 26 23 22 19 18 19 20 18 13 9
0 0 0 0 0 0 0 0 0 0 0 0 0 1 5 10 12 11 11 12 13 13 15 19 22 23 22 23 25 26 25 25 28 28 24 22 23 20 17 16 17 17 13 10
0 0 0 0 0 0 0 0 0 0 0 0 1 2 7 12 13 11 11 12 12 13 14 17 17 17 18 20 22 23 23 24 25 26 24 22 22 19 15 13 12 12 10 8
0 0 0 0 0 0 0 0 1 1 1 1 1 3 6 9 9 9 9 10 12 13 13 13 13 14 15 17 18 20 22 24 25 26 26 23 21 17 12 10 10 9 9 8
0 0 0 0 0 0 0 0 1 2 2 2 3 4 6 7 7 9 10 13 14 15 14 12 11 12 13 14 15 17 20 24 26 26 27 26 23 18 14 12 13 13 12 10
0 0 0 0 0 0 0 0 1 1 2 2 3 4 6 7 9 12 14 15 16 17 17 15 12 11 10 11 12 14 18 22 25 24 24 24 23 20 17 17 18 18 16 14
0 0 0 0 0 0 0 0 0 1 2 1 2 4 7 9 11 15 17 16 16 18 18 17 14 11 9 9 9 11 16 20 21 21 20 21 21 21 20 20 21 20 18 18
0 0 0 0 0 0 0 0 0 1 1 1 1 5 9 11 12 15 17 17 17 16 15 14 13 11 10 9 8 9 13 16 17 17 19 20 20 20 20 21 21 21 20 20
0 0 0 0 0 0 0 0 0 0 0 0 1 4 8 11 12 12 14 15 15 13 11 10 10 9 10 9 8 9 11 14 15 16 19 21 21 22 22 21 21 20 19 18
0 0 0 0 0 0 0 0 0 0 0 0 0 2 5 7 8 9 10 11 12 11 9 9 9 9 8 8 8 8 10 12 14 17 19 21 21 22 21 19 18 16 14 13
0 0 0 0 0 0 0 0 0 0 0 0 0 0 1 2 3 5 7 8 8 8 7 7 8 7 6 7 7 7 7 9 13 16 18 19 19 18 17 16 14 12 10 8
0 0 0 0 0 0 0 0 0 0 0 0 0 0 0 1 1 2 4 5 5 5 4 4 4 3 3 3 5 6 6 8 12 14 16 17 16 14 12 12 10 8 6 6
0 0 0 0 0 0 0 0 0 0 0 0 1 1 1 1 0 0 1 2 3 3 2 2 3 3 2 2 4 6 8 10 12 13 14 14 13 9 8 8 7 5 4 4
0 0 0 0 0 0 0 0 0 0 0 0 0 1 1 1 0 0 0 1 2 2 1 3 5 5 3 3 4 5 8 11 11 11 11 11 9 7 6 6 5 3 3 3
0 0 0 0 0 0 0 0 0 0 0 0 0 0 1 0 0 0 1 1 1 1 2 4 6 6 4 4 4 5 7 9 10 10 10 9 8 6 6 6 5 2 2 3

GEFSCGP_con_prob3kmehi_234.txt.gz
EHI
0 0 0 0 0 0 0 0 0 0 0 0 0 0 1 2 5 8 10 10 9 9 12 14 13 12 13 14 14 14 11 8 6 5 4 3 1 0 0 0 0 0 1 1
0 0 0 0 0 0 0 0 0 0 0 0 0 0 1 2 3 7 9 10 10 11 14 17 17 18 19 19 17 14 12 11 9 7 5 3 2 1 1 1 1 2 3 3
0 0 0 0 0 0 0 0 0 0 0 0 0 0 0 1 2 4 6 8 10 11 16 20 22 23 25 23 18 14 14 15 13 10 7 6 5 4 3 3 4 5 5 6
0 0 0 0 0 0 0 0 0 0 0 0 0 0 1 2 3 4 4 6 8 10 14 21 24 24 24 22 17 15 17 17 15 14 12 11 10 7 5 5 5 6 7 7
0 0 0 0 0 0 0 0 0 0 0 0 0 0 1 2 3 4 4 5 6 7 11 17 22 23 22 19 17 18 21 22 21 19 17 16 14 11 9 8 8 8 9 9
0 0 0 0 0 0 0 0 0 0 0 0 0 0 0 1 2 2 4 6 7 7 9 15 20 23 24 22 20 21 26 30 29 26 22 20 18 17 15 14 12 12 11 11
0 0 0 0 0 0 0 0 0 0 0 0 0 0 0 1 1 2 5 8 8 8 9 13 18 24 30 29 25 25 30 34 34 33 30 26 23 21 20 17 15 13 11 9
0 0 0 0 0 0 0 0 0 0 0 0 0 0 0 1 1 3 7 8 8 6 7 10 14 22 29 31 29 29 31 35 37 38 38 34 28 24 21 18 16 14 11 10
0 0 0 0 0 0 0 0 0 0 0 0 0 0 0 1 3 6 9 9 8 7 7 8 11 17 22 26 28 29 32 37 39 41 41 38 32 27 23 21 19 17 16 16
0 0 0 0 0 0 0 0 0 0 0 0 0 0 0 1 3 7 11 12 11 11 10 10 12 14 16 19 24 27 32 36 39 40 40 37 34 31 29 26 24 23 23 23
0 0 0 0 0 0 0 0 0 0 0 0 0 1 1 2 3 7 11 13 13 13 13 14 14 13 13 15 21 26 31 36 38 40 40 38 37 36 34 33 31 30 28 27
0 0 0 0 0 0 0 0 0 0 0 0 0 1 2 3 4 8 11 13 13 13 14 16 16 14 13 16 20 25 31 35 39 42 43 43 41 39 38 38 38 37 34 32
0 0 0 0 0 0 0 0 0 0 0 0 0 0 1 2 6 10 14 16 16 16 16 17 18 17 18 20 24 28 30 33 37 41 45 46 42 39 38 39 40 39 38 38
0 0 0 0 0 0 0 0 0 0 0 0 0 0 0 2 7 12 17 21 22 19 19 22 24 23 24 28 31 32 31 32 34 38 43 42 38 36 36 37 37 35 35 36
0 0 0 0 0 0 0 0 0 0 0 0 0 0 1 4 8 13 18 23 25 23 23 28 31 30 31 34 37 36 35 35 36 38 41 39 35 33 33 33 33 31 31 32
0 0 0 0 0 0 0 0 0 0 0 0 0 1 3 6 9 12 16 22 24 24 26 30 33 35 35 36 38 39 39 39 38 39 40 38 35 32 30 30 30 31 32 33
0 0 0 0 0 0 0 0 0 0 0 0 0 1 3 6 9 12 15 20 24 24 25 27 30 33 34 34 35 37 39 40 40 38 36 33 31 29 28 28 30 31 32 33
0 0 0 0 0 0 0 0 0 0 0 0 0 1 3 6 10 13 15 20 24 26 25 25 26 29 31 32 32 32 34 37 38 36 32 27 26 27 27 28 30 31 33 34
0 0 0 0 0 0 0 0 0 0 0 0 1 2 4 7 11 12 14 19 24 26 26 25 26 29 31 31 30 29 30 33 33 31 28 25 26 27 27 28 31 33 35 37
0 0 0 0 0 0 0 0 0 0 0 1 2 3 5 8 10 11 12 16 22 25 27 28 29 29 29 28 26 26 28 28 27 24 23 23 25 27 27 28 30 33 36 37
0 0 0 0 0 0 0 0 0 0 0 1 2 3 5 8 9 9 10 12 17 22 26 28 30 29 25 22 20 21 23 23 20 20 20 20 22 23 25 27 31 33 34 34
0 0 0 0 0 0 0 0 0 0 0 1 2 3 5 7 9 9 8 10 13 17 20 24 27 27 24 20 18 19 19 17 16 17 20 21 21 21 22 26 30 31 30 30
0 0 0 0 0 0 0 0 0 0 0 1 3 4 4 5 7 7 7 7 9 10 13 16 19 22 22 19 17 17 18 16 15 16 20 22 23 23 23 24 26 28 28 27
0 0 0 0 0 0 0 0 0 0 0 1 2 2 3 5 6 6 6 6 6 7 8 8 10 14 17 16 15 16 18 18 16 17 19 20 22 22 21 20 21 22 22 21
0 0 0 0 0 0 0 0 0 0 0 0 0 1 3 5 6 6 5 4 4 5 4 4 5 9 13 14 13 14 17 18 17 17 16 16 17 16 15 14 14 14 13 12
0 0 0 0 0 0 0 0 0 0 0 0 0 1 3 6 6 6 5 4 5 4 4 3 3 7 11 12 12 13 15 16 16 15 14 12 12 12 10 9 9 8 7 6

GEFSCGP_con_prob3kmehi_240.txt.gz
EHI
0 0 0 0 0 0 0 0 0 0 0 0 1 4 8 10 12 18 21 25 34 39 39 39 41 44 51 60 61 55 49 45 37 24 14 12 12 12 10 11 18 22 19 17
0 0 0 0 0 0 0 0 0 0 0 0 1 4 8 9 12 18 22 25 33 39 42 45 47 48 54 61 62 58 54 50 42 28 17 14 15 15 13 14 21 26 25 24
0 0 0 0 0 0 0 0 0 0 0 0 0 3 7 9 12 19 23 25 30 36 44 50 51 51 55 61 62 62 61 57 49 36 23 19 19 17 16 19 26 30 30 29
0 0 0 0 0 0 0 0 0 0 0 0 0 2 5 9 13 18 21 23 26 32 42 50 52 51 53 56 59 62 64 61 54 42 30 23 21 19 19 23 28 31 32 32
0 0 0 0 0 0 0 0 0 0 0 0 0 1 4 9 14 17 18 20 23 29 39 48 50 50 50 51 54 59 63 63 57 46 33 25 23 21 23 26 30 31 32 34
0 0 0 0 0 0 0 0 0 0 0 0 0 1 3 8 13 17 20 21 22 27 37 45 51 52 50 48 50 57 62 64 59 49 38 31 27 25 25 29 32 32 32 34
0 0 0 0 0 0 0 0 0 0 0 0 0 1 3 7 11 16 21 23 23 25 32 42 51 55 53 49 51 58 65 65 61 52 44 40 35 31 29 31 33 32 31 30
0 0 0 0 0 0 0 0 0 0 0 0 0 1 3 5 7 11 17 23 25 25 28 36 48 56 56 53 55 61 67 67 61 54 49 47 43 37 33 33 34 33 29 26
0 0 0 0 0 0 0 0 0 0 0 0 0 1 4 6 6 7 13 22 26 25 26 32 42 53 57 57 58 63 67 66 61 56 53 51 48 43 38 38 39 37 31 26
0 0 0 0 0 0 0 0 0 0 0 0 0 1 4 7 6 6 11 21 26 25 26 32 40 48 53 56 57 61 66 66 61 58 56 54 52 49 45 43 44 43 39 35
0 0 0 0 0 0 0 0 0 0 0 0 0 1 4 7 7 7 12 21 25 24 25 33 41 45 46 51 54 60 65 65 61 60 60 61 59 57 53 49 49 50 48 45
0 0 0 0 0 0 0 0 0 0 0 0 0 1 4 6 7 9 15 22 24 21 22 30 39 44 45 48 51 56 59 61 60 62 64 66 66 64 61 57 56 55 53 51
0 0 0 0 0 0 0 0 0 0 0 0 0 2 5 7 8 11 17 22 22 20 21 28 37 43 46 48 49 51 53 54 56 59 62 64 65 65 64 63 61 58 55 55
0 0 0 0 0 0 0 0 0 0 0 0 1 4 6 7 9 12 17 20 22 23 25 31 41 47 50 50 50 49 50 50 51 55 58 59 60 60 62 64 62 57 55 55
0 0 0 0 0 0 0 0 0 0 0 0 2 5 7 8 9 13 17 21 26 29 31 37 46 53 55 53 50 50 51 51 53 56 58 58 58 58 59 60 58 53 50 49
0 0 0 0 0 0 0 0 0 0 0 0 1 5 8 8 9 13 19 26 31 34 37 43 49 53 55 54 51 52 54 55 57 58 58 57 56 55 54 53 51 50 48 45
0 0 0 0 0 0 0 0 0 0 0 0 1 4 6 6 8 14 22 30 36 39 42 46 48 51 52 52 51 53 56 57 57 56 55 54 53 51 49 47 47 49 49 48
0 0 0 0 0 0 0 0 0 0 0 0 1 3 3 3 7 15 23 30 37 41 40 42 44 45 48 50 50 52 53 54 54 52 51 51 49 47 45 45 46 50 51 50
0 0 0 0 0 0 0 0 0 0 0 1 2 3 3 3 6 13 23 29 35 37 35 33 35 37 41 46 49 49 49 49 48 48 47 46 44 41 40 40 43 47 46 44
0 0 0 0 0 0 0 0 0 0 0 1 4 6 7 9 11 16 23 29 32 32 29 28 29 32 36 41 44 46 47 46 43 43 43 42 40 38 37 38 40 41 39 37
0 0 0 0 0 1 2 2 3 3 2 2 6 12 15 17 20 23 26 28 28 28 26 26 29 33 35 37 39 42 44 42 37 37 38 37 36 34 34 36 38 36 33 31
0 0 0 0 1 2 3 4 6 7 6 5 9 14 17 20 23 25 27 26 24 23 23 25 30 33 34 36 38 39 37 35 33 33 33 33 31 29 28 31 34 33 31 29
0 0 0 0 1 2 2 3 5 6 7 7 8 10 13 16 19 21 22 22 20 20 21 23 27 30 32 34 38 39 36 33 32 32 30 27 26 24 23 25 27 30 31 31
0 0 0 0 0 0 0 1 2 3 4 5 5 6 9 12 15 18 20 20 19 18 19 20 23 28 32 35 37 38 37 34 33 32 28 24 22 20 19 20 21 24 27 29
0 0 0 0 0 0 0 0 1 1 2 2 3 4 6 9 13 18 20 21 20 19 19 20 22 27 32 35 36 34 33 31 31 29 25 22 19 16 15 14 13 15 17 17
0 0 0 0 1 1 1 1 1 1 2 2 2 3 5 6 11 16 19 21 22 20 20 21 23 27 30 33 33 31 29 28 28 26 22 20 17 15 13 12 10 9 8 7